     2.11           OBSERVATION DATA    G (GPS)             RINEX VERSION / TYPE
teqc 2010Oct21 OPUS Account 20111028 15:26:18UTC            PGM / RUN BY / DATE
T 1526                                                      MARKER NAME
3054                                                        MARKER NUMBER
CSMIDDLETON NGS                                             OBSERVER / AGENCY
4624K01631 TRIMBLE NETR5 4.41                               REC # / TYPE / VERS
12481390 TRM41249.00 NONE                                   ANT # / TYPE
  -746713.5078 -5575584.7558  2995910.1016                  APPROX POSITION XYZ
        2.0000        0.0000        0.0000                  ANTENNA: DELTA H/E/N
     1     1                                                WAVELENGTH FACT L1/2
     5    L1    L2    C1    P1    P2                        # / TYPES OF OBSERV
    15                                                      LEAP SECONDS
  2011     8    23     0     0    0.0000000     GPS         TIME OF FIRST OBS
                                                            END OF HEADER
 11  8 23  0  0  0.0000000  0  9G17G04G09G10G12G05G25G02G30
 121000339.96617  94286081.24716  23025594.828                    23025604.730
 112854898.55118  87939018.47455  21475557.570                    21475566.922
 123035186.05917  95871638.14454  23412823.961                    23412836.813
 109832376.66118  85583798.45256  20900385.875                    20900395.297
 113848915.70217  88713488.66317  21664726.477                    21664735.148
 116937592.80717  91120282.79117  22252471.055                    22252481.324
 128643774.98516 100241930.34217  24480089.297                    24480102.789
 108467223.53318  84520054.49156  20640604.961                    20640612.305
 127812356.19115  99594098.56952  24321884.352                    24321896.672
 11  8 23  0  0 30.0000000  0  9G17G04G09G10G12G05G25G02G30
 121049894.366 7  94324695.019 6  23035025.344                    23035035.160
 112929143.169 8  87996871.40345  21489685.938                    21489695.301
 123109614.019 7  95929633.83744  23426987.250                    23426999.516
 109823108.779 7  85576576.74746  20898622.289                    20898631.656
 113781546.627 7  88660993.298 7  21651906.641                    21651915.121
 116843428.628 7  91046908.199 7  22234551.938                    22234562.715
 128541643.240 6 100162347.230 6  24460655.273                    24460668.105
 108462284.900 8  84516206.24246  20639664.945                    20639672.246
 127708139.95615  99512891.18152  24302052.500                    24302064.863
 11  8 23  0  1  0.0000000  0  9G17G04G09G10G12G05G25G02G30
 121099595.148 7  94363422.857 6  23044483.438                    23044492.688
 113003554.899 8  88054854.53845  21503846.016                    21503855.898
 123184264.380 7  95987802.81944  23441192.094                    23441205.500
 109814463.792 8  85569840.41846  20896976.813                    20896986.578
 113714563.631 8  88608798.763 7  21639160.258                    21639169.043
 116749523.546 7  90973735.497 7  22216682.539                    22216692.906
 128439640.013 6 100082864.280 6  24441243.398                    24441257.059
 108457650.388 8  84512594.95846  20638783.148                    20638790.102
 127604114.397 5  99431832.38143  24282258.391                    24282269.316
 11  8 23  0  1 30.0000000  0  9G17G04G09G10G12G05G25G02G30
 121149442.367 7  94402264.794 6  23053968.586                    23053978.336
 113078131.684 8  88112966.30245  21518037.594                    21518047.035
 123259133.983 7  96046142.65344  23455440.031                    23455452.969
 109806442.641 7  85563590.19646  20895450.836                    20895460.852
 113647969.411 7  88556907.181 7  21626487.867                    21626497.020
 116655880.758 7  90900767.192 7  22198862.766                    22198873.121
 128337768.048 6 100003483.592 6  24421858.141                    24421870.965
 108453319.241 7  84509220.06146  20637959.023                    20637965.719
 127500282.426 6  99350924.42543  24262498.445                    24262511.047
 11  8 23  0  2  0.0000000  0  9G17G04G09G10G12G05G25G02G30
 121199436.957 7  94441221.578 6  23063482.406                    23063492.070
 113152871.300 8  88171204.95145  21532259.836                    21532269.617
 123334218.987 7  96104650.32944  23469728.547                    23469741.156
 109799045.850 8  85557826.48246  20894043.461                    20894053.113
 113581766.208 7  88505320.295 7  21613889.563                    21613898.504
 116562503.235 7  90828005.567 7  22181093.453                    22181104.184
 128236029.748 6  99924207.094 6  24402497.188                    24402511.199
 108449290.320 8  84506080.66246  20637192.266                    20637199.332
 127396646.732 6  99270169.39244  24242778.727                    24242789.734
 11  8 23  0  2 30.0000000  0  9G17G04G09G10G12G05G25G02G30
 121249579.812 7  94480293.881 6  23073024.531                    23073033.582
 113227771.726 8  88229568.90945  21546513.258                    21546523.262
 123409516.056 7  96163323.26344  23484057.398                    23484069.492
 109792273.922 8  85552549.67246  20892755.016                    20892764.191
 113515956.908 7  88454040.332 7  21601366.172                    21601375.543
 116469393.613 7  90755452.711 7  22163375.406                    22163385.645
 128134427.722 6  99845036.738 6  24383163.508                    24383176.164
 108445562.513 8  84503175.89846  20636483.086                    20636490.152
 127293210.076 7  99189569.44944  24223095.078                    24223106.180
 11  8 23  0  3  0.0000000  0  9G17G04G09G10G12G05G25G02G30
 121299871.149 7  94519481.889 6  23082594.281                    23082604.492
 113302830.654 8  88288056.37545  21560796.375                    21560806.086
 123485022.037 7  96222158.99444  23498425.867                    23498437.707
 109786127.582 8  85547760.33746  20891585.180                    20891594.293
 113450543.668 7  88403068.980 7  21588918.859                    21588927.914
 116376554.998 7  90683111.025 7  22145708.516                    22145719.031
 128032964.334 6  99765974.400 5  24363856.016                    24363867.469
 108442134.614 8  84500504.81846  20635830.602                    20635837.539
 127189975.246 6  99109126.78144  24203450.477                    24203461.105
 11  8 23  0  3 30.0000000  0  9G17G04G09G10G12G05G25G02G30
 121350311.666 7  94558786.129 6  23092193.070                    23092202.703
 113378046.223 8  88346665.89245  21575109.539                    21575118.992
 123560733.369 7  96281154.74144  23512833.242                    23512844.707
 109780607.133 8  85543458.70546  20890534.375                    20890543.820
 113385528.670 8  88352407.958 7  21576546.680                    21576555.906
 116283989.898 7  90610982.465 7  22128093.656                    22128104.613
 127931642.102 6  99687022.029 6  24344574.281                    24344586.910
 108439005.562 8  84498066.60346  20635234.836                    20635241.371
 127086945.067 6  99028843.56644  24183844.266                    24183855.516
 11  8 23  0  4  0.0000000  0  9G17G04G09G10G12G05G25G02G30
 121400902.066 7  94598207.153 6  23101819.922                    23101830.309
 113453416.039 8  88405395.59945  21589451.805                    21589461.684
 123636646.627 7  96340307.82544  23527278.477                    23527291.031
 109775713.196 7  85539645.26346  20889603.297                    20889612.805
 113320914.710 8  88302059.421 7  21564251.313                    21564260.023
 116191701.479 7  90539069.509 7  22110532.109                    22110542.258
 127830463.623 6  99608181.680 6  24325321.313                    24325333.449
 108436174.141 7  84495860.31646  20634696.430                    20634703.539
 126984122.183 6  98948721.92043  24164277.469                    24164288.297
 11  8 23  0  4 30.0000000  0  9G17G04G09G10G12G05G25G02G30
 121451642.820 7  94637745.337 7  23111475.344                    23111486.422
 113528938.360 8  88464244.14945  21603823.250                    21603833.063
 123712758.534 7  96399615.69944  23541762.219                    23541775.012
 109771446.600 8  85536320.66446  20888791.383                    20888800.742
 113256704.016 7  88252025.117 7  21552032.313                    21552041.156
 116099692.865 7  90467374.581 7  22093023.242                    22093033.637
 127729431.579 7  99529455.432 6  24306096.391                    24306108.477
 108433639.618 8  84493885.37846  20634214.133                    20634220.719
 126881509.441 6  98868764.01843  24144750.141                    24144761.945
 11  8 23  0  5  0.0000000  0  9G17G04G09G10G12G05G25G02G30
 121502534.768 7  94677401.346 6  23121159.773                    23121170.324
 113604610.956 8  88523209.79345  21618222.852                    21618232.902
 123789065.662 7  96459075.69544  23556283.289                    23556296.262
 109767807.425 8  85533484.97046  20888098.180                    20888107.957
 113192899.125 7  88202307.029 7  21539890.766                    21539899.984
 116007966.937 7  90395899.936 7  22075568.352                    22075578.316
 127628548.548 7  99450845.304 6  24286897.969                    24286910.848
 108431400.832 8  84492140.88646  20633787.781                    20633795.004
 126779109.894 6  98788972.21043  24125264.688                    24125275.824
 11  8 23  0  5 30.0000000  0  9G17G04G09G10G12G05G25G02G30
 121553578.601 7  94717175.696 6  23130873.477                    23130883.863
 113680431.862 8  88582291.01145  21632651.398                    21632660.918
 123865564.560 7  96518685.13044  23570840.648                    23570853.230
 109764796.325 8  85531138.68146  20887525.563                    20887534.738
 113129502.390 7  88152906.981 7  21527826.641                    21527835.277
 115916526.441 7  90324647.708 7  22058167.891                    22058178.180
 127527817.027 7  99372353.221 6  24267729.961                    24267742.316
 108429456.685 8  84490625.98146  20633418.133                    20633425.301
 126676926.100 6  98709348.53142  24105819.172                    24105831.004
 11  8 23  0  6  0.0000000  0  9G17G04G09G10G12G05G25G02G30
 121604774.729 7  94757068.726 7  23140615.281                    23140626.242
 113756399.149 8  88641486.27145  21647107.594                    21647117.152
 123942251.908 7  96578441.39644  23585433.992                    23585446.477
 109762414.030 8  85529282.37346  20887071.953                    20887081.508
 113066516.396 7  88103826.989 7  21515840.648                    21515850.055
 115825374.724 7  90253620.501 7  22040822.188                    22040832.652
 127427239.833 7  99293981.413 6  24248590.758                    24248603.152
 108427806.164 8  84489339.87846  20633103.805                    20633111.008
 126574961.124 5  98629895.37142  24086416.258                    24086426.813
 11  8 23  0  6 30.0000000  0  9G17G04G09G10G12G05G25G02G30
 121656123.527 7  94797080.717 7  23150386.883                    23150396.969
 113832510.543 8  88700793.82845  21661591.406                    21661600.809
 124019124.306 7  96638341.87144  23600062.383                    23600075.359
 109760660.534 8  85527916.02746  20886738.680                    20886748.031
 113003943.181 8  88055068.651 7  21503933.266                    21503942.176
 115734514.131 7  90182820.137 7  22023531.703                    22023542.348
 127326819.309 6  99215731.690 6  24229481.289                    24229493.840
 108426447.639 8  84488281.29746  20632845.203                    20632852.461
 126473217.546 6  98550614.68942  24067054.836                    24067065.113
 11  8 23  0  7  0.0000000  0  9G17G04G09G10G12G05G25G02G30
 121707625.918 7  94837212.373 7  23160187.758                    23160198.488
 113908764.288 8  88760212.31945  21676101.875                    21676111.406
 124096178.389 6  96698383.89543  23614724.469                    23614738.230
 109759536.186 8  85527039.93846  20886524.836                    20886534.219
 112941785.483 7  88006634.095 7  21492105.484                    21492114.281
 115643947.649 7  90112248.948 7  22006297.352                    22006307.930
 127226558.089 6  99137606.115 7  24210401.219                    24210414.469
 108425380.467 8  84487449.73846  20632642.328                    20632649.176
 126371698.308 6  98471508.80142  24047736.070                    24047746.609
 11  8 23  0  7 30.0000000  0  9G17G04G09G10G12G05G25G02G30
 121759282.548 7  94877464.235 7  23170017.281                    23170028.398
 113985158.380 8  88819740.15845  21690639.273                    21690648.723
 124173410.718 6  96758564.84743  23629421.352                    23629434.859
 109759041.298 8  85526654.33046  20886430.523                    20886439.793
 112880045.749 7  87958525.229 7  21480356.797                    21480365.426
 115553678.502 7  90041909.451 7  21989120.039                    21989130.352
 127126458.810 6  99059606.720 7  24191353.508                    24191366.152
 108424603.582 8  84486844.38746  20632494.328                    20632501.402
 126270406.432 6  98392580.08242  24028461.680                    24028472.094
 11  8 23  0  8  0.0000000  0  9G17G04G09G10G12G05G25G02G30
 121811093.985 7  94917836.704 7  23179877.164                    23179887.984
 114061690.574 8  88879375.61645  21705203.117                    21705212.910
 124250817.554 7  96818881.73244  23644152.922                    23644164.941
 109759176.001 8  85526759.31046  20886456.352                    20886465.656
 112818725.964 7  87910743.596 7  21468688.055                    21468696.336
 115463709.437 7  89971803.795 7  21971998.766                    21972009.359
 127026523.844 6  98981735.354 6  24172336.352                    24172349.508
 108424115.425 8  84486464.00346  20632401.445                    20632408.715
 126169344.297 6  98313830.38443  24009230.258                    24009240.223
 11  8 23  0  8 30.0000000  0  9G17G04G09G10G12G05G25G02G30
 121863060.773 7  94958330.237 7  23189765.672                    23189777.074
 114138359.097 8  88939117.31045  21719792.203                    21719802.730
 124328396.087 7  96879332.44044  23658915.078                    23658927.602
 109759940.945 8  85527355.39046  20886601.516                    20886611.145
 112757829.275 8  87863291.656 7  21457099.352                    21457108.301
 115374043.558 7  89901934.381 7  21954936.102                    21954946.789
 126926756.279 6  98903994.411 6  24153350.984                    24153364.500
 108423915.676 8  84486308.35546  20632363.594                    20632370.734
 126068515.218 6  98235262.31043  23990043.133                    23990053.680
 11  8 23  0  9  0.0000000  0  9G17G04G09G10G12G05G25G02G30
 121915183.463 7  94998945.256 7  23199684.727                    23199695.723
 114215161.973 8  88998963.68745  21734407.336                    21734417.426
 124406142.861 7  96939914.24643  23673709.375                    23673722.848
 109761336.202 8  85528442.61646  20886867.438                    20886876.656
 112697357.218 8  87816170.606 7  21445592.008                    21445600.848
 115284683.440 7  89832303.213 7  21937931.734                    21937942.023
 126827158.353 6  98826385.667 6  24134398.422                    24134411.441
 108424002.835 8  84486376.27946  20632380.109                    20632387.012
 125967921.779 6  98156877.84643  23970900.547                    23970911.711
 11  8 23  0  9 30.0000000  0  9G17G04G09G10G12G05G25G02G30
 121967462.545 7  95039682.141 6  23209632.930                    23209643.699
 114292097.067 8  89058913.10345  21749047.727                    21749058.020
 124484054.182 7  97000624.25044  23688535.805                    23688549.082
 109763361.748 7  85530020.98046  20887252.602                    20887261.883
 112637312.362 8  87769382.436 7  21434165.828                    21434174.879
 115195632.083 7  89762912.635 7  21920985.617                    21920996.094
 126727732.743 6  98748911.198 6  24115479.172                    24115491.426
 108424375.463 8  84486666.64346  20632450.898                    20632458.316
 125867566.768 7  98078679.15444  23951803.633                    23951813.844
 11  8 23  0 10  0.0000000  0  9G17G04G09G10G12G05G25G02G30
 122019898.561 7  95080541.293 6  23219611.297                    23219621.656
 114369162.102 8  89118963.74745  21763712.680                    21763722.496
 124562126.550 7  97061459.76244  23703392.602                    23703405.637
 109766017.691 7  85532090.55846  20887758.141                    20887767.578
 112577696.836 8  87722928.816 7  21422821.398                    21422830.414
 115106892.108 7  89693764.701 7  21904099.008                    21904109.359
 126628481.881 6  98671572.878 6  24096591.344                    24096604.703
 108425032.163 8  84487178.36246  20632575.727                    20632583.133
 125767452.846 7  98000668.32544  23932752.563                    23932762.617
 11  8 23  0 10 30.0000000  0  9G17G04G09G10G12G05G25G02G30
 122072492.366 7  95121523.425 6  23229619.602                    23229630.102
 114446355.413 8  89179114.34545  21778402.422                    21778411.844
 124640356.875 7  97122418.36343  23718278.938                    23718291.766
 109769304.766 7  85534651.92646  20888383.461                    20888393.063
 112518513.078 8  87676811.638 7  21411559.094                    21411567.906
 115018466.514 7  89624861.725 7  21887271.703                    21887282.129
 126529408.612 6  98594372.945 6  24077738.602                    24077751.730
 108425972.388 8  84487911.00546  20632754.977                    20632761.863
 125667583.105 6  97922847.75843  23913747.922                    23913757.875
 11  8 23  0 11  0.0000000  0  9G17G04G09G10G12G05G25G02G30
 122125244.288 7  95162628.779 6  23239658.211                    23239668.566
 114523675.153 7  89239363.47545  21793115.578                    21793124.902
 124718741.744 7  97183497.36643  23733195.820                    23733208.082
 109773222.653 7  85537704.83046  20889129.234                    20889138.398
 112459763.482 8  87631032.773 7  21400379.523                    21400388.422
 114930358.004 7  89556205.825 7  21870505.766                    21870515.516
 126430515.507 6  98517313.393 6  24058919.859                    24058932.668
 108427194.896 8  84488863.61246  20632987.586                    20632994.566
 125567960.228 6  97845219.55743  23894789.977                    23894800.738
 11  8 23  0 11 30.0000000  0  9G17G04G09G10G12G05G25G02G30
 122178155.032 7  95203857.892 6  23249726.594                    23249736.555
 114601119.252 7  89299709.49645  21807852.500                    21807862.254
 124797277.701 6  97244694.11643  23748140.414                    23748152.762
 109777771.426 8  85541249.34746  20889994.531                    20890003.750
 112401450.880 8  87585594.408 7  21389283.000                    21389291.637
 114842569.709 7  89487799.455 7  21853799.742                    21853810.367
 126331805.334 7  98440396.397 6  24040136.109                    24040148.410
 108428698.446 8  84490035.22046  20633273.367                    20633280.699
 125468587.279 6  97767786.11843  23875880.477                    23875890.703
 11  8 23  0 12  0.0000000  0  9G17G04G09G10G12G05G25G02G30
 122231224.938 7  95245211.036 6  23259825.891                    23259834.840
 114678685.600 7  89360150.79545  21822612.641                    21822622.750
 124875961.373 7  97306005.95844  23763114.258                    23763125.988
 109782950.920 7  85545285.31846  20890980.289                    20890989.809
 112343576.573 7  87540497.579 7  21378269.563                    21378278.402
 114755104.365 7  89419644.725 7  21837155.758                    21837165.500
 126233280.388 7  98363623.722 6  24021387.367                    24021399.250
 108430481.654 8  84491424.72846  20633612.594                    20633619.520
 125369466.709 6  97690549.28943  23857018.539                    23857029.086
 11  8 23  0 12 30.0000000  0  9G17G04G09G10G12G05G25G02G30
 122284454.751 7  95286688.783 6  23269955.039                    23269964.520
 114756372.164 8  89420685.75045  21837395.867                    21837406.266
 124954789.387 7  97367430.29344  23778115.000                    23778127.000
 109788761.425 8  85549812.98646  20892085.906                    20892095.090
 112286142.924 8  87495744.113 7  21367340.422                    21367349.277
 114667964.426 7  89351743.573 7  21820573.383                    21820583.293
 126134943.278 7  98286997.428 6  24002674.234                    24002686.539
 108432543.401 8  84493031.29046  20634005.227                    20634011.797
 125270601.439 6  97613511.43343  23838204.836                    23838215.742
 11  8 23  0 13  0.0000000  0  9G17G04G09G10G12G05G25G02G30
 122337844.742 7  95328291.347 6  23280114.383                    23280123.941
 114834177.412 8  89481313.17445  21852202.531                    21852212.098
 125033758.283 7  97428964.42944  23793141.789                    23793154.277
 109795202.847 7  85554832.28646  20893311.883                    20893321.258
 112229152.521 8  87451336.033 7  21356495.672                    21356503.988
 114581153.118 7  89284098.481 7  21804053.391                    21804063.656
 126036796.787 7  98210519.678 6  23983997.523                    23984010.141
 108434882.491 8  84494853.96846  20634450.531                    20634457.176
 125171994.388 6  97536674.78043  23819440.133                    23819451.039
 11  8 23  0 13 30.0000000  0  9G17G04G09G10G12G05G25G02G30
 122391395.952 7  95370019.489 6  23290305.047                    23290315.016
 114912099.299 8  89542031.48445  21867030.492                    21867040.406
 125112865.020 6  97490605.95644  23808195.156                    23808208.227
 109802275.369 8  85560343.35546  20894657.773                    20894667.066
 112172607.708 8  87407275.155 7  21345735.352                    21345744.316
 114494673.508 7  89216711.850 7  21787597.180                    21787606.996
 125938843.761 7  98134192.720 6  23965357.820                    23965370.500
 108437498.234 8  84496892.20846  20634948.320                    20634954.875
 125073648.632 6  97460041.75643  23800725.922                    23800735.910
 11  8 23  0 14  0.0000000  0  9G17G04G09G10G12G05G25G02G30
 122445108.641 7  95411873.469 6  23300526.719                    23300537.367
 114990136.023 7  89602839.27045  21881880.438                    21881890.359
 125192106.215 7  97552352.20343  23823274.391                    23823287.691
 109809978.587 8  85566345.87846  20896123.773                    20896132.809
 112116510.937 8  87363563.398 7  21335060.344                    21335069.297
 114408527.892 7  89149585.476 7  21771203.992                    21771213.984
 125841086.644 7  98058018.410 6  23946755.281                    23946767.590
 108440389.229 8  84499144.93446  20635498.297                    20635505.324
 124975566.774 7  97383614.37543  23782061.805                    23782071.832
 11  8 23  0 14 30.0000000  0  9G17G04G09G10G12G05G25G02G30
 122498983.289 7  95453853.654 6  23310778.414                    23310789.043
 115068285.228 8  89663734.71745  21896751.461                    21896761.012
 125271478.103 6  97614200.30144  23838378.813                    23838391.910
 109818312.398 8  85572839.78546  20897709.289                    20897718.426
 112060863.465 8  87320201.741 7  21324471.242                    21324479.770
 114322718.996 7  89082721.492 7  21754874.992                    21754885.160
 125743527.806 7  97981998.608 6  23928189.992                    23928203.133
 108443553.741 8  84501610.79646  20636100.563                    20636107.059
 124877751.471 7  97307394.71843  23763448.234                    23763457.402
 11  8 23  0 15  0.0000000  0  9G17G04G09G10G12G05G25G02G30
 122553020.916 7  95495960.828 6  23321061.563                    23321072.289
 115146545.537 7  89724716.73045  21911644.039                    21911653.629
 125350977.570 6  97676147.82844  23853506.672                    23853520.227
 109827276.860 8  85579825.09545  20899415.203                    20899424.523
 112005668.491 8  87277192.674 7  21313967.836                    21313976.637
 114237250.212 7  89016122.515 7  21738610.516                    21738620.609
 125646170.315 6  97906135.700 7  23909663.234                    23909676.418
 108446991.386 8  84504289.48246  20636754.367                    20636761.133
 124780205.953 7  97231385.27343  23744885.727                    23744895.633
 11  8 23  0 15 30.0000000  0  9G17G04G09G10G12G05G25G02G30
 122607221.697 7  95538195.129 6  23331375.930                    23331386.582
 115224914.829 8  89785783.66345  21926557.125                    21926566.934
 125430601.214 6  97738192.10444  23868658.344                    23868672.078
 109836871.872 8  85587301.73646  20901240.891                    20901250.535
 111950927.810 8  87234537.594 7  21303550.984                    21303559.871
 114152123.872 7  88949790.368 7  21722411.438                    21722421.375
 125549016.635 6  97830431.616 7  23891175.672                    23891188.797
 108450700.682 8  84507179.85146  20637460.305                    20637467.395
 124682932.909 7  97155588.14943  23726375.297                    23726385.574
 11  8 23  0 16  0.0000000  0  9G17G04G09G10G12G05G25G02G30
 122661586.284 7  95580557.081 6  23341721.148                    23341731.977
 115303391.534 8  89846934.29545  21941491.273                    21941500.156
 125510345.726 6  97800330.58244  23883834.859                    23883847.746
 109847097.328 8  85595269.63146  20903187.063                    20903196.613
 111896643.939 8  87192238.467 7  21293221.219                    21293229.711
 114067343.188 8  88883727.562 7  21706278.500                    21706288.488
 125452069.663 7  97754888.597 7  23872727.484                    23872740.465
 108454680.698 8  84510281.18146  20638217.531                    20638224.543
 124585935.356 7  97080005.68243  23707917.641                    23707927.445
 11  8 23  0 16 30.0000000  0  9G17G04G09G10G12G05G25G02G30
 122716115.038 7  95623046.925 6  23352097.711                    23352108.297
 115381973.651 8  89908167.04145  21956444.500                    21956454.645
 125590207.613 6  97862560.51244  23899031.352                    23899044.594
 109857952.933 8  85603728.55246  20905252.586                    20905262.234
 111842819.219 8  87150297.128 7  21282978.359                    21282987.711
 113982910.577 7  88817935.999 7  21690210.930                    21690221.281
 125355331.877 7  97679508.566 7  23854317.789                    23854331.547
 108458929.900 8  84513592.25046  20639026.422                    20639033.457
 124489215.953 7  97004639.96943  23689512.227                    23689521.719
 11  8 23  0 17  0.0000000  0  9G17G04G09G10G12G05G25G02G30
 122770808.585 7  95665665.212 6  23362505.500                    23362516.352
 115460659.391 7  89969480.53345  21971418.344                    21971427.777
 125670183.757 6  97924879.44344  23914249.398                    23914264.066
 109869438.656 8  85612678.47546  20907438.648                    20907447.863
 111789455.385 8  87108714.931 7  21272823.734                    21272832.934
 113898828.930 8  88752417.895 7  21674210.867                    21674221.270
 125258806.004 7  97604293.684 7  23835949.813                    23835963.371
 108463447.410 8  84517112.40646  20639886.422                    20639893.270
 124392777.616 7  96929493.27443  23671160.469                    23671170.598
 11  8 23  0 17 30.0000000  0  9G17G04G09G10G12G05G25G02G30
 122825667.450 7  95708412.293 6  23372945.031                    23372955.703
 115539446.820 8  90030873.27845  21986411.008                    21986421.473
 125750270.644 6  97987284.67743  23929489.797                    23929503.531
 109881553.740 8  85622118.81846  20909743.547                    20909753.246
 111736554.682 8  87067493.603 7  21262757.336                    21262766.254
 113815101.035 8  88687175.444 7  21658278.297                    21658288.074
 125162494.708 7  97529245.988 7  23817622.531                    23817635.613
 108468231.879 8  84520840.58146  20640796.359                    20640803.246
 124296623.159 7  96854567.78243  23652862.453                    23652873.434
 11  8 23  0 18  0.0000000  0  9G17G04G09G10G12G05G25G02G30
 122880692.294 7  95751288.730 6  23383416.086                    23383426.504
 115618334.086 8  90092343.83645  22001422.578                    22001432.988
 125830464.865 6  98049773.53743  23944750.547                    23944764.516
 109894297.982 8  85632049.40446  20912169.008                    20912178.258
 111684119.307 8  87026634.876 7  21252779.031                    21252787.762
 113731729.479 8  88622210.653 7  21642413.125                    21642422.750
 125066400.610 7  97454367.516 7  23799336.523                    23799350.035
 108473282.217 8  84524775.93246  20641757.469                    20641764.844
 124200755.421 7  96779865.72043  23634620.055                    23634630.492
 11  8 23  0 18 30.0000000  0  9G17G04G09G10G12G05G25G02G30
 122935883.511 7  95794294.811 6  23393918.273                    23393928.910
 115697319.359 7  90153890.75645  22016452.891                    22016463.742
 125910763.257 6  98112343.57444  23960030.969                    23960044.141
 109907670.778 8  85642469.76146  20914713.578                    20914722.938
 111632151.273 8  86986140.310 7  21242889.695                    21242898.266
 113648716.985 8  88557525.663 7  21626616.156                    21626626.121
 124970526.234 7  97379660.261 7  23781092.008                    23781105.531
 108478597.267 8  84528917.54246  20642768.984                    20642775.789
 124105177.106 7  96705389.15444  23616431.422                    23616442.020
 11  8 23  0 19  0.0000000  0  9G17G04G09G10G12G05G25G02G30
 122991241.507 7  95837430.867 6  23404452.719                    23404463.738
 115776400.835 8  90215512.65045  22031501.789                    22031512.148
 125991162.614 7  98174992.30243  23975330.695                    23975344.406
 109921672.102 8  85653379.89346  20917378.016                    20917387.938
 111580652.829 8  86946011.669 7  21233089.938                    21233099.277
 113566066.393 7  88493122.676 7  21610888.500                    21610898.285
 124874874.294 7  97305126.312 6  23762890.891                    23762903.438
 108484175.618 8  84533264.33246  20643830.438                    20643836.949
 124009890.945 7  96631140.28243  23598299.000                    23598309.719
 11  8 23  0 19 30.0000000  0  9G17G04G09G10G12G05G25G02G30
 123046766.873 7  95880697.339 6  23415018.719                    23415029.742
 115855576.605 7  90277208.01445  22046568.188                    22046578.859
 126071659.300 6  98237716.86243  23990648.563                    23990662.258
 109936301.395 8  85664779.33946  20920161.367                    20920171.531
 111529625.707 8  86906250.287 7  21223380.031                    21223389.250
 113483780.377 8  88429003.760 7  21595230.172                    21595239.664
 124779447.350 7  97230767.679 6  23744730.930                    23744743.742
 108490016.217 8  84537815.45846  20644941.906                    20644948.855
 123914899.875 6  96557121.34743  23580223.086                    23580233.535
 11  8 23  0 20  0.0000000  0  9G17G04G09G10G12G05G25G02G30
 123102460.055 7  95924094.562 6  23425616.375                    23425628.121
 115934844.979 7  90338975.53845  22061652.891                    22061662.582
 126152250.117 7  98300514.75944  24005984.180                    24005998.102
 109951558.521 8  85676668.00746  20923064.867                    20923074.453
 111479072.229 7  86866857.973 7  21213760.305                    21213768.902
 113401861.595 7  88365171.007 7  21579641.188                    21579650.898
 124684248.290 7  97156586.612 6  23726615.703                    23726627.652
 108496117.576 8  84542569.77946  20646103.102                    20646109.945
 123820206.752 7  96483334.55044  23562203.375                    23562214.188
 11  8 23  0 20 30.0000000  0  9G17G04G09G10G12G05G25G02G30
 123158321.705 7  95967623.083 7  23436247.164                    23436257.848
 116014204.182 7  90400813.83245  22076754.422                    22076764.621
 126232931.570 6  98363383.30443  24021337.781                    24021351.492
 109967442.769 8  85689045.34246  20926087.930                    20926097.316
 111428994.599 8  86827836.465 7  21204230.398                    21204238.930
 113320312.833 8  88301626.578 7  21564122.719                    21564132.754
 124589279.665 7  97082585.109 6  23708543.445                    23708555.906
 108502478.714 8  84547526.51446  20647313.625                    20647320.289
 123725814.416 7  96409782.14544  23544240.383                    23544251.434
 11  8 23  0 21  0.0000000  0  9G17G04G09G10G12G05G25G02G30
 123214352.227 7  96011283.182 6  23446909.633                    23446920.273
 116093652.688 7  90462721.71645  22091873.023                    22091883.406
 126313700.914 7  98426320.30843  24036708.031                    24036721.633
 109983953.875 8  85701911.12446  20929230.094                    20929239.203
 111379395.163 8  86789187.569 7  21194791.914                    21194801.039
 113239136.931 7  88238372.693 7  21548675.563                    21548685.273
 124494544.389 7  97008765.456 6  23690515.898                    23690528.559
 108509098.710 8  84552684.95446  20648572.969                    20648580.027
 123631725.963 7  96336466.52443  23526336.461                    23526346.945
 11  8 23  0 21 30.0000000  0  9G17G04G09G10G12G05G25G02G30
 123270552.085 7  96055075.268 6  23457603.805                    23457614.934
 116173188.201 7  90524697.40945  22107008.195                    22107018.219
 126394554.205 7  98489322.71843  24052093.875                    24052107.875
 110001090.612 8  85715264.42246  20932491.133                    20932499.863
 111330275.118 8  86750912.226 7  21185444.773                    21185453.844
 113158336.057 8  88175411.045 7  21533299.492                    21533309.707
 124400044.615 7  96935129.295 6  23672532.859                    23672545.746
 108515975.638 8  84558043.59546  20649881.906                    20649888.582
 123537943.608 7  96263389.41844  23508490.258                    23508500.602
 11  8 23  0 22  0.0000000  0  9G17G04G09G10G12G05G25G02G30
 123326921.769 6  96098999.650 6  23468330.633                    23468341.984
 116252809.118 7  90586739.66645  22122159.570                    22122169.898
 126475488.214 7  98552388.08443  24067495.523                    24067508.941
 110018852.961 8  85729105.20846  20935870.867                    20935879.988
 111281636.976 8  86713012.392 7  21176189.242                    21176198.117
 113077913.313 7  88112744.021 7  21517995.563                    21518005.328
 124305783.348 7  96861678.975 6  23654595.695                    23654608.137
 108523108.482 8  84563601.66246  20651238.914                    20651245.867
 123444470.572 7  96190553.32443  23490702.500                    23490713.410
 11  8 23  0 22 30.0000000  0  9G17G04G09G10G12G05G25G02G30
 123383461.940 6  96143056.883 6  23479089.594                    23479100.570
 116332514.038 7  90648847.39945  22137326.875                    22137337.223
 126556500.042 7  98615514.06643  24082911.914                    24082923.621
 110037240.890 8  85743433.45946  20939369.820                    20939379.824
 111233482.970 8  86675489.811 7  21167025.844                    21167034.473
 112997871.235 8  88050373.637 7  21502764.273                    21502773.645
 124211763.390 7  96788416.718 6  23636704.516                    23636716.703
 108530496.708 8  84569358.72346  20652644.977                    20652651.797
 123351309.726 7  96117960.46944  23472974.727                    23472985.402
 11  8 23  0 23  0.0000000  0  9G17G04G09G10G12G05G25G02G30
 123440172.849 7  96187247.152 6  23489881.125                    23489892.137
 116412301.212 7  90711019.19645  22152509.828                    22152520.676
 126637586.239 7  98678697.93143  24098342.180                    24098354.133
 110056253.481 8  85758248.45946  20942987.641                    20942997.535
 111185814.800 7  86638345.800 7  21157954.500                    21157963.668
 112918212.420 7  87988301.884 7  21487605.336                    21487615.371
 124117987.308 7  96715344.473 6  23618859.344                    23618871.789
 108538138.720 8  84575313.53846  20654099.266                    20654106.262
 123258463.833 7  96045613.03943  23455306.383                    23455316.824
 11  8 23  0 23 30.0000000  0  9G17G04G09G10G12G05G25G02G30
 123497055.080 6  96231570.970 6  23500705.328                    23500716.023
 116492168.711 7  90773253.59645  22167707.844                    22167718.324
 126718743.594 7  98741937.30043  24113786.180                    24113798.441
 110075889.904 8  85773549.56146  20946724.383                    20946734.840
 111138634.550 8  86601581.988 7  21148976.500                    21148985.609
 112838939.525 7  87926530.862 7  21472520.219                    21472530.262
 124024457.774 7  96642464.364 7  23601061.188                    23601073.836
 108546033.334 8  84581465.18146  20655601.516                    20655608.340
 123165935.693 7  95973513.23143  23437699.313                    23437709.355
 11  8 23  0 24  0.0000000  0  9G17G04G09G10G12G05G25G02G30
 123554109.002 7  96276028.544 6  23511563.172                    23511572.859
 116572114.740 7  90835549.17245  22182921.375                    22182931.777
 126799968.558 6  98805229.31043  24129242.945                    24129255.852
 110096149.188 8  85789336.01746  20950579.930                    20950589.680
 111091944.398 8  86565200.069 7  21140091.844                    21140100.355
 112760054.962 8  87865062.424 7  21457509.211                    21457518.914
 123931177.324 7  96569778.351 7  23583310.594                    23583323.313
 108554178.986 8  84587812.43946  20657151.117                    20657158.363
 123073728.047 7  95901663.12643  23420152.734                    23420162.930
 11  8 23  0 24 30.0000000  0  9G17G04G09G10G12G05G25G02G30
 123611335.077 6  96320620.245 6  23522452.672                    23522463.578
 116652137.587 7  90897904.60445  22198149.148                    22198159.441
 126881258.110 6  98868571.67143  24144711.258                    24144724.223
 110117030.860 8  85805607.43546  20954553.461                    20954563.258
 111045745.871 8  86529201.234 7  21131300.383                    21131309.098
 112681561.821 7  87803898.994 7  21442572.133                    21442581.613
 123838148.747 7  96497288.596 7  23565607.703                    23565620.773
 108562574.745 8  84594354.59346  20658749.234                    20658756.125
 122981843.713 6  95830064.97144  23402667.727                    23402677.824
 11  8 23  0 25  0.0000000  0  9G17G04G09G10G12G05G25G02G30
 123668733.606 6  96365346.336 6  23533375.195                    23533385.941
 116732235.730 7  90960318.70845  22213391.656                    22213401.246
 126962608.933 6  98931961.76043  24160192.789                    24160206.035
 110138534.322 8  85822363.38046  20958645.633                    20958655.059
 111000041.067 8  86493587.107 7  21122603.320                    21122611.695
 112603462.394 8  87743042.354 7  21427710.320                    21427720.371
 123745374.749 7  96424997.195 7  23547953.164                    23547966.125
 108571219.370 8  84601090.65846  20660394.047                    20660401.188
 122890285.567 7  95758720.99844  23385244.969                    23385255.465
 11  8 23  0 25 30.0000000  0  9G17G04G09G10G12G05G25G02G30
 123726305.337 6  96410207.394 6  23544331.195                    23544341.316
 116812407.713 7  91022790.34445  22228647.711                    22228657.363
 127044017.770 6  98995397.04643  24175684.000                    24175697.926
 110160659.049 8  85839603.41446  20962855.672                    20962864.867
 110954832.500 8  86458359.666 7  21114000.523                    21114008.598
 112525759.500 7  87682494.713 7  21412923.945                    21412933.793
 123652858.181 7  96352906.390 7  23530348.102                    23530360.930
 108580111.964 8  84608019.94946  20662086.641                    20662093.234
 122799056.555 7  95687633.48144  23367884.570                    23367895.332
 11  8 23  0 26  0.0000000  0  9G17G04G09G10G12G05G25G02G30
 123784050.587 7  96455203.649 6  23555319.719                    23555329.914
 116892651.377 7  91085317.83445  22243917.586                    22243927.172
 127125481.269 6  99058874.90043  24191186.172                    24191199.801
 110183403.901 8  85857326.68546  20967184.055                    20967193.633
 110910121.101 8  86423519.626 7  21105492.242                    21105500.520
 112448455.524 8  87622257.917 7  21398213.586                    21398223.086
 123560601.420 7  96281018.024 7  23512792.641                    23512804.965
 108589250.968 8  84615141.24746  20663825.523                    20663832.383
 122708159.212 7  95616804.41044  23350587.539                    23350597.723
 11  8 23  0 26 30.0000000  0  9G17G04G09G10G12G05G25G02G30
 123841969.863 7  96500335.498 6  23566341.477                    23566351.859
 116972965.317 7  91147900.09745  22259200.867                    22259210.973
 127206996.407 6  99122393.00343  24206696.852                    24206711.625
 110206768.306 8  85875532.71546  20971629.813                    20971639.414
 110865909.168 8  86389068.782 7  21097078.672                    21097087.203
 112371553.112 8  87562334.015 7  21383579.508                    21383589.469
 123468607.307 7  96209334.333 7  23495286.383                    23495299.359
 108598635.367 8  84622453.75846  20665611.547                    20665618.039
 122617596.446 7  95546236.05144  23333353.398                    23333364.469
 11  8 23  0 27  0.0000000  0  9G17G04G09G10G12G05G25G02G30
 123900063.668 7  96545603.334 6  23577396.766                    23577407.371
 117053347.918 7  91210535.85745  22274497.516                    22274507.551
 127288559.883 5  99185948.78743  24222218.445                    24222233.633
 110230751.431 8  85894220.88446  20976193.641                    20976203.461
 110822198.810 8  86355008.776 7  21088761.008                    21088769.727
 112295054.927 8  87502725.093 7  21369022.086                    21369031.949
 123376878.597 7  96137857.445 7  23477831.117                    23477843.320
 108608264.124 8  84629956.67246  20667444.109                    20667450.641
 122527371.166 7  95475930.68344  23316184.664                    23316195.086
 11  8 23  0 27 30.0000000  0  9G17G04G09G10G12G05G25G02G30
 123958332.123 6  96591007.269 6  23588484.406                    23588495.359
 117133797.212 7  91273223.59545  22289805.883                    22289816.813
 127370168.243 6  99249539.53343  24237747.938                    24237762.922
 110255352.556 8  85913390.62046  20980874.992                    20980884.707
 110778991.557 8  86321340.798 7  21080538.867                    21080547.566
 112218963.237 8  87443432.931 7  21354542.242                    21354552.227
 123285417.746 7  96066589.269 6  23460426.695                    23460438.625
 108618135.222 8  84637648.43546  20669322.055                    20669328.863
 122437485.927 7  95405890.24944  23299080.109                    23299090.199
 11  8 23  0 28  0.0000000  0  9G17G04G09G10G12G05G25G02G30
 124016775.819 6  96636547.766 6  23599606.242                    23599616.875
 117214311.955 7  91335962.33345  22305127.766                    22305138.223
 127451818.342 6  99313162.77943  24253285.984                    24253300.129
 110280570.631 8  85933041.08946  20985673.867                    20985683.906
 110736289.363 8  86288066.375 7  21072412.711                    21072421.414
 112143280.536 8  87384459.454 7  21340140.203                    21340149.934
 123194227.533 7  95995531.991 7  23443073.586                    23443085.719
 108628247.956 8  84645528.49046  20671246.484                    20671253.215
 122347943.648 6  95336117.08444  23282039.609                    23282050.418
 11  8 23  0 28 30.0000000  0  9G17G04G09G10G12G05G25G02G30
 124075395.100 7  96682225.112 6  23610761.086                    23610771.832
 117294890.399 7  91398750.68845  22320461.125                    22320471.520
 127533507.187 6  99376816.27343  24268831.539                    24268845.094
 110306404.533 8  85953171.41746  20990590.094                    20990599.887
 110694093.979 8  86255186.867 7  21064383.422                    21064391.875
 112068009.494 8  87325806.749 7  21325816.492                    21325826.648
 123103310.581 7  95924687.651 7  23425772.539                    23425784.934
 108638601.186 8  84653595.94646  20673216.813                    20673223.617
 122258747.001 7  95266613.25544  23265067.125                    23265077.285
 11  8 23  0 29  0.0000000  0  9G17G04G09G10G12G05G25G02G30
 124134190.497 6  96728039.661 6  23621949.375                    23621960.461
 117375531.057 7  91461587.51645  22335806.523                    22335816.930
 127615231.456 6  99440497.35943  24284383.789                    24284397.477
 110332853.734 8  85973781.20646  20995623.281                    20995633.563
 110652407.775 8  86222704.117 7  21056450.773                    21056459.086
 111993152.870 8  87267476.963 7  21311571.734                    21311582.270
 123012669.766 7  95854058.499 6  23408524.047                    23408536.625
 108649193.774 8  84661849.90546  20675232.344                    20675239.004
 122169898.949 7  95197381.04444  23248159.914                    23248170.160
 11  8 23  0 29 30.0000000  0  9G17G04G09G10G12G05G25G02G30
 124193162.304 6  96773991.638 6  23633170.789                    23633182.613
 117456232.035 7  91524471.32045  22351163.648                    22351174.438
 127696987.828 6  99504203.45543  24299940.836                    24299954.785
 110359916.750 8  85994869.29046  21000773.258                    21000782.723
 110611231.945 8  86190619.058 7  21048615.203                    21048623.285
 111918712.718 8  87209471.701 7  21297406.344                    21297416.102
 122922307.471 7  95783646.365 6  23391328.648                    23391341.188
 108660024.095 8  84670289.12246  20677293.477                    20677300.293
 122081402.073 7  95128422.46644  23231319.523                    23231330.109
 11  8 23  0 30  0.0000000  0  9G17G04G09G10G12G05G25G02G30
 124252311.520 6  96820081.857 7  23644427.063                    23644438.918
 117536992.062 7  91587401.14045  22366531.859                    22366541.656
 127778773.565 6  99567932.46144  24315504.305                    24315517.961
 110387593.398 8  86016435.53846  21006039.734                    21006049.121
 110570568.612 8  86158933.348 7  21040877.141                    21040885.723
 111844692.005 8  87151793.279 7  21283320.680                    21283330.695
 122832226.817 7  95713453.699 6  23374186.859                    23374199.473
 108671091.562 8  84678913.12046  20679399.375                    20679405.777
 121993259.519 7  95059739.99944  23214546.523                    23214556.676
 11  8 23  0 30 30.0000000  0  9G17G04G09G10G12G05G25G02G30
 124311638.384 7  96866310.520 6  23655716.320                    23655728.098
 117617810.173 7  91650376.22845  22381910.680                    22381921.129
 127860585.640 6  99631681.93744  24331073.023                    24331087.730
 110415882.675 8  86038479.16646  21011422.992                    21011432.664
 110530419.801 8  86127648.571 7  21033237.109                    21033245.695
 111771093.526 8  87094443.849 7  21269315.266                    21269325.586
 122742430.910 7  95643482.908 6  23357099.305                    23357112.070
 108682395.399 8  84687721.31346  20681550.344                    20681557.438
 121905474.446 7  94991336.08444  23197841.273                    23197851.859
 11  8 23  0 31  0.0000000  0  9G17G04G09G10G12G05G25G02G30
 124371142.772 6  96912677.515 6  23667039.391                    23667050.836
 117698683.752 7  91713394.56544  22397300.578                    22397311.465
 127942420.074 6  99695448.86743  24346646.570                    24346660.660
 110444782.555 8  86060998.56946  21016922.516                    21016931.582
 110490786.411 8  86096765.412 7  21025695.031                    21025703.488
 111697918.930 8  87037424.727 7  21255390.953                    21255400.445
 122652921.415 7  95573735.298 6  23340065.953                    23340078.711
 108693933.121 8  84696711.75746  20683746.172                    20683752.828
 121818048.615 7  94923212.10744  23181203.906                    23181214.934
 11  8 23  0 31 30.0000000  0  9G17G04G09G10G12G05G25G02G30
 124430825.096 6  96959183.151 6  23678397.266                    23678408.457
 117779611.518 7  91776455.10345  22412700.828                    22412711.617
 128024274.000 6  99759231.01343  24362222.508                    24362236.594
 110474292.265 8  86083993.16646  21022537.758                    21022547.332
 110451670.912 8  86066285.802 7  21018252.133                    21018260.508
 111625170.688 8  86980737.837 7  21241547.266                    21241556.672
 122563701.196 7  95504213.099 6  23323088.227                    23323100.316
 108705704.001 8  84705883.87846  20685985.891                    20685992.777
 121730985.075 6  94855370.43944  23164637.031                    23164647.020
 11  8 23  0 32  0.0000000  0  9G17G04G09G10G12G05G25G02G30
 124490685.753 6  97005827.753 6  23689788.148                    23689799.898
 117860591.733 7  91839556.53545  22428110.836                    22428121.609
 128106143.903 7  99823025.65543  24377801.875                    24377815.711
 110504410.757 7  86107462.12046  21028269.602                    21028278.402
 110413074.169 8  86036210.421 7  21010907.039                    21010915.848
 111552851.222 8  86924385.043 7  21227784.922                    21227794.676
 122474772.966 7  95434918.425 6  23306165.508                    23306177.551
 108717706.591 8  84715236.55346  20688269.961                    20688276.477
 121644286.476 7  94787813.12644  23148138.469                    23148149.508
 11  8 23  0 32 30.0000000  0  9G17G04G09G10G12G05G25G02G30
 124550725.242 6  97052611.684 6  23701213.164                    23701224.668
 117941622.852 7  91902697.63745  22443530.930                    22443541.602
 128188026.464 6  99886830.12643  24393383.336                    24393397.023
 110535136.905 8  86131404.57146  21034116.422                    21034125.418
 110374998.062 8  86006540.727 7  21003661.453                    21003670.082
 111480962.945 8  86868368.252 7  21214104.953                    21214114.727
 122386139.145 7  95365853.160 7  23289299.109                    23289311.070
 108729939.569 8  84724768.74746  20690597.719                    20690604.496
 121557955.374 6  94720542.19044  23131710.883                    23131720.797
 11  8 23  0 33  0.0000000  0  9G17G04G09G10G12G05G25G02G30
 124610943.967 6  97099535.300 6  23712672.430                    23712683.789
 118022703.562 7  91965877.36445  22458959.891                    22458970.563
 128269919.188 6  99950642.52343  24408967.313                    24408980.875
 110566469.777 8  86155819.79746  21040078.445                    21040088.152
 110337444.496 8  85977278.207 7  20996514.891                    20996523.797
 111409508.533 8  86812689.530 7  21200507.570                    21200517.781
 122297802.768 7  95297019.660 7  23272489.430                    23272501.250
 108742402.238 8  84734479.92446  20692969.438                    20692976.316
 121471994.886 6  94653560.03544  23115353.086                    23115362.535
 11  8 23  0 33 30.0000000  0  9G17G04G09G10G12G05G25G02G30
 124671341.928 6  97146598.576 6  23724166.875                    23724177.512
 118103832.153 7  92029094.40544  22474398.453                    22474408.336
 128351818.386 6 100014459.99343  24424552.078                    24424565.852
 110598407.864 8  86180706.62346  21046156.156                    21046165.613
 110300415.089 8  85948424.113 7  20989468.391                    20989476.840
 111338489.851 8  86757350.346 7  21186993.258                    21187002.996
 122209766.238 7  95228419.805 7  23255736.328                    23255748.371
 108755092.873 8  84744368.74646  20695384.633                    20695391.207
 121386407.440 6  94586868.57044  23099065.945                    23099075.859
 11  8 23  0 34  0.0000000  0  9G17G04G09G10G12G05G25G02G30
 124731919.708 6  97193802.004 6  23735694.227                    23735705.145
 118185007.433 7  92092347.83744  22489845.094                    22489855.738
 128433721.400 6 100078280.39543  24440136.305                    24440151.605
 110630950.242 7  86206064.33445  21052348.773                    21052358.133
 110263911.670 8  85919979.893 7  20982522.422                    20982530.750
 111267909.887 8  86702353.014 7  21173562.438                    21173572.125
 122122032.623 7  95160055.998 7  23239041.164                    23239053.332
 108768010.660 8  84754434.58146  20697842.422                    20697849.453
 121301196.189 7  94520470.22144  23082850.797                    23082860.438
 11  8 23  0 34 30.0000000  0  9G17G04G09G10G12G05G25G02G30
 124792677.636 6  97241145.803 6  23747256.055                    23747266.895
 118266227.649 7  92155636.28444  22505300.828                    22505311.242
 128515624.937 5 100142101.21743  24455722.172                    24455738.035
 110664095.508 7  86231891.81746  21058656.219                    21058665.852
 110227935.612 8  85891946.594 7  20975676.297                    20975684.910
 111197770.924 8  86647699.323 7  21160215.273                    21160225.043
 122034604.277 7  95091930.047 7  23222404.102                    23222416.648
 108781154.344 8  84764676.42746  20700343.414                    20700350.574
 121216363.541 7  94454366.88844  23066707.734                    23066717.273
 11  8 23  0 35  0.0000000  0  9G17G04G09G10G12G05G25G02G30
 124853616.302 6  97288630.404 6  23758851.859                    23758863.156
 118347491.617 7  92218958.86044  22520764.461                    22520774.492
 128597525.909 5 100205920.03443  24471308.586                    24471323.301
 110697842.747 8  86258188.37546  21065078.406                    21065087.863
 110192488.894 8  85864325.775 7  20968931.063                    20968939.910
 111128075.091 8  86593390.923 7  21146952.617                    21146962.379
 121947484.110 7  95024044.247 7  23205826.055                    23205838.016
 108794522.876 8  84775093.49046  20702887.422                    20702894.738
 121131912.477 7  94388560.93443  23050636.789                    23050647.141
 11  8 23  0 35 30.0000000  0  9G17G04G09G10G12G05G25G02G30
 124914735.385 6  97336255.611 6  23770482.594                    23770493.266
 118428797.522 7  92282314.08945  22536237.070                    22536247.984
 128679421.130 6 100269734.40243  24486892.789                    24486907.137
 110732190.084 8  86284952.52146  21071614.672                    21071624.016
 110157572.579 8  85837118.260 7  20962286.867                    20962295.387
 111058824.443 8  86539429.421 7  21133774.805                    21133784.289
 121860674.416 7  94956400.353 7  23189306.438                    23189318.535
 108808114.386 8  84785684.29946  20705474.047                    20705480.859
 121047845.295 7  94323054.08444  23034639.898                    23034649.633
 11  8 23  0 36  0.0000000  0  9G17G04G09G10G12G05G25G02G30
 124976035.954 6  97384022.231 6  23782148.070                    23782158.406
 118510143.962 7  92345700.89745  22551717.055                    22551727.426
 128761307.503 6 100333541.83443  24502475.867                    24502489.938
 110767136.486 8  86312183.48746  21078264.250                    21078273.652
 110123188.186 8  85810325.225 7  20955743.469                    20955751.816
 110990021.578 8  86485816.847 7  21120681.742                    21120691.930
 121774177.978 7  94889000.567 7  23172846.484                    23172859.020
 108821928.105 8  84796448.23846  20708102.633                    20708109.035
 120964164.784 7  94257848.51544  23018715.125                    23018725.598
 11  8 23  0 36 30.0000000  0  9G17G04G09G10G12G05G25G02G30
 125037518.156 6  97431930.412 6  23793847.086                    23793858.320
 118591529.494 7  92409118.16145  22567203.875                    22567214.801
 128843181.509 7 100397339.69243  24518056.539                    24518070.266
 110802680.421 8  86339880.06346  21085027.969                    21085037.145
 110089337.193 8  85783947.822 7  20949301.938                    20949310.516
 110921668.956 8  86432555.117 7  21107674.734                    21107684.508
 121687997.457 7  94821846.946 7  23156447.281                    23156458.980
 108835962.715 8  84807384.31846  20710773.188                    20710780.223
 120880873.660 7  94192946.39344  23002866.070                    23002876.039
 11  8 23  0 37  0.0000000  0  9G17G04G09G10G12G05G25G02G30
 125099182.038 6  97479980.175 6  23805581.844                    23805592.180
 118672952.933 7  92472564.94945  22582698.617                    22582709.223
 128925040.441 6 100461125.69643  24533633.133                    24533646.859
 110838820.818 8  86368041.40146  21091905.164                    21091914.574
 110056021.501 8  85757987.543 7  20942962.414                    20942970.676
 110853768.762 8  86379645.914 7  21094753.727                    21094763.211
 121602135.560 7  94754941.610 7  23140107.922                    23140120.480
 108850217.192 8  84818491.71346  20713485.500                    20713492.863
 120797974.656 7  94128349.80744  22987090.758                    22987101.027
 11  8 23  0 37 30.0000000  0  9G17G04G09G10G12G05G25G02G30
 125161028.202 6  97528171.991 6  23817350.336                    23817361.262
 118754412.585 7  92536039.98745  22598200.008                    22598210.766
 129006881.200 6 100524897.57643  24549207.234                    24549221.199
 110875556.354 8  86396666.48345  21098896.102                    21098905.363
 110023242.484 8  85732445.448 7  20936724.500                    20936733.094
 110786323.273 8  86327091.035 7  21081919.094                    21081928.848
 121516595.046 7  94688286.702 7  23123830.219                    23123842.465
 108864690.492 8  84829769.62046  20716239.648                    20716246.691
 120715470.670 7  94064061.01244  22971391.008                    22971401.000
 11  8 23  0 38  0.0000000  0  9G17G04G09G10G12G05G25G02G30
 125223056.734 6  97576505.884 6  23829154.523                    23829165.781
 118835907.049 7  92599542.15944  22613707.375                    22613718.516
 129088700.768 6 100588652.94243  24564776.859                    24564790.789
 110912885.442 8  86425754.08745  21105999.086                    21106009.109
 109991001.549 8  85707322.655 7  20930589.555                    20930598.188
 110719334.648 8  86274892.151 7  21069171.906                    21069181.734
 121431378.314 7  94621884.095 7  23107613.539                    23107626.047
 108879380.861 8  84841216.67446  20719035.328                    20719042.086
 120633364.057 7  94000081.86544  22955766.195                    22955777.141
 11  8 23  0 38 30.0000000  0  9G17G04G09G10G12G05G25G02G30
 125285268.282 6  97624982.360 6  23840992.633                    23841004.047
 118917434.868 7  92663070.30944  22629221.617                    22629232.883
 129170496.031 6 100652389.34043  24580342.234                    24580357.305
 110950806.783 8  86455303.18145  21113215.203                    21113225.020
 109959300.594 8  85682620.619 7  20924556.500                    20924565.707
 110652805.379 8  86223051.203 7  21056511.469                    21056521.117
 121346488.122 7  94555735.949 7  23091459.891                    23091471.645
 108894287.420 8  84852832.18046  20721871.875                    20721878.984
 120551657.563 7  93936414.51744  22940218.070                    22940228.352
 11  8 23  0 39  0.0000000  0  9G17G04G09G10G12G05G25G02G30
 125347662.726 6  97673601.366 6  23852865.836                    23852877.527
 118998995.019 7  92726623.65044  22644741.789                    22644752.680
 129252263.867 6 100716104.38743  24595903.352                    24595917.383
 110989319.061 8  86485312.74045  21120544.039                    21120553.641
 109928140.587 8  85658340.106 7  20918627.156                    20918636.102
 110586737.285 8  86171569.616 7  21043939.180                    21043948.852
 121261927.198 7  94489844.373 7  23075368.398                    23075379.938
 108909409.292 8  84864615.46946  20724749.703                    20724756.961
 120470353.941 7  93873061.09444  22924746.773                    22924755.895
 11  8 23  0 39 30.0000000  0  9G17G04G09G10G12G05G25G02G30
 125410240.297 6  97722363.087 6  23864774.266                    23864785.363
 119080585.588 7  92790200.69344  22660267.789                    22660278.227
 129334001.248 6 100779795.68743  24611456.508                    24611471.641
 111028420.521 8  86515781.41345  21127984.883                    21127994.258
 109897522.694 8  85634482.027 7  20912800.930                    20912809.254
 110521132.367 8  86120448.945 7  21031455.102                    21031464.504
 121177698.022 7  94424211.285 7  23059340.141                    23059352.145
 108924744.753 8  84876565.17746  20727667.828                    20727674.488
 120389455.666 7  93810023.53044  22909351.906                    22909361.523
 11  8 23  0 40  0.0000000  0  9G17G04G09G10G12G05G25G02G30
 125473001.494 6  97771267.885 6  23876717.203                    23876728.609
 119162205.482 7  92853800.59344  22675799.859                    22675810.176
 129415705.082 6 100843460.84243  24627004.852                    24627019.402
 111068109.730 8  86546708.05846  21135537.750                    21135546.949
 109867448.624 8  85611047.695 7  20907077.781                    20907086.316
 110455993.397 8  86069691.350 7  21019059.609                    21019069.117
 121093803.257 7  94358838.783 7  23043375.813                    23043387.672
 108940292.694 8  84888680.44646  20730626.586                    20730633.543
 120308965.461 7  93747303.92544  22894034.961                    22894045.324
 11  8 23  0 40 30.0000000  0  9G17G04G09G10G12G05G25G02G30
 125535946.675 6  97820316.033 6  23888695.609                    23888706.938
 119243853.392 7  92917422.31144  22691337.289                    22691347.352
 129497372.220 6 100907097.43743  24642544.617                    24642558.895
 111108385.180 8  86578091.51046  21143202.125                    21143211.414
 109837919.935 8  85588038.332 7  20901458.711                    20901467.410
 110391322.407 8  86019298.420 7  21006752.852                    21006762.559
 121010245.489 7  94293728.874 7  23027474.633                    23027486.879
 108956051.820 8  84900960.28646  20733625.391                    20733632.164
 120228885.809 7  93684904.25344  22878796.078                    22878806.883
 11  8 23  0 41  0.0000000  0  9G17G04G09G10G12G05G25G02G30
 125599075.949 6  97869507.646 6  23900709.563                    23900719.965
 119325527.634 7  92981064.52944  22706879.320                    22706889.758
 129579000.037 6 100970703.34543  24658077.828                    24658092.531
 111149245.433 8  86609930.65146  21150977.188                    21150986.727
 109808937.561 8  85565454.678 7  20895943.617                    20895952.379
 110327121.416 8  85969271.714 7  20994536.016                    20994545.477
 120927027.345 7  94228883.618 7  23011638.898                    23011651.254
 108972021.195 8  84913403.95546  20736664.133                    20736671.023
 120149219.461 7  93622826.61044  22863636.617                    22863647.301
 11  8 23  0 41 30.0000000  0  9G17G04G09G10G12G05G25G02G30
 125662389.625 6  97918842.954 6  23912757.047                    23912767.801
 119407227.211 7  93044726.50145  22722426.539                    22722437.289
 129660585.314 6 101034276.09243  24673603.633                    24673617.840
 111190688.749 7  86642224.13345  21158863.773                    21158873.016
 109780502.980 8  85543297.872 7  20890532.617                    20890541.566
 110263392.787 8  85919613.085 7  20982408.734                    20982418.238
 120844151.561 7  94164305.134 7  22995868.281                    22995880.109
 108988199.793 8  84926010.65446  20739742.664                    20739749.289
 120069969.100 7  93561073.11644  22848555.234                    22848565.727
 11  8 23  0 42  0.0000000  0  9G17G04G09G10G12G05G25G02G30
 125725888.040 6  97968322.247 6  23924840.445                    23924851.273
 119488950.688 7  93108407.09244  22737978.141                    22737988.625
 129742124.768 6 101097813.14144  24689120.367                    24689134.766
 111232713.514 8  86674970.69045  21166860.570                    21166870.531
 109752617.722 8  85521569.103 7  20885225.930                    20885234.609
 110200138.342 8  85870323.955 7  20970371.773                    20970381.117
 120761620.721 7  94099995.426 7  22980163.328                    22980175.199
 109004586.209 8  84938779.28546  20742860.938                    20742867.766
 119991137.299 7  93499645.78344  22833554.031                    22833564.816
 11  8 23  0 42 30.0000000  0  9G17G04G09G10G12G05G25G02G30
 125789571.255 6  98017945.515 6  23936958.516                    23936969.969
 119570696.718 7  93172105.27644  22753532.984                    22753544.410
 129823615.792 7 101161312.42344  24704628.383                    24704643.457
 111275318.492 7  86708169.36745  21174967.664                    21174977.949
 109725282.926 8  85500269.266 7  20880024.766                    20880033.582
 110137360.369 8  85821406.090 7  20958425.469                    20958434.984
 120679437.388 7  94035956.497 7  22964524.055                    22964536.055
 109021179.273 8  84951708.94046  20746018.391                    20746025.406
 119912726.588 7  93438546.56644  22818633.203                    22818643.598
 11  8 23  0 43  0.0000000  0  9G17G04G09G10G12G05G25G02G30
 125853439.657 6  98067713.099 6  23949111.648                    23949124.199
 119652463.959 7  93235819.95144  22769092.555                    22769104.520
 129905055.367 7 101224771.63843  24720125.633                    24720141.105
 111318501.731 7  86741818.64346  21183185.516                    21183195.250
 109698499.988 8  85479399.458 7  20874928.031                    20874936.871
 110075060.910 8  85772861.100 7  20946570.023                    20946579.523
 120597604.066 7  93972190.295 7  22948951.391                    22948963.684
 109037977.846 8  84964798.73446  20749215.477                    20749222.047
 119834739.510 7  93377777.45944  22803792.430                    22803802.836
 11  8 23  0 43 30.0000000  0  9G17G04G09G10G12G05G25G02G30
 125917493.212 6  98117624.926 6  23961300.797                    23961312.395
 119734250.979 7  93299550.05644  22784657.023                    22784668.148
 129986440.419 7 101288188.34243  24735613.813                    24735628.066
 111362261.185 7  86775916.91145  21191512.805                    21191522.270
 109672269.798 8  85458960.358 7  20869936.664                    20869944.906
 110013242.053 8  85724690.604 7  20934806.359                    20934816.133
 120516123.392 8  93908698.880 7  22933446.359                    22933458.375
 109054980.598 8  84978047.61746  20752451.109                    20752458.059
 119757178.587 7  93317340.39344  22789033.359                    22789043.258
 11  8 23  0 44  0.0000000  0  9G17G04G09G10G12G05G25G02G30
 125981732.322 6  98167681.358 6  23973525.453                    23973537.172
 119816056.739 7  93363294.73444  22800224.328                    22800234.676
 130067767.846 7 101351560.16443  24751088.648                    24751103.594
 111406595.396 7  86810463.04345  21199949.414                    21199958.598
 109646593.606 8  85438952.935 7  20865050.422                    20865059.277
 109951905.733 8  85676896.106 7  20923134.250                    20923144.055
 120434997.896 8  93845484.224 7  22918008.750                    22918020.672
 109072186.324 8  84991454.68046  20755725.133                    20755732.063
 119680046.328 7  93257237.35944  22774355.531                    22774365.711
 11  8 23  0 44 30.0000000  0  9G17G04G09G10G12G05G25G02G30
 126046157.173 6  98217882.513 6  23985785.844                    23985796.766
 119897879.941 7  93427053.01144  22815794.594                    22815805.281
 130149034.759 6 101414884.81643  24766553.953                    24766568.855
 111451502.691 7  86845455.72745  21208495.008                    21208504.516
 109621473.207 8  85419378.599 7  20860270.148                    20860278.906
 109891053.901 8  85629479.129 8  20911554.633                    20911564.262
 120354230.320 7  93782548.453 7  22902639.023                    22902651.316
 109089594.131 8  85005019.20446  20759037.531                    20759044.836
 119603345.567 7  93197470.55544  22759759.750                    22759769.832
 11  8 23  0 45  0.0000000  0  9G17G04G09G10G12G05G25G02G30
 126110768.190 6  98268228.743 6  23998080.305                    23998091.953
 119979719.170 7  93490823.75744  22831368.461                    22831378.926
 130230238.177 6 101478159.98743  24782006.453                    24782020.551
 111496981.656 7  86880893.86245  21217149.313                    21217158.703
 109596908.966 8  85400237.638 7  20855595.703                    20855604.203
 109830688.856 8  85582441.475 7  20900067.688                    20900077.105
 120273823.210 7  93719893.585 7  22887338.266                    22887350.371
 109107202.682 8  85018740.15146  20762387.773                    20762395.273
 119527078.610 7  93138041.77344  22745247.172                    22745256.641
 11  8 23  0 45 30.0000000  0  9G17G04G09G10G12G05G25G02G30
 126175565.373 6  98318720.018 6  24010410.992                    24010422.273
 120061573.248 7  93554606.09844  22846945.039                    22846954.629
 130311375.014 6 101541383.25143  24797445.656                    24797460.867
 111543030.290 8  86916775.89645  21225912.320                    21225921.145
 109572902.266 8  85381531.122 7  20851027.688                    20851035.914
 109770812.375 8  85535784.516 7  20888673.523                    20888682.879
 120193778.954 7  93657521.445 7  22872105.914                    22872118.387
 109125010.618 8  85032616.47246  20765776.578                    20765783.852
 119451247.892 7  93078952.90844  22730816.344                    22730826.258
 11  8 23  0 46  0.0000000  0  9G17G04G09G10G12G05G25G02G30
 126240549.167 6  98369356.695 6  24022777.547                    24022788.113
 120143440.801 7  93618398.93444  22862523.305                    22862533.246
 130392442.619 6 101604552.62143  24812873.023                    24812888.453
 111589646.777 8  86953100.43445  21234782.914                    21234792.242
 109549454.427 8  85363260.085 7  20846565.641                    20846574.109
 109711426.694 8  85489509.997 7  20877372.852                    20877382.246
 120114100.258 7  93595434.153 7  22856943.906                    22856955.848
 109143017.245 8  85046647.61746  20769203.711                    20769210.598
 119375856.041 7  93020206.01844  22716470.250                    22716479.809
 11  8 23  0 46 30.0000000  0  9G17G04G09G10G12G05G25G02G30
 126305719.126 6  98420138.462 6  24035177.852                    24035189.543
 120225320.656 7  93682201.35144  22878104.734                    22878115.746
 130473438.023 6 101667665.70843  24828285.883                    24828301.863
 111636829.483 7  86989866.17845  21243761.305                    21243771.090
 109526566.823 8  85345425.590 7  20842210.109                    20842218.496
 109652533.411 8  85443619.157 7  20866165.703                    20866175.348
 120034789.693 7  93533633.715 7  22841851.469                    22841863.770
 109161220.825 8  85060832.22646  20772667.758                    20772674.281
 119300905.609 7  92961803.09244  22702207.320                    22702216.930
 11  8 23  0 47  0.0000000  0  9G17G04G09G10G12G05G25G02G30
 126371075.827 6  98471065.758 6  24047616.211                    24047625.715
 120307211.679 7  93746012.46444  22893688.258                    22893698.973
 130554358.311 5 101730720.19442  24843685.672                    24843700.102
 111684576.346 7  87027071.51145  21252847.234                    21252857.027
 109504240.458 8  85328028.419 7  20837961.813                    20837969.996
 109594134.654 8  85398113.682 7  20855053.039                    20855062.398
 119955849.755 7  93472122.078 7  22826829.688                    22826841.625
 109179620.593 8  85075169.69646  20776168.883                    20776175.945
 119226399.088 7  92903746.04644  22688029.563                    22688038.609
 11  8 23  0 47 30.0000000  0  9G17G04G09G10G12G05G25G02G30
 126436619.413 6  98522138.679 6  24060088.172                    24060098.785
 120389112.642 7  93809831.35144  22909273.117                    22909284.441
 130635200.282 5 101793713.70742  24859069.164                    24859083.941
 111732885.565 8  87064715.07145  21262040.195                    21262050.086
 109482475.629 8  85311068.820 7  20833819.852                    20833828.789
 109536232.266 8  85352994.973 8  20844034.117                    20844043.621
 119877282.962 7  93410901.187 7  22811879.047                    22811890.996
 109198215.189 8  85089658.99446  20779707.344                    20779713.965
 119152338.778 7  92846036.72544  22673936.086                    22673946.070
 11  8 23  0 48  0.0000000  0  8G17G04G10G12G05G25G02G30
 126502351.405 6  98573358.427 5  24072596.742                    24072606.148
 120471023.494 7  93873657.93444  22924860.930                    22924871.418
 111781756.964 8  87102796.68945  21271339.688                    21271349.813
 109461275.253 8  85294549.054 7  20829785.719                    20829794.301
 109478829.679 8  85308265.724 7  20833110.922                    20833120.367
 119799093.304 7  93349974.171 7  22796999.852                    22797011.613
 109217004.956 8  85104300.36646  20783282.922                    20783289.391
 119078728.691 7  92788678.22145  22659928.531                    22659938.672
 11  8 23  0 48 30.0000000  0  8G17G04G10G12G05G25G02G30
 126568270.975 6  98624724.331 6  24085139.938                    24085150.695
 120552941.870 7  93937490.40944  22940449.133                    22940459.730
 111831187.246 7  87141313.80745  21280746.195                    21280756.395
 109440639.163 8  85278468.990 7  20825858.805                    20825867.223
 109421927.439 8  85263926.341 7  20822282.844                    20822291.938
 119721282.093 7  93289342.077 7  22782192.836                    22782204.395
 109235987.538 8  85119091.98646  20786895.523                    20786902.645
 119005570.115 7  92731671.55645  22646007.000                    22646017.113
 11  8 23  0 49  0.0000000  0  8G17G04G10G12G05G25G02G30
 126634377.587 6  98676235.947 6  24097720.109                    24097730.590
 120634866.461 6  94001327.70344  22956039.070                    22956049.457
 111881173.769 8  87180264.35345  21290258.781                    21290268.590
 109420567.950 8  85262829.088 7  20822039.359                    20822048.195
 109365526.807 8  85219977.827 8  20811549.836                    20811559.355
 119643851.386 7  93229006.454 7  22767458.711                    22767470.375
 109255161.499 8  85134032.73446  20790543.797                    20790550.656
 118932864.987 7  92675018.21545  22632172.125                    22632181.586
 11  8 23  0 49 30.0000000  0  8G17G04G10G12G05G25G02G30
 126700671.328 6  98727893.405 6  24110335.547                    24110346.441
 120716795.831 7  94065168.72744  22971629.297                    22971639.680
 111931714.727 8  87219646.90545  21299876.234                    21299885.426
 109401062.290 8  85247629.875 7  20818327.656                    20818336.055
 109309629.745 8  85176421.715 7  20800913.438                    20800922.445
 119566803.620 7  93168969.246 7  22752796.539                    22752808.414
 109274525.273 8  85149121.38646  20794228.828                    20794235.992
 118860615.613 7  92618720.01244  22618422.836                    22618433.078
 11  8 23  0 50  0.0000000  0  8G17G04G10G12G05G25G02G30
 126767152.426 6  98779696.870 6  24122986.531                    24122997.469
 120798728.792 7  94129012.56444  22987220.680                    22987231.617
 111982808.115 7  87259459.93945  21309598.852                    21309607.852
 109382123.297 8  85232872.230 7  20814723.523                    20814731.824
 109254238.056 8  85133259.398 7  20790372.133                    20790381.535
 119490141.271 7  93109232.364 7  22738208.422                    22738220.445
 109294077.694 8  85164357.03946  20797949.523                    20797956.430
 118788824.321 7  92562778.76745  22604761.469                    22604771.934
 11  8 23  0 50 30.0000000  0  8G17G04G10G12G05G25G02G30
 126833821.255 6  98831646.604 6  24135673.508                    24135684.383
 120880664.261 7  94192858.36544  23002812.805                    23002822.918
 112034452.409 7  87299702.23845  21319426.539                    21319435.488
 109363751.872 8  85218556.839 7  20811227.641                    20811235.688
 109199353.667 8  85090492.381 8  20779928.195                    20779937.266
 119413867.026 7  93049797.895 7  22723693.797                    22723705.730
 109313818.037 8  85179739.13446  20801705.492                    20801712.762
 118717493.856 7  92507196.59745  22591187.750                    22591198.012
 11  8 23  0 51  0.0000000  0  8G17G04G10G12G05G25G02G30
 126900677.812 6  98883742.629 6  24148395.281                    24148406.438
 120962601.516 7  94256705.59444  23018404.852                    23018414.957
 112086645.810 7  87340372.42045  21329358.656                    21329368.254
 109345949.616 8  85204684.951 7  20807839.922                    20807848.516
 109144978.701 8  85048122.310 7  20769580.945                    20769590.461
 119337983.683 7  92990668.039 7  22709253.664                    22709265.844
 109333745.403 8  85195266.95746  20805497.891                    20805504.941
 118646626.823 7  92451975.52644  22577702.133                    22577712.980
 11  8 23  0 51 30.0000000  0  8G17G04G10G12G05G25G02G30
 126967722.091 7  98935984.963 6  24161154.266                    24161164.957
 121044538.881 7  94320552.88744  23033997.188                    23034006.988
 112139385.681 7  87381468.45645  21339394.305                    21339404.414
 109328716.424 8  85191256.496 7  20804560.273                    20804569.070
 109091114.454 8  85006150.217 8  20759330.742                    20759339.980
 119262493.250 7  92931844.359 7  22694888.375                    22694900.344
 109353858.164 8  85210939.25046  20809325.523                    20809332.270
 118576225.101 7  92397117.05844  22564305.180                    22564315.270
 11  8 23  0 52  0.0000000  0  8G17G04G10G12G05G25G02G30
 127034954.252 7  98988373.690 6  24173947.172                    24173959.074
 121126475.539 7  94384399.62544  23049589.484                    23049599.535
 112192670.152 7  87422988.85045  21349534.000                    21349544.090
 109312053.783 8  85178272.622 7  20801389.602                    20801398.168
 109037762.845 8  84964577.567 7  20749178.195                    20749187.977
 119187398.351 7  92873328.889 7  22680597.922                    22680610.152
 109374155.246 8  85226755.16446  20813187.789                    20813194.773
 118506291.316 7  92342623.22344  22550997.188                    22551007.137
 11  8 23  0 52 30.0000000  0  8G17G04G10G12G05G25G02G30
 127102374.610 6  99040909.054 6  24186776.648                    24186788.207
 121208410.491 7  94448245.00944  23065180.781                    23065191.352
 112246497.508 7  87464932.25845  21359777.289                    21359787.496
 109295962.613 8  85165734.053 7  20798327.219                    20798336.281
 108984925.830 8  84923405.915 8  20739123.664                    20739133.289
 119112701.816 7  92815123.848 7  22666383.695                    22666395.996
 109394636.293 8  85242714.43446  20817084.930                    20817092.137
 118436828.121 7  92288496.08344  22537778.688                    22537789.199
 11  8 23  0 53  0.0000000  0  8G17G04G10G12G05G25G02G30
 127169983.120 6  99093590.986 6  24199642.445                    24199653.563
 121290342.333 7  94512088.01044  23080771.859                    23080782.820
 112300865.321 8  87507296.78945  21370123.344                    21370133.258
 109280443.185 8  85153640.992 7  20795374.398                    20795382.949
 108932604.774 8  84882636.298 8  20729167.430                    20729177.309
 119038405.676 7  92757230.811 7  22652245.594                    22652257.699
 109415299.247 8  85258815.45246  20821017.172                    20821023.898
 118367837.329 7  92234737.05244  22524650.367                    22524660.297
 11  8 23  0 53 30.0000000  0  8G17G04G10G12G05G25G02G30
 127237779.675 6  99146419.501 6  24212543.703                    24212554.926
 121372270.119 7  94575927.84344  23096362.508                    23096373.773
 112355772.001 8  87550081.21245  21380571.805                    21380581.539
 109265496.669 8  85141994.356 8  20792530.070                    20792538.633
 108880801.514 8  84842270.168 8  20719309.352                    20719318.930
 118964512.531 7  92699651.792 7  22638184.719                    22638196.441
 109436143.197 8  85275057.49646  20824983.711                    20824990.434
 118299321.608 7  92181348.21244  22511612.102                    22511622.242
 11  8 23  0 54  0.0000000  0  8G17G04G10G12G05G25G02G30
 127305764.807 6  99199394.918 6  24225481.133                    24225492.125
 121454192.945 7  94639763.81444  23111951.320                    23111962.773
 112411215.310 8  87593283.79145  21391122.516                    21391131.785
 109251123.514 8  85130794.501 7  20789794.797                    20789803.457
 108829517.737 8  84802308.820 8  20709550.430                    20709560.074
 118891024.967 7  92642388.819 7  22624199.867                    22624211.867
 109457167.445 8  85291440.02646  20828984.000                    20828991.348
 118231283.284 7  92128331.36444  22498664.781                    22498674.605
 11  8 23  0 54 30.0000000  0  8G17G04G10G12G05G25G02G30
 127373938.066 6  99252516.901 6  24238454.430                    24238465.418
 121536109.380 7  94703594.82044  23127539.352                    23127550.461
 112467192.393 7  87636902.30245  21401774.094                    21401783.348
 109237324.372 8  85120041.923 7  20787169.109                    20787177.719
 108778755.157 8  84762753.600 8  20699890.547                    20699900.016
 118817944.980 7  92585443.434 7  22610293.117                    22610305.340
 109478370.243 8  85307961.69346  20833018.906                    20833026.008
 118163724.212 7  92075687.97344  22485809.039                    22485819.012
 11  8 23  0 55  0.0000000  0  8G17G04G10G12G05G25G02G30
 127442299.948 6  99305785.919 6  24251462.734                    24251474.094
 121618018.877 7  94767420.41444  23143125.828                    23143137.383
 112523702.272 7  87680935.95745  21412527.367                    21412536.742
 109224100.690 8  85109737.757 7  20784652.703                    20784661.016
 108728515.341 8  84723605.733 8  20690330.500                    20690339.605
 118745275.671 7  92528818.077 7  22596464.734                    22596476.777
 109499751.371 8  85324622.30646  20837087.734                    20837094.543
 118096647.426 7  92023420.39944  22473044.180                    22473054.363
 11  8 23  0 55 30.0000000  0  8G17G04G10G12G05G25G02G30
 127510850.326 6  99359201.786 6  24264507.953                    24264518.949
 121699919.850 7  94831239.36544  23158711.734                    23158722.547
 112580742.011 7  87725382.50545  21423381.820                    21423390.828
 109211452.475 8  85099882.010 7  20782245.703                    20782254.586
 108678799.580 8  84684866.223 8  20680869.383                    20680879.133
 118673018.929 8  92472514.186 7  22582714.438                    22582726.785
 109521308.971 8  85341420.44546  20841189.930                    20841197.270
 118030054.626 7  91971529.95745  22460372.570                    22460382.234
 11  8 23  0 56  0.0000000  0  8G17G04G10G12G05G25G02G30
 127579589.120 6  99412764.487 6  24277588.445                    24277599.426
 121781811.695 6  94895051.17644  23174294.828                    23174306.117
 112638309.782 7  87770240.50145  21434336.492                    21434346.180
 109199380.764 8  85090475.477 7  20779948.523                    20779957.461
 108629609.975 8  84646536.700 8  20671508.930                    20671518.520
 118601177.343 7  92416533.783 7  22569043.328                    22569055.156
 109543042.302 8  85358355.51646  20845325.773                    20845332.824
 117963948.261 7  91920018.56545  22447792.531                    22447802.512
 11  8 23  0 56 30.0000000  0  8G17G04G10G12G05G25G02G30
 127648516.568 6  99466474.178 6  24290704.602                    24290715.945
 121863693.132 7  94958854.87344  23189877.008                    23189887.613
 112696403.492 7  87815508.31245  21445392.164                    21445401.430
 109187886.103 8  85081518.591 7  20777761.328                    20777770.020
 108580947.867 8  84608618.207 8  20662249.102                    20662258.629
 118529753.356 7  92360878.785 7  22555452.000                    22555463.727
 109564950.159 8  85375426.57046  20849495.227                    20849502.027
 117898330.589 7  91868887.97344  22435305.680                    22435315.930
 11  8 23  0 57  0.0000000  0  8G17G04G10G12G05G25G02G30
 127717632.614 6  99520330.818 6  24303856.594                    24303868.215
 121945563.235 6  95022649.75144  23205456.914                    23205466.613
 112755020.646 7  87861184.01545  21456546.258                    21456555.430
 109176968.764 8  85073011.573 7  20775683.836                    20775692.250
 108532814.531 8  84571111.749 8  20653089.695                    20653099.098
 118458749.147 7  92305550.886 7  22541940.133                    22541952.699
 109587031.477 8  85392632.78946  20853696.492                    20853703.633
 117833203.691 7  91818139.78944  22422913.039                    22422922.254
 11  8 23  0 57 30.0000000  0  8G17G04G10G12G05G25G02G30
 127786937.324 6  99574334.476 6  24317044.828                    24317056.000
 122027421.092 7  95086435.10444  23221033.695                    23221044.523
 112814159.179 7  87907265.99645  21467799.875                    21467809.441
 109166629.897 8  85064955.314 7  20773716.188                    20773725.230
 108485211.898 8  84534018.820 8  20644031.398                    20644040.156
 118388167.434 7  92250552.207 7  22528508.945                    22528521.301
 109609285.517 8  85409973.60146  20857931.586                    20857937.988
 117768570.074 7  91767775.98244  22410612.977                    22410622.668
 11  8 23  0 58  0.0000000  0  8G17G04G10G12G05G25G02G30
 127856430.493 6  99628484.995 6  24330269.391                    24330279.855
 122109265.447 7  95150209.95744  23236607.766                    23236618.445
 112873816.483 8  87953752.19245  21479152.508                    21479162.063
 109156869.385 8  85057349.711 7  20771858.766                    20771868.004
 108438141.126 8  84497340.330 8  20635073.633                    20635082.875
 118318010.122 7  92195884.211 7  22515158.859                    22515170.973
 109631710.498 8  85427447.60746  20862198.828                    20862205.816
 117704431.438 7  91717797.87444  22398408.141                    22398417.617
 11  8 23  0 58 30.0000000  0  9G17G04G29G10G12G05G25G02G30
 127926112.339 6  99682782.560 6  24343529.227                    24343540.008
 122191095.307 7  95213973.51144  23252179.766                    23252190.090
 129590624.53516 100979772.85116  24660281.305                    24660292.445
 112933990.483 8  88000641.02145  21490602.945                    21490612.344
 109147687.885 8  85050195.288 7  20770111.852                    20770120.449
 108391603.621 8  84461077.363 8  20626217.766                    20626227.117
 118248279.668 7  92141548.839 7  22501889.281                    22501901.441
 109654305.568 8  85445054.16146  20866498.219                    20866505.656
 117640790.128 7  91668207.30545  22386297.414                    22386307.406
 11  8 23  0 59  0.0000000  0  9G17G04G29G10G12G05G25G02G30
 127995983.189 6  99737227.375 6  24356824.516                    24356836.316
 122272910.284 7  95277725.47144  23267747.922                    23267758.453
 129511114.494 6 100917817.097 6  24645151.297                    24645161.801
 112994679.435 7  88047931.10945  21502151.484                    21502160.883
 109139087.020 8  85043493.302 7  20768475.063                    20768483.602
 108345601.437 8  84425231.538 8  20617464.133                    20617473.090
 118178979.074 7  92087548.415 7  22488701.758                    22488713.965
 109677070.535 8  85462793.09646  20870830.531                    20870837.281
 117577648.894 7  91619006.39445  22374281.992                    22374292.402
 11  8 23  0 59 30.0000000  0  9G17G04G29G10G12G05G25G02G30
 128066042.906 6  99791819.373 6  24370157.156                    24370168.445
 122354709.210 7  95341464.91043  23283314.086                    23283325.023
 129431524.956 6 100855799.385 6  24630005.719                    24630016.668
 113055881.078 7  88095620.68945  21513797.852                    21513807.063
 109131066.387 8  85037243.452 7  20766948.852                    20766957.641
 108300135.876 8  84389803.861 8  20608812.281                    20608821.824
 118110110.392 7  92033884.529 7  22475596.313                    22475608.129
 109700003.771 8  85480663.15546  20875194.461                    20875201.152
 117515009.596 7  91570196.60645  22362362.336                    22362372.184
 11  8 23  1  0  0.0000000  0  9G17G04G29G10G12G05G25G02G30
 128136291.009 6  99846558.147 6  24383524.406                    24383536.289
 122436490.928 6  95405190.96643  23298875.969                    23298886.621
 129351855.866 6 100793719.703 6  24614845.203                    24614856.285
 113117592.454 7  88143707.48245  21525540.773                    21525550.367
 109123626.248 8  85031445.933 7  20765533.008                    20765542.043
 108255208.112 8  84354795.249 8  20600262.875                    20600271.668
 118041675.634 7  91980558.761 7  22462573.445                    22462585.617
 109723103.852 8  85498663.20846  20879590.250                    20879597.438
 117452874.022 7  91521779.32745  22350537.953                    22350547.918
 11  8 23  1  0 30.0000000  0  9G17G04G29G10G12G05G25G02G30
 128206727.601 6  99901443.795 6  24396928.531                    24396940.219
 122518254.268 6  95468902.68943  23314435.234                    23314445.703
 129272107.663 6 100731578.329 6  24599668.625                    24599680.668
 113179811.169 7  88192189.58645  21537380.734                    21537390.145
 109116766.963 8  85026101.033 7  20764228.031                    20764236.691
 108210819.051 8  84320206.404 8  20591815.641                    20591824.836
 117973676.748 7  91927572.626 7  22449633.727                    22449645.918
 109746369.781 8  85516792.50346  20884017.906                    20884024.922
 117391244.097 7  91473756.05345  22338809.930                    22338820.172
 11  8 23  1  1  0.0000000  0  9G17G04G29G10G12G05G25G02G30
 128277352.728 6  99956476.353 6  24410368.180                    24410379.238
 122599998.573 6  95532599.55743  23329990.781                    23330000.566
 129192281.353 6 100669376.063 6  24584478.828                    24584490.297
 113242535.254 7  88241065.49145  21549317.211                    21549326.301
 109110489.371 8  85021209.403 7  20763033.102                    20763041.863
 108166970.574 8  84286038.794 8  20583471.555                    20583480.793
 117906116.640 7  91874928.391 7  22436777.758                    22436789.867
 109769800.975 8  85535050.57246  20888476.391                    20888483.465
 117330122.302 7  91426128.71145  22327178.977                    22327188.539
 11  8 23  1  1 30.0000000  0  9G17G04G29G10G12G05G25G02G30
 128348165.915 6 100011655.480 6  24423842.789                    24423854.262
 122681722.264 6  95596280.39543  23345542.438                    23345552.313
 129112376.946 7 100607112.971 6  24569273.547                    24569285.156
 113305761.455 7  88290332.65945  21561348.406                    21561358.086
 109104792.866 8  85016770.567 7  20761949.281                    20761957.805
 108123663.757 8  84252293.252 8  20575230.336                    20575239.797
 117838996.877 7  91822627.296 7  22424004.984                    22424016.863
 109793395.287 8  85553435.75046  20892966.594                    20892973.621
 117269510.128 7  91378898.46645  22315645.156                    22315654.492
 11  8 23  1  2  0.0000000  0  9G17G04G29G10G12G05G25G02G30
 128419167.427 6 100066981.313 6  24437354.555                    24437365.543
 122763424.997 6  95659944.86443  23361089.539                    23361100.703
 129032395.511 7 100544789.855 6  24554053.711                    24554065.199
 113369488.187 8  88339989.84745  21573475.664                    21573485.340
 109099678.713 8  85012785.505 7  20760976.141                    20760984.813
 108080899.997 8  84218970.877 8  20567092.844                    20567102.199
 117772320.284 7  91770671.519 7  22411317.016                    22411328.680
 109817152.633 8  85571947.96946  20897486.992                    20897494.031
 117209410.059 7  91332067.27145  22304208.023                    22304217.988
 11  8 23  1  2 30.0000000  0  9G17G04G29G10G12G05G25G02G30
 128490357.203 6 100122453.862 6  24450900.938                    24450912.426
 122845106.000 6  95723592.41744  23376633.492                    23376644.301
 128952337.660 7 100482407.173 6  24538819.438                    24538830.344
 113433713.232 8  88390035.32045  21585697.133                    21585706.473
 109095147.630 8  85009254.797 7  20760113.750                    20760122.691
 108038680.542 8  84186072.630 8  20559058.844                    20559067.816
 117706089.076 7  91719062.776 7  22398713.633                    22398725.105
 109841072.052 8  85590586.48746  20902038.766                    20902046.438
 117149824.254 7  91285636.78445  22292869.336                    22292879.219
 11  8 23  1  3  0.0000000  0  9G17G04G29G10G12G05G25G02G30
 128561735.228 6 100178073.118 6  24464484.570                    24464495.012
 122926763.973 6  95787221.99844  23392172.711                    23392183.707
 128872203.750 7 100419965.200 6  24523570.422                    24523581.574
 113498433.989 8  88440467.07645  21598013.344                    21598022.496
 109091199.114 8  85006178.025 7  20759362.602                    20759371.074
 107997006.475 8  84153599.366 8  20551128.734                    20551137.520
 117640305.365 7  91667802.721 7  22386195.594                    22386206.926
 109865151.934 8  85609350.04346  20906621.555                    20906628.133
 117090754.476 7  91239608.38845  22281628.906                    22281639.086
 11  8 23  1  3 30.0000000  0  9G17G04G29G10G12G05G25G02G30
 128633301.406 6 100233838.987 6  24478102.375                    24478114.270
 123008398.283 6  95850833.13344  23407706.828                    23407717.934
 128791994.303 7 100357464.371 6  24508306.438                    24508317.891
 113563648.125 8  88491283.28345  21610422.992                    21610432.551
 109087833.711 7  85003555.638 7  20758721.906                    20758730.527
 107955879.171 8  84121552.154 8  20543302.125                    20543311.574
 117574971.379 7  91616893.094 7  22373762.898                    22373774.383
 109889391.469 8  85628237.99846  20911233.875                    20911240.734
 117032202.745 7  91193983.66045  22270486.992                    22270496.785
 11  8 23  1  4  0.0000000  0  9G17G04G29G10G12G05G25G02G30
 128705055.460 6 100289751.217 6  24491756.828                    24491768.355
 123090007.893 6  95914425.02244  23423236.883                    23423247.133
 128711709.802 7 100294905.044 6  24493029.602                    24493040.496
 113629352.736 7  88542481.67645  21622926.016                    21622935.656
 109085050.940 7  85001387.258 7  20758192.273                    20758200.934
 107915299.757 8  84089931.864 8  20535580.219                    20535589.328
 117510089.264 7  91566335.576 7  22361416.484                    22361428.285
 109913789.554 8  85647249.48746  20915876.750                    20915883.289
 116974170.956 7  91148764.06945  22259444.305                    22259453.727
 11  8 23  1  4 30.0000000  0  9G17G04G29G10G12G05G25G02G30
 128776997.563 6 100345809.997 6  24505447.211                    24505458.801
 123171592.228 6  95977997.20044  23438761.664                    23438772.637
 128631351.461 6 100232288.184 6  24477737.391                    24477748.305
 113695545.694 7  88594060.61145  21635522.250                    21635532.129
 109082852.009 8  84999673.815 7  20757773.875                    20757782.578
 107875269.719 8  84058739.661 8  20527962.609                    20527971.793
 117445661.568 7  91516132.155 7  22349155.938                    22349168.203
 109938345.508 8  85666384.00046  20920549.539                    20920556.469
 116916661.439 7  91103951.42845  22248500.234                    22248509.953
 11  8 23  1  5  0.0000000  0  8G04G29G10G12G05G25G02G30
 123253150.615 6  96041549.15143  23454282.094                    23454292.172
 128550919.850 6 100169614.226 6  24462431.977                    24462443.754
 113762225.049 7  88646018.56045  21648210.750                    21648220.723
 109081236.855 8  84998415.255 7  20757466.602                    20757475.203
 107835790.681 8  84027976.809 8  20520449.766                    20520458.934
 117381690.571 7  91466284.613 7  22336983.055                    22336994.801
 109963058.627 8  85685640.97346  20925252.180                    20925259.219
 116859676.217 7  91059547.32745  22237656.180                    22237666.227
 11  8 23  1  5 30.0000000  0  8G04G29G10G12G05G25G02G30
 123334681.859 6  96105079.96644  23469796.938                    23469807.328
 128470415.442 6 100106883.579 6  24447111.523                    24447123.781
 113829387.767 7  88698353.15645  21660991.594                    21661001.719
 109080205.530 8  84997611.628 7  20757270.430                    20757279.121
 107796862.975 8  83997643.565 8  20513042.047                    20513051.594
 117318178.148 7  91416794.410 7  22324897.070                    22324908.777
 109987927.270 8  85705019.13746  20929984.727                    20929991.758
 116803216.925 7  91015553.07445  22226912.078                    22226921.910
 11  8 23  1  6  0.0000000  0  8G04G29G10G12G05G25G02G30
 123416185.020 6  96168588.89144  23485306.195                    23485317.063
 128389838.701 5 100044096.580 6  24431778.492                    24431790.043
 113897031.398 8  88751062.48845  21673863.703                    21673873.418
 109079758.160 8  84997263.041 7  20757184.883                    20757194.039
 107758487.923 8  83967740.966 8  20505739.945                    20505749.137
 117255126.421 8  91367663.186 7  22312898.641                    22312910.176
 110012950.416 8  85724517.69746  20934746.375                    20934753.258
 116747285.320 7  90971970.00045  22216268.750                    22216278.980
 11  8 23  1  6 30.0000000  0  8G04G29G10G12G05G25G02G30
 123497658.934 6  96232075.03644  23500810.094                    23500820.828
 128309190.092 6  99981253.563 6  24416431.477                    24416443.652
 113965153.047 8  88804144.28745  21686826.805                    21686836.336
 109079894.619 8  84997369.372 7  20757210.898                    20757219.387
 107720666.563 8  83938269.812 8  20498542.297                    20498551.375
 117192537.211 8  91318892.374 7  22300988.625                    22300999.777
 110038126.801 8  85744135.65546  20939537.156                    20939544.211
 116691883.163 7  90928799.46545  22205726.078                    22205735.887
 11  8 23  1  7  0.0000000  0  8G04G29G10G12G05G25G02G30
 123579103.281 6  96295538.13244  23516308.297                    23516319.660
 128228470.54615  99918355.25815  24401071.008                    24401082.918
 114033750.833 7  88857597.10045  21699880.398                    21699890.078
 109080615.429 8  84997931.044 7  20757348.727                    20757357.313
 107683399.806 8  83909230.812 8  20491450.852                    20491459.531
 117130413.090 7  91270483.975 7  22289166.336                    22289178.395
 110063455.889 8  85763872.59846  20944357.391                    20944364.070
 116637012.603 7  90886043.17445  22195284.961                    22195294.699
 11  8 23  1  7 30.0000000  0  8G04G29G10G12G05G25G02G30
 123660517.554 6  96358977.78544  23531800.953                    23531811.902
 128147681.234 5  99855402.587 4  24385697.477                    24385709.500
 114102822.444 7  88911419.12345  21713024.516                    21713034.203
 109081921.183 8  84998948.512 7  20757596.664                    20757605.332
 107646689.210 8  83880625.189 8  20484465.148                    20484474.320
 117068756.561 7  91222439.930 7  22277433.445                    22277445.055
 110088937.226 8  85783728.18246  20949206.484                    20949212.992
 116582675.850 7  90843702.83145  22184944.680                    22184954.520
 11  8 23  1  8  0.0000000  0  8G04G29G10G12G05G25G02G30
 123741900.382 6  96422392.94444  23547288.031                    23547298.824
 128066822.889 6  99792396.102 5  24370310.516
 114172364.855 7  88965608.01245  21726258.367                    21726267.273
 109083810.947 8  85000421.052 7  20757956.391                    20757965.375
 107610535.595 8  83852453.576 8  20477585.109                    20477594.441
 117007569.223 7  91174761.506 7  22265789.820                    22265801.637
 110114569.144 8  85803701.10446  20954083.422                    20954091.000
 116528874.251 7  90801779.51345  22174706.961                    22174716.383
 11  8 23  1  8 30.0000000  0  8G04G29G10G12G05G25G02G30
 123823250.782 7  96485782.81444  23562768.648                    23562778.836
 127985895.192 6  99729335.579 5  24354911.430                    24354919.918
 114242375.128 7  89020161.48445  21739580.367                    21739589.898
 109086284.391 8  85002348.407 7  20758427.289                    20758435.941
 107574939.358 8  83824716.289 8  20470811.281                    20470820.500
 116946852.751 8  91127449.998 7  22254236.023                    22254247.352
 110140350.150 8  85823790.19746  20958989.289                    20958996.547
 116475609.221 7  90760274.29445  22164570.813                    22164580.172
 11  8 23  1  9  0.0000000  0  8G04G29G10G12G05G25G02G30
 123904568.326 7  96549147.10744  23578242.773                    23578253.441
 127904899.142 6  99666221.822 5  24339497.648                    24339508.129
 114312851.201 7  89075077.91445  21752991.648                    21753000.820
 109089342.143 8  85004731.060 7  20759009.172                    20759018.008
 107539901.957 8  83797414.445 8  20464143.664                    20464153.063
 116886609.529 8  91080507.265 7  22242771.797                    22242783.840
 110166279.813 8  85843995.12546  20963923.891                    20963930.746
 116422882.955 7  90719188.88745  22154536.930                    22154546.852
 11  8 23  1  9 30.0000000  0  8G04G29G10G12G05G25G02G30
 123985852.342 7  96612485.26544  23593710.563                    23593721.344
 127823835.960 6  99603055.759 6  24324072.195                    24324083.242
 114383790.460 7  89130355.27145  21766490.992                    21766500.359
 109092984.138 8  85007568.967 7  20759702.195                    20759711.336
 107505424.378 8  83770548.834 8  20457583.008                    20457592.457
 116826841.885 8  91033935.103 7  22231398.641                    22231410.688
 110192357.408 8  85864315.33746  20968885.984                    20968893.379
 116370697.208 7  90678524.66745  22144606.766                    22144616.617
 11  8 23  1 10  0.0000000  0  8G04G29G10G12G05G25G02G30
 124067101.897 7  96675796.60144  23609172.883                    23609182.035
 127742705.953 6  99539837.657 6  24308633.070                    24308644.758
 114455190.156 7  89185991.41445  21780077.289                    21780086.758
 109097210.194 8  85010861.986 7  20760506.211                    20760514.680
 107471507.456 8  83744120.103 8  20451128.695                    20451138.035
 116767551.636 8  90987734.940 7  22220115.820                    22220128.137
 110218581.684 8  85884749.83446  20973876.633                    20973883.539
 116319053.652 7  90638282.96145  22134778.789                    22134789.199
 11  8 23  1 10 30.0000000  0  8G04G29G10G12G05G25G02G30
 124148316.689 7  96739080.84143  23624627.250                    23624636.230
 127661510.126 6  99476568.281 6  24293181.852                    24293193.055
 114527048.176 7  89241984.67045  21793751.750                    21793761.258
 109102020.422 8  85014610.200 7  20761421.719                    20761430.234
 107438152.594 8  83718129.336 8  20444781.617                    20444790.766
 116708741.203 8  90941908.675 7  22208925.148                    22208936.816
 110244952.216 8  85905298.29746  20978894.906                    20978902.074
 116267954.436 7  90598465.40545  22125055.039                    22125065.594
 11  8 23  1 11  0.0000000  0  8G04G29G10G12G05G25G02G30
 124229495.547 7  96802337.06543  23640074.695                    23640084.137
 127580249.097 6  99413248.078 6  24277718.773                    24277729.574
 114599361.594 7  89298332.79945  21807512.391                    21807521.836
 109107414.260 8  85018813.176 7  20762447.906                    20762456.965
 107405359.937 8  83692576.648 8  20438541.398                    20438550.605
 116650412.262 8  90896457.598 7  22197825.305                    22197836.703
 110271467.474 8  85925959.52646  20983940.742                    20983947.145
 116217400.916 7  90559073.07245  22115435.328                    22115445.313
 11  8 23  1 11 30.0000000  0  8G04G29G10G12G05G25G02G30
 124310637.440 7  96865564.47743  23655515.281                    23655524.789
 127498923.356 6  99349877.459 6  24262242.945                    24262253.457
 114672127.656 7  89355033.63045  21821359.211                    21821368.813
 109113391.744 8  85023470.938 7  20763585.680                    20763594.324
 107373130.550 8  83667462.869 8  20432408.484                    20432417.168
 116592566.533 7  90851383.050 7  22186817.313                    22186829.074
 110298126.185 8  85946732.53846  20989013.617                    20989020.441
 116167394.471 7  90520107.04245  22105919.648                    22105929.574
 11  8 23  1 12  0.0000000  0  8G04G29G10G12G05G25G02G30
 124391742.079 7  96928762.82343  23670948.297                    23670958.953
 127417533.899 6  99286457.189 6  24246754.484                    24246765.930
 114745343.580 7  89412084.99845  21835291.930                    21835301.727
 109119952.648 8  85028583.314 7  20764834.219                    20764842.703
 107341465.152 7  83642788.566 8  20426382.453                    20426391.609
 116535206.236 8  90806686.772 7  22175902.297                    22175913.953
 110324927.799 8  85967616.91046  20994113.695                    20994120.344
 116117936.956 7  90481568.75445  22096507.648                    22096517.781
 11  8 23  1 12 30.0000000  0  8G04G29G10G12G05G25G02G30
 124472808.993 6  96991931.80643  23686374.352                    23686386.176
 127336081.859 6  99222988.169 6  24231254.938                    24231265.828
 114819007.354 7  89469485.34945  21849309.852                    21849319.277
 109127097.393 8  85034150.630 7  20766193.484                    20766202.371
 107310364.960 8  83618554.681 8  20420463.891                    20420473.395
 116478333.763 8  90762370.606 7  22165079.445                    22165091.332
 110351871.873 8  85988612.29446  20999240.984                    20999247.590
 116069030.474 7  90443459.84045  22087201.227                    22087210.699
 11  8 23  1 13  0.0000000  0  8G04G29G10G12G05G25G02G30
 124553837.162 6  97055070.61843  23701794.281                    23701805.633
 127254567.992 6  99159470.925 6  24215743.898                    24215754.313
 114893115.976 7  89527232.30845  21863411.930                    21863421.629
 109134825.356 8  85040172.406 7  20767664.125                    20767672.926
 107279830.576 8  83594761.690 8  20414653.844                    20414662.992
 116421950.713 8  90718435.813 7  22154350.375                    22154362.000
 110378957.214 8  86009717.76646  21004395.063                    21004402.156
 116020676.307 7  90405781.29845  22077999.836                    22078009.301
 11  8 23  1 13 30.0000000  0  8G04G29G10G12G05G25G02G30
 124634826.388 6  97118179.03243  23717205.719                    23717217.875
 127172992.915 6  99095905.996 6  24200219.906                    24200230.828
 114967666.830 7  89585323.87845  21877598.813                    21877608.359
 109143136.137 8  85046648.319 7  20769245.602                    20769254.371
 107249862.820 8  83571410.222 8  20408951.188                    20408960.043
 116366059.268 8  90674884.091 7  22143713.938                    22143725.750
 110406183.150 8  86030932.78546  21009576.102                    21009582.863
 115972876.348 7  90368534.61645  22068903.828                    22068913.125
 11  8 23  1 14  0.0000000  0  8G04G29G10G12G05G25G02G30
 124715776.072 6  97181256.65443  23732610.758                    23732622.043
 127091357.860 6  99032294.305 6  24184685.039                    24184695.984
 115042657.893 7  89643758.44945  21891868.906                    21891878.258
 109152030.210 8  85053578.750 7  20770937.852                    20770946.973
 107220463.098 8  83548501.381 8  20403356.414                    20403365.570
 116310661.737 8  90631717.232 7  22133172.500                    22133184.199
 110433549.361 8  86052257.11546  21014783.375                    21014790.988
 115925632.367 7  90331721.15945  22059913.594                    22059923.309
 11  8 23  1 14 30.0000000  0  8G04G29G10G12G05G25G02G30
 124796684.195 6  97244301.87343  23748007.117                    23748017.805
 127009662.459 6  98968635.564 6  24169138.852                    24169150.301
 115118085.216 7  89702532.99045  21906222.086                    21906231.602
 109161506.149 8  85060962.581 7  20772741.750                    20772750.082
 107191630.877 8  83526034.750 8  20397869.891                    20397878.832
 116255758.694 8  90588935.685 7  22122725.008                    22122736.527
 110461052.883 8  86073688.43946  21020017.531                    21020024.391
 115878944.795 7  90295341.27745  22051029.602                    22051038.938
 11  8 23  1 15  0.0000000  0  8G04G29G10G12G05G25G02G30
 124877550.960 7  97307314.87543  23763395.781                    23763406.352
 126927908.575 6  98904931.237 6  24153582.203                    24153592.941
 115193946.682 7  89761645.82745  21920657.836                    21920667.898
 109171563.899 8  85068799.775 7  20774655.609                    20774664.523
 107163367.168 8  83504011.118 8  20392491.656                    20392500.871
 116201352.765 8  90546541.497 7  22112371.695                    22112383.207
 110488694.103 8  86095227.06746  21025277.797                    21025284.832
 115832815.812 7  90259396.66145  22042251.242                    22042261.141
 11  8 23  1 15 30.0000000  0  8G04G29G10G12G05G25G02G30
 124958375.676 7  97370295.09543  23778776.383                    23778786.973
 126846096.369 6  98841181.453 6  24138014.242                    24138023.910
 115270239.206 7  89821094.55745  21935175.977                    21935186.477
 109182203.228 8  85077090.158 7  20776680.266                    20776688.730
 107135672.463 8  83482430.857 8  20387221.266                    20387230.125
 116147445.638 8  90504535.980 7  22102113.414                    22102124.883
 110516471.662 8  86116871.93446  21030563.102                    21030570.246
 115787246.681 7  90223888.29345  22033579.648                    22033589.836
 11  8 23  1 16  0.0000000  0  8G04G29G10G12G05G25G02G30
 125039157.789 7  97433242.14343  23794148.656                    23794158.945
 126764227.307 6  98777387.341 6  24122435.070                    24122445.223
 115346960.383 7  89880877.29045  21949775.781                    21949785.621
 109193423.832 8  85085833.478 7  20778815.359                    20778823.980
 107108547.782 8  83461294.777 8  20382059.766                    20382068.730
 116094039.425 8  90462920.780 7  22091950.438                    22091962.266
 110544385.249 8  86138622.80146  21035874.789                    21035881.621
 115742239.216 7  90188817.58645  22025014.547                    22025024.684
 11  8 23  1 16 30.0000000  0  8G04G29G10G12G05G25G02G30
 125119896.295 7  97496155.21243  23809512.680                    23809522.336
 126682301.566 6  98713549.113 6  24106844.469                    24106855.316
 115424107.276 7  89940991.74445  21964456.547                    21964466.434
 109205224.954 8  85095029.149 7  20781060.836                    20781069.367
 107081993.406 8  83440603.086 8  20377006.719                    20377015.223
 116041135.575 8  90421697.025 7  22081883.086                    22081894.934
 110572433.319 8  86160478.45146  21041212.359                    21041219.242
 115697794.536 7  90154185.40445  22016557.164                    22016567.129
 11  8 23  1 17  0.0000000  0  8G04G29G10G12G05G25G02G30
 125200591.099 7  97559034.21043  23824868.273                    23824878.379
 126600320.689 6  98649667.895 6  24091244.680                    24091254.895
 115501677.843 7  90001436.32745  21979217.773                    21979227.512
 109217606.607 8  85104677.192 7  20783417.172                    20783425.738
 107056010.315 8  83420356.553 8  20372062.023                    20372071.070
 115988736.391 8  90380866.526 7  22071911.930                    22071923.500
 110600615.749 8  86182438.79846  21046574.945                    21046582.074
 115653914.439 7  90119993.15845  22008207.164                    22008216.918
 11  8 23  1 17 30.0000000  0  8G04G29G10G12G05G25G02G30
 125281241.452 7  97621878.57743  23840215.516                    23840225.926
 126518285.345 6  98585744.304 6  24075633.398                    24075644.352
 115579669.115 7  90062208.72345  21994058.703                    21994068.285
 109230568.489 8  85114777.355 7  20785883.758                    20785892.090
 107030599.057 8  83400555.607 8  20367226.352                    20367235.254
 115936843.471 8  90340430.519 7  22062037.375                    22062048.691
 110628931.530 8  86204503.04946  21051963.273                    21051970.371
 115610600.257 7  90086241.88145  21999964.328                    21999974.230
 11  8 23  1 18  0.0000000  0  8G04G29G10G12G05G25G02G30
 125361846.376 6  97684687.56143  23855553.688                    23855564.699
 126436196.592 6  98521779.097 6  24060012.367                    24060023.582
 115658078.087 7  90123306.60845  22008979.609                    22008989.398
 109244109.736 8  85125328.980 7  20788460.469                    20788469.023
 107005759.884 8  83381200.432 8  20362499.438                    20362508.418
 115885458.478 8  90300390.289 7  22052258.648                    22052270.000
 110657379.404 8  86226670.22346  21057376.727                    21057383.707
 115567853.169 7  90052932.48445  21991830.094                    21991839.664
 11  8 23  1 18 30.0000000  0  8G04G29G10G12G05G25G02G30
 125442405.480 6  97747460.84243  23870883.938                    23870894.594
 126354054.594 6  98457772.352 6  24044381.484                    24044391.973
 115736901.638 7  90184727.54745  22023978.766                    22023988.559
 109258229.040 8  85136331.042 7  20791147.313                    20791155.789
 106981492.996 8  83362291.200 8  20357881.742                    20357890.797
 115834582.791 8  90260746.910 7  22042577.672                    22042589.027
 110685958.144 8  86248939.37146  21062815.109                    21062822.199
 115525674.206 7  90020065.81245  21983803.406                    21983813.414
 11  8 23  1 19  0.0000000  0  8G04G29G10G12G05G25G02G30
 125522918.077 6  97810197.89643  23886204.531                    23886216.332
 126271860.761 6  98393725.250 5  24028739.750                    24028750.422
 115816137.539 7  90246469.80144  22039056.797                    22039066.895
 109272926.702 8  85147783.762 7  20793944.109                    20793952.371
 106957799.436 8  83343828.716 8  20353373.188                    20353381.871
 115784218.614 8  90221502.111 7  22032993.555                    22033004.891
 110714667.416 8  86271310.22046  21068278.617                    21068285.633
 115484065.176 7  89987643.23345  21975885.617                    21975895.801
 11  8 23  1 19 30.0000000  0  8G04G29G10G12G05G25G02G30
 125603383.742 6  97872898.40443  23901516.797                    23901528.633
 126189616.218 6  98329638.604 6  24013089.945                    24013100.051
 115895783.245 7  90308531.38645  22054213.031                    22054222.977
 109288202.395 8  85159686.903 7  20796851.289                    20796859.684
 106934679.280 8  83325813.040 8  20348973.383                    20348982.434
 115734367.744 8  90182657.287 7  22023506.945                    22023518.168
 110743506.530 8  86293782.24746  21073766.695                    21073773.395
 115443027.463 7  89955665.82645  21968075.945                    21968086.188
 11  8 23  1 20  0.0000000  0  8G04G29G10G12G05G25G02G30
 125683802.120 6  97935562.04243  23916819.672                    23916831.859
 126107321.708 7  98265513.071 6  23997429.086                    23997440.184
 115975835.715 7  90370909.91945  22069446.906                    22069456.586
 109304055.557 8  85172040.022 7  20799867.406                    20799876.387
 106912133.279 8  83308244.756 8  20344682.977                    20344692.238
 115685031.945 7  90144213.816 7  22014118.953                    22014129.984
 110772474.797 8  86316354.91646  21079279.273                    21079286.273
 115402562.454 7  89924134.66545  21960375.859                    21960386.199
 11  8 23  1 20 30.0000000  0  8G04G29G10G12G05G25G02G30
 125764173.013 6  97998188.67443  23932113.992                    23932125.277
 126024978.480 7  98201349.600 6  23981760.234                    23981770.855
 116056292.271 7  90433603.34145  22084757.664                    22084766.504
 109320485.214 8  85184842.352 7  20802994.477                    20803002.711
 106890162.038 8  83291124.342 8  20340502.313                    20340510.992
 115636213.107 7  90106173.178 7  22004828.859                    22004839.895
 110801571.685 8  86339027.80346  21084816.359                    21084823.281
 115362671.548 7  89893050.85845  21952785.406                    21952794.766
 11  8 23  1 21  0.0000000  0  8G04G29G10G12G05G25G02G30
 125844495.071 6  98060777.27243  23947398.797                    23947410.160
 125942587.310 7  98137148.736 6  23966081.344                    23966091.969
 116137150.064 7  90496609.44045  22100144.453                    22100153.633
 109337490.810 8  85198093.466 7  20806230.406                    20806239.430
 106868765.723 8  83274451.924 8  20336430.367                    20336439.352
 115587912.583 8  90068536.412 7  21995637.477                    21995649.309
 110830795.694 8  86361799.75946  21090377.281                    21090384.043
 115323355.791 7  89862415.22545  21945303.594                    21945312.910
 11  8 23  1 21 30.0000000  0  8G04G29G10G12G05G25G02G30
 125924767.790 6  98123327.47343  23962674.273                    23962685.379
 125860148.551 6  98072910.803 6  23950393.820                    23950403.887
 116218405.739 7  90559925.56545  22115606.773                    22115616.141
 109355071.063 8  85211792.376 7  20809575.430                    20809584.184
 106847943.982 8  83258227.220 8  20332468.242                    20332477.031
 115540131.429 8  90031304.351 7  21986544.938                    21986556.676
 110860145.516 8  86384669.76646  21095962.391                    21095969.051
 115284615.682 7  89832228.14745  21937931.758                    21937941.387
 11  8 23  1 22  0.0000000  0  8G04G29G10G12G05G25G02G30
 126004990.286 6  98185838.51143  23977940.555                    23977951.375
 125777663.389 6  98008636.691 6  23934697.500                    23934707.695
 116300056.255 7  90623549.35044  22131143.789                    22131153.496
 109373225.484 8  85225938.674 7  20813030.453                    20813038.617
 106827697.081 8  83242450.448 8  20328614.969                    20328624.125
 115492871.191 8  89994478.198 7  21977552.148                    21977563.840
 110889620.221 8  86407637.07446  21101570.789                    21101578.004
 115246452.402 7  89802490.53145  21930669.297                    21930679.031
 11  8 23  1 22 30.0000000  0  8G04G29G10G12G05G25G02G30
 126085162.998 6  98248310.77543  23993196.852                    23993207.844
 125695133.538 6  97944327.830 6  23918991.680                    23919003.285
 116382099.949 7  90687479.50845  22146756.117                    22146766.125
 109391954.193 8  85240532.462 7  20816594.352                    20816602.941
 106808026.525 8  83227122.777 8  20324871.977                    20324881.094
 115446134.690 7  89958060.144 7  21968658.188                    21968669.789
 110919220.451 8  86430702.18646  21107203.758                    21107210.531
 115208868.328 7  89773204.26445  21923517.219                    21923526.926
 11  8 23  1 23  0.0000000  0  8G04G29G10G12G05G25G02G30
 126165285.352 6  98310743.80943  24008443.617                    24008454.430
 125612559.724 6  97879984.686 6  23903278.703                    23903289.184
 116464534.139 7  90751713.94245  22162442.719                    22162452.590
 109411256.135 8  85255572.931 7  20820267.602                    20820276.156
 106788932.190 8  83212244.110 8  20321238.383                    20321247.176
 115399923.268 8  89922051.257 7  21959864.352                    21959875.746
 110948945.023 8  86453864.20446  21112860.070                    21112866.926
 115171864.355 7  89744370.02145  21916475.430                    21916485.629
 11  8 23  1 23 30.0000000  0  8G04G29G10G12G05G25G02G30
 126245356.138 6  98373136.68343  24023680.547                    24023691.789
 125529942.302 6  97815607.546 6  23887557.516                    23887567.934
 116547355.074 7  90816249.73145  22178203.258                    22178213.395
 109431130.273 8  85271059.274 7  20824049.375                    20824057.977
 106770413.838 8  83197814.262 8  20317714.578                    20317723.180
 115354237.756 7  89886452.157 7  21951171.023                    21951181.949
 110978792.376 8  86477121.88446  21118539.766                    21118547.406
 115135440.917 7  89715988.13945  21909543.883                    21909554.602
 11  8 23  1 24  0.0000000  0  8G04G29G10G12G05G25G02G30
 126325375.281 6  98435489.30643  24038907.586                    24038918.934
 125447282.936 6  97751197.731 6  23871827.211                    23871838.371
 116630560.523 7  90881085.13545  22194036.867                    22194047.105
 109451575.773 8  85286990.826 7  20827939.875                    20827948.348
 106752472.338 8  83183833.905 8  20314300.375                    20314308.910
 115309080.242 8  89851264.492 7  21942577.523                    21942589.797
 111008762.333 8  86500475.10746  21124242.992                    21124249.980
 115099599.520 7  89688059.77545  21902723.789                    21902733.977
 11  8 23  1 24 30.0000000  0  8G04G29G10G12G05G25G02G30
 126405342.782 6  98497801.72143  24054125.469                    24054136.020
 125364582.700 6  97686756.059 6  23856090.383                    23856100.863
 116714147.814 7  90946218.10145  22209943.039                    22209952.633
 109472592.106 8  85303367.183 7  20831939.422                    20831947.820
 106735108.049 8  83170303.318 8  20310996.180                    20311005.219
 115264452.538 8  89816489.667 7  21934085.172                    21934097.004
 111038854.561 8  86523923.61646  21129969.438                    21129976.121
 115064341.668 7  89660586.12445  21896014.820                    21896024.180
 11  8 23  1 25  0.0000000  0  8G04G29G10G12G05G25G02G30
 126485257.652 6  98560073.10143  24069331.484                    24069343.594
 125281842.453 6  97622283.228 6  23840344.625                    23840355.676
 116798113.784 7  91011646.14944  22225920.844                    22225930.746
 109494178.296 8  85320187.582 7  20836046.594                    20836055.180
 106718320.285 8  83157221.972 8  20307801.555                    20307810.355
 115220355.800 7  89782128.583 7  21925693.570                    21925705.906
 111069067.757 8  86547466.39946  21135718.656                    21135726.020
 115029667.998 7  89633567.67845  21889416.945                    21889426.109
 11  8 23  1 25 30.0000000  0  8G04G29G10G12G05G25G02G30
 126565118.684 6  98622302.52843  24084528.820                    24084540.117
 125199062.558 7  97557779.502 6  23824592.492                    23824603.082
 116882454.680 7  91077366.35045  22241971.266                    22241980.254
 109516332.604 8  85337450.667 7  20840262.672                    20840271.523
 106702108.725 8  83144589.617 8  20304716.648                    20304725.059
 115176790.648 8  89748181.724 7  21917403.711                    21917415.273
 111099399.943 8  86571101.90646  21141490.234                    21141497.855
 114995578.795 7  89607004.66745  21882929.859                    21882939.203
 11  8 23  1 26  0.0000000  0  8G04G29G10G12G05G25G02G30
 126644926.599 6  98684490.56543  24099716.180                    24099726.508
 125116245.029 7  97493246.415 6  23808832.555                    23808844.051
 116967168.958 7  91143377.49345  22258091.609                    22258100.531
 109539055.414 8  85355156.736 7  20844586.828                    20844595.770
 106686475.085 8  83132407.577 8  20301741.578                    20301750.113
 115133759.888 8  89714651.270 7  21909215.203                    21909226.227
 111129852.314 8  86594831.05546  21147285.156                    21147292.789
 114962076.206 7  89580898.74345  21876554.438                    21876563.594
 11  8 23  1 26 30.0000000  0  8G04G29G10G12G05G25G02G30
 126724680.279 6  98746636.30843  24114893.016                    24114902.156
 125033390.537 7  97428684.549 6  23793066.469                    23793077.133
 117052253.244 7  91209676.95644  22274282.422                    22274291.820
 109562345.047 8  85373304.496 7  20849018.781                    20849027.363
 106671418.556 8  83120675.244 8  20298876.211                    20298884.953
 115091264.230 8  89681537.776 7  21901128.586                    21901139.863
 111160423.110 8  86618652.49346  21153103.031                    21153110.496
 114929160.564 7  89555250.19145  21870290.641                    21870300.777
 11  8 23  1 27  0.0000000  0  8G04G29G10G12G05G25G02G30
 126804379.865 6  98808739.94543  24130059.094                    24130068.156
 124950500.421 7  97364094.945 6  23777292.305                    23777303.395
 117137705.308 7  91276262.99345  22290543.742                    22290552.820
 109586201.291 8  85391893.758 7  20853558.375                    20853566.949
 106656939.824 8  83109393.139 8  20296121.281                    20296129.656
 115049305.719 8  89648842.844 7  21893144.320                    21893155.664
 111191112.530 8  86642566.33846  21158943.250                    21158949.848
 114896833.357 7  89530060.16145  21864139.047                    21864148.945
 11  8 23  1 27 30.0000000  0  8G04G29G10G12G05G25G02G30
 126884024.480 6  98870800.69643  24145214.180                    24145223.984
 124867575.766 7  97299478.420 6  23761512.828                    23761523.004
 117223521.759 7  91343132.96045  22306873.531                    22306883.660
 109610622.661 8  85410923.374 7  20858205.672                    20858214.297
 106643038.271 8  83098560.785 8  20293475.438                    20293484.086
 115007885.345 8  89616567.232 7  21885261.766                    21885273.406
 111221919.027 8  86666571.42246  21164805.313                    21164811.988
 114865095.126 7  89505329.07045  21858099.609                    21858109.332
 11  8 23  1 28  0.0000000  0  8G04G29G10G12G05G25G02G30
 126963613.656 6  98932818.20943  24160359.586                    24160370.113
 124784617.336 7  97234835.545 6  23745726.344                    23745736.336
 117309699.642 7  91410284.55045  22323272.414                    22323282.898
 109635607.958 8  85430392.423 7  20862960.164                    20862969.230
 106629714.081 8  83088178.324 8  20290940.047                    20290948.781
 114967004.428 8  89584711.970 7  21877482.664                    21877494.023
 111252841.816 8  86690667.10646  21170689.422                    21170696.188
 114833946.833 7  89481057.66145  21852171.836                    21852181.848
 11  8 23  1 28 30.0000000  0  8G04G29G10G12G05G25G02G30
 127043146.860 6  98994792.20443  24175494.703                    24175505.227
 124701625.858 7  97170166.943 6  23729933.086                    23729943.250
 117396235.625 7  91477715.17545  22339739.945                    22339750.055
 109661155.901 8  85450299.897 7  20867821.781                    20867830.492
 106616966.804 8  83078245.404 8  20288513.891                    20288523.148
 114926663.892 7  89553277.791 7  21869805.727                    21869817.691
 111283879.736 8  86714852.51346  21176595.797                    21176602.887
 114803388.795 7  89457246.18345  21846357.148                    21846366.410
 11  8 23  1 29  0.0000000  0  8G04G29G10G12G05G25G02G30
 127122624.089 6  99056722.49143  24190619.688                    24190629.340
 124618603.130 7  97105473.980 6  23714134.906                    23714144.379
 117483127.941 7  91545423.50444  22356275.000                    22356285.324
 109687266.088 8  85470645.479 7  20872790.047                    20872798.957
 106604797.299 8  83068762.701 8  20286198.359                    20286207.266
 114886865.900 8  89522266.366 7  21862232.563                    21862244.309
 111315033.017 8  86739127.80146  21182524.086                    21182531.031
 114773422.634 7  89433895.93645  21840655.039                    21840664.406
 11  8 23  1 29 30.0000000  0  8G04G29G10G12G05G25G02G30
 127202044.983 6  99118608.93543  24205731.625                    24205742.773
 124535550.318 7  97040757.546 6  23698330.461                    23698340.625
 117570373.276 7  91613406.87945  22372877.313                    22372886.949
 109713937.493 8  85491428.380 7  20877865.969                    20877874.523
 106593205.180 8  83059729.913 8  20283992.969                    20284001.336
 114847611.658 8  89491678.656 7  21854762.852                    21854774.250
 111346301.092 8  86763492.54246  21188474.117                    21188481.266
 114744049.136 7  89411007.49345  21835065.391                    21835075.133
 11  8 23  1 30  0.0000000  0  8G04G29G10G12G05G25G02G30
 127281408.775 6  99180450.82443  24220834.703                    24220845.867
 124452468.081 7  96976018.207 6  23682520.016                    23682530.578
 117657968.561 7  91681662.94645  22389546.164                    22389555.668
 109741168.692 8  85512647.473 7  20883047.578                    20883056.340
 106582189.939 8  83051146.627 8  20281896.477                    20281905.246
 114808902.063 8  89461515.331 7  21847396.555                    21847408.152
 111377682.559 8  86787945.63246  21194445.969                    21194452.855
 114715268.664 7  89388581.14945  21829588.352                    21829598.219
 11  8 23  1 30 30.0000000  0  9G26G04G29G10G12G05G25G02G30
 130542510.64916 101721501.21153  24841419.539                    24841430.895
 127360715.519 6  99242248.29143  24235926.016                    24235937.238
 124369358.181 7  96911257.302 6  23666704.734                    23666714.820
 117745911.361 7  91750189.78844  22406281.281                    22406290.316
 109768958.950 8  85534302.199 7  20888336.344                    20888344.754
 106571752.117 8  83043013.281 8  20279910.289                    20279919.293
 114770738.963 8  89431777.849 7  21840134.664                    21840146.063
 111409177.519 8  86812487.16446  21200439.266                    21200446.457
 114687082.558 7  89366617.93945  21824224.898                    21824234.250
 11  8 23  1 31  0.0000000  0  9G26G04G29G10G12G05G25G02G30
 130450929.465 6 101650139.34243  24823991.961                    24824003.688
 127439964.697 6  99304000.91743  24251007.406                    24251017.121
 124286221.336 7  96846475.368 6  23650884.539                    23650894.949
 117834198.579 7  91818985.05744  22423081.477                    22423090.926
 109797306.884 7  85556391.482 7  20893730.516                    20893739.223
 106561891.370 8  83035329.611 8  20278033.813                    20278042.355
 114733123.239 8  89402466.890 7  21832976.695                    21832988.168
 111440784.805 7  86837116.23446  21206453.766                    21206461.027
 114659491.231 7  89345118.20845  21818974.242                    21818984.496
 11  8 23  1 31 30.0000000  0  9G26G04G29G10G12G05G25G02G30
 130359209.572 6 101578669.42243  24806537.125                    24806550.051
 127519156.338 6  99365708.70543  24266075.250                    24266087.426
 124203059.256 7  96781673.789 6  23635058.961                    23635069.496
 117922827.650 7  91888046.65644  22439947.117                    22439956.422
 109826211.367 8  85578914.432 7  20899230.758                    20899239.559
 106552607.761 8  83028095.662 8  20276266.922                    20276275.961
 114696056.517 7  89373583.722 7  21825923.109                    21825934.602
 111472503.928 8  86861832.44646  21212489.563                    21212496.883
 114632495.755 7  89324082.77545  21813837.305                    21813847.316
 11  8 23  1 32  0.0000000  0  9G26G04G29G10G12G05G25G02G30
 130267353.432 6 101507093.31443  24789058.883                    24789070.375
 127598289.294 6  99427370.76843  24281134.953                    24281146.105
 124119872.516 7  96716852.959 6  23619229.508                    23619239.453
 118011794.905 6  91957371.77544  22456876.531                    22456886.746
 109855670.841 7  85601869.853 7  20904836.695                    20904845.699
 106543900.570 8  83021310.865 8  20274610.219                    20274619.121
 114659539.325 8  89345128.771 7  21818974.070                    21818985.945
 111504333.670 7  86886634.85046  21218546.516                    21218553.680
 114606096.144 7  89303511.66445  21808813.609                    21808823.125
 11  8 23  1 32 30.0000000  0  9G26G04G29G10G12G05G25G02G30
 130175364.104 6 101435413.43643  24771553.000                    24771564.809
 127677363.549 6  99488987.09543  24296182.070                    24296193.172
 124036662.353 7  96652013.863 6  23603394.180                    23603405.121
 118101097.710 6  92026958.37444  22473870.438                    22473880.172
 109885684.274 8  85625256.939 7  20910548.242                    20910556.680
 106535769.915 8  83014975.316 8  20273062.719                    20273071.887
 114623573.149 8  89317103.168 7  21812129.789                    21812141.434
 111536273.614 7  86911523.11246  21224624.914                    21224631.949
 114580293.305 7  89283405.55845  21803903.734                    21803913.027
 11  8 23  1 33  0.0000000  0  9G26G04G29G10G12G05G25G02G30
 130083244.286 6 101363631.84643  24754023.641                    24754035.059
 127756378.895 6  99550557.54843  24311217.977                    24311229.227
 123953430.010 7  96587157.489 6  23587556.711                    23587566.633
 118190733.489 7  92096804.43344  22490928.016                    22490937.598
 109916250.738 8  85649074.940 7  20916365.008                    20916373.855
 106528215.573 8  83009088.847 8  20271625.156                    20271634.000
 114588159.282 8  89289507.952 7  21805390.992                    21805402.414
 111568323.569 8  86936497.10746  21230724.094                    21230730.563
 114555088.014 7  89263765.07845  21799107.313                    21799116.844
 11  8 23  1 33 30.0000000  0  9G26G04G29G10G12G05G25G02G30
 129990996.571 6 101291750.59343  24736468.656                    24736481.031
 127835334.613 6  99612081.51443  24326242.766                    24326254.289
 123870176.586 7  96522284.701 6  23571713.555                    23571723.895
 118280698.923 7  92166907.36644  22508048.398                    22508057.375
 109947368.129 8  85673322.242 7  20922286.203                    20922295.508
 106521236.597 8  83003650.708 8  20270297.172                    20270306.000
 114553298.414 8  89262343.633 7  21798756.789                    21798768.313
 111600482.381 7  86961555.91846  21236843.461                    21236850.207
 114530480.527 7  89244590.42345  21794424.375                    21794434.059
 11  8 23  1 34  0.0000000  0  9G26G04G29G10G12G05G25G02G30
 129898624.263 6 101219772.29643  24718890.719                    24718903.336
 127914230.523 6  99673558.90743  24341256.055                    24341267.414
 123786903.671 7  96457396.703 6  23555867.211                    23555877.617
 118370991.363 7  92237265.12145  22525230.469                    22525239.289
 109979035.631 8  85697998.197 7  20928312.695                    20928321.543
 106514833.371 8  82998661.207 8  20269078.719                    20269087.633
 114518992.016 8  89235611.384 7  21792228.531                    21792240.078
 111632749.618 7  86986699.22446  21242983.438                    21242990.512
 114506471.657 7  89225882.21345  21789855.617                    21789865.547
 11  8 23  1 34 30.0000000  0  9G26G04G29G10G12G05G25G02G30
 129806129.863 6 101147698.78843  24701289.625                    24701302.176
 127993066.391 6  99734989.45843  24356258.117                    24356269.703
 123703612.120 7  96392494.186 6  23540017.227                    23540028.426
 118461607.804 7  92307875.32544  22542474.016                    22542483.473
 110011252.089 8  85723101.918 7  20934443.055                    20934452.309
 106509005.506 8  82994120.040 8  20267969.750                    20267978.563
 114485241.064 8  89209311.948 7  21785805.523                    21785817.715
 111665124.373 8  87011926.31046  21249144.531                    21249150.969
 114483061.879 7  89207640.82645  21785401.133                    21785410.773
 11  8 23  1 35  0.0000000  0  9G26G04G29G10G12G05G25G02G30
 129713516.340 6 101075532.50343  24683665.922                    24683678.410
 128071841.989 6  99796373.08643  24371248.383                    24371259.910
 123620303.310 7  96327578.238 6  23524164.906                    23524174.941
 118552545.510 7  92378735.87744  22559778.547                    22559788.254
 110044015.882 8  85748632.134 7  20940677.539                    20940686.711
 106503752.751 8  82990027.015 8  20266969.969                    20266979.039
 114452046.693 8  89183446.203 7  21779489.383                    21779500.785
 111697606.103 7  87037236.75746  21255325.117                    21255332.652
 114460251.776 8  89189866.71945  21781060.016                    21781069.656
 11  8 23  1 35 30.0000000  0  9G26G04G29G10G12G05G25G02G30
 129620786.461 6 101003275.57543  24666020.328                    24666032.637
 128150556.855 6  99857709.36343  24386228.273                    24386238.648
 123536978.380 7  96262649.722 6  23508308.414                    23508318.137
 118643801.341 6  92449844.32044  22577143.734                    22577153.434
 110077325.514 8  85774587.678 7  20947016.414                    20947025.242
 106499074.468 8  82986381.624 8  20266079.695                    20266088.621
 114419409.755 8  89158014.826 7  21773278.633                    21773290.531
 111730194.201 7  87062630.10946  21261526.367                    21261533.922
 114438041.686 8  89172560.16045  21776834.117                    21776843.215
 11  8 23  1 36  0.0000000  0  9G26G04G29G10G12G05G25G02G30
 129527943.261 6 100930930.34543  24648352.492                    24648364.586
 128229210.634 6  99918998.00343  24401195.180                    24401205.891
 123453638.704 6  96197709.748 6  23492448.883                    23492459.840
 118735372.503 6  92521198.47744  22594568.961                    22594578.680
 110111179.830 8  85800967.653 7  20953459.094                    20953467.352
 106494970.060 8  82983183.411 8  20265298.539                    20265307.785
 114387331.458 8  89133018.757 7  21767174.578                    21767185.633
 111762888.262 8  87088106.01646  21267748.258                    21267755.363
 114416432.122 8  89155721.55445  21772721.453                    21772731.188
 11  8 23  1 36 30.0000000  0  9G26G04G29G10G12G05G25G02G30
 129434989.534 6 100858498.95943  24630664.164                    24630676.320
 128307803.285 6  99980239.02943  24416150.961                    24416161.336
 123370285.823 6  96132759.514 6  23476587.586                    23476598.285
 118827256.421 7  92592796.33744  22612054.016                    22612063.418
 110145577.544 8  85827771.052 7  20960004.320                    20960013.273
 106491439.838 8  82980432.612 8  20264627.078                    20264635.672
 114355812.875 8  89108458.831 7  21761176.914                    21761188.250
 111795687.643 8  87113663.99846  21273989.773                    21273996.000
 114395423.731 8  89139351.37545  21768723.930                    21768733.781
 11  8 23  1 37  0.0000000  0  9G26G04G29G10G12G05G25G02G30
 129341928.528 6 100785984.00843  24612954.625                    24612967.172
 128386334.202 6 100041431.93343  24431095.141                    24431105.285
 123286920.596 7  96067799.664 6  23460723.258                    23460734.418
 118919449.677 7  92664635.23144  22629598.336                    22629607.566
 110180516.960 7  85854996.546 7  20966653.266                    20966662.105
 106488482.656 8  82978128.340 8  20264064.055                    20264073.160
 114324854.659 8  89084335.560 7  21755285.625                    21755297.344
 111828591.393 7  87139303.30246  21280251.164                    21280257.641
 114375016.568 8  89123449.69945  21764840.609                    21764850.422
 11  8 23  1 37 30.0000000  0  9G26G04G29G10G12G05G25G02G30
 129248762.795 6 100713387.45542  24595225.531                    24595238.328
 128464803.526 6 100102576.86543  24446026.898                    24446036.754
 123203544.632 7  96002831.451 6  23444857.844                    23444868.234
 119011949.560 7  92736713.05944  22647200.273                    22647209.441
 110215997.175 8  85882643.457 7  20973404.852                    20973414.094
 106486098.537 8  82976270.600 8  20263610.641                    20263619.793
 114294458.177 7  89060649.999 7  21749501.422                    21749512.516
 111861599.516 8  87165023.92646  21286532.633                    21286539.297
 114355211.452 8  89108017.14045  21761071.672                    21761082.059
 11  8 23  1 38  0.0000000  0  9G26G04G29G10G12G05G25G02G30
 129155495.499 5 100640711.75142  24577477.891                    24577490.207
 128543210.931 6 100163673.56042  24460947.273                    24460956.543
 123120159.084 7  95937855.794 6  23428989.531                    23429000.414
 119104753.540 7  92809027.83344  22664859.906                    22664869.516
 110252016.009 7  85910710.074 7  20980258.727                    20980267.863
 106484286.823 8  82974858.891 8  20263265.922                    20263274.820
 114264624.210 7  89037402.764 7  21743824.297                    21743835.637
 111894711.191 7  87190825.24246  21292832.969                    21292839.828
 114336008.568 8  89093053.84845  21757417.445                    21757427.672
 11  8 23  1 38 30.0000000  0  9G26G04G29G10G12G05G25G02G30
 129062129.883 5 100567959.43242  24559710.688                    24559722.785
 128621556.070 6 100224721.66342  24475856.031                    24475865.484
 123036765.364 7  95872873.746 6  23413120.242                    23413130.695
 119197858.371 7  92881577.06044  22682577.352                    22682587.500
 110288572.260 8  85939195.451 7  20987215.563                    20987224.594
 106483047.418 8  82973893.135 8  20263030.016                    20263038.789
 114235353.822 8  89014594.682 7  21738253.938                    21738265.844
 111927926.070 7  87216706.97846  21299153.547                    21299160.723
 114317408.435 8  89078560.23445  21753877.984                    21753887.836
 11  8 23  1 39  0.0000000  0  9G26G04G29G10G12G05G25G02G30
 128968668.260 6 100495132.30842  24541925.398                    24541937.914
 128699838.759 6 100285721.21842  24490753.289                    24490762.098
 122953364.598 7  95807886.222 6  23397249.820                    23397259.707
 119291261.224 6  92954358.49744  22700351.672                    22700361.531
 110325663.993 8  85968098.089 7  20994273.523                    20994282.516
 106482378.981 8  82973372.284 8  20262902.727                    20262911.383
 114206647.470 8  88992226.108 7  21732791.328                    21732802.840
 111961242.980 7  87242668.23446  21305493.680                    21305500.379
 114299410.870 8  89064536.16045  21750453.320                    21750463.559
 11  8 23  1 39 30.0000000  0  9G26G04G29G10G12G05G25G02G30
 128875114.260 6 100422233.16542  24524122.391                    24524134.363
 128778058.606 6 100346671.72942  24505637.508                    24505646.691
 122869958.346 7  95742894.414 6  23381378.164                    23381388.270
 119384959.183 6  93027369.88944  22718181.398                    22718192.059
 110363290.276 8  85997417.266 7  21001433.344                    21001442.672
 106482281.661 8  82973296.470 8  20262884.313                    20262893.023
 114178506.479 7  88970298.080 7  21727436.320                    21727447.934
 111994662.058 7  87268709.09146  21311852.734                    21311859.902
 114282016.698 8  89050982.25945  21747143.078                    21747152.969
 11  8 23  1 40  0.0000000  0  9G26G04G29G10G12G05G25G02G30
 128781470.347 6 100349264.02242  24506302.609                    24506315.402
 128856215.660 6 100407573.26042  24520510.633                    24520519.609
 122786547.675 7  95677899.175 6  23365505.602                    23365515.980
 119478949.041 6  93100608.74944  22736067.242                    22736076.895
 110401449.181 8  86027151.466 7  21008694.922                    21008703.938
 106482754.462 8  82973664.900 8  20262974.031                    20262983.004
 114150931.334 8  88948810.959 7  21722189.203                    21722200.465
 112028182.343 8  87294828.80946  21318231.844                    21318238.828
 114265225.810 8  89037898.44645  21743948.266                    21743958.289
 11  8 23  1 40 30.0000000  0  9G26G04G29G10G12G05G25G02G30
 128687739.658 6 100276227.18043  24488465.945                    24488478.383
 128934309.486 6 100468425.61043  24535371.492                    24535381.074
 122703134.303 6  95612901.828 6  23349631.977                    23349642.480
 119573228.397 6  93174073.17944  22754008.148                    22754017.617
 110440139.549 8  86057299.788 7  21016058.016                    21016066.078
 106483797.136 7  82974477.397 8  20263172.320                    20263181.477
 114123923.145 8  88927765.624 7  21717049.320                    21717060.707
 112061803.484 8  87321027.10446  21324629.656                    21324636.707
 114249038.731 8  89025285.13645  21740868.086                    21740877.727
 11  8 23  1 41  0.0000000  0  9G26G04G29G10G12G05G25G02G30
 128593925.310 6 100203125.15643  24470614.594                    24470626.105
 129012340.070 6 100529228.69442  24550219.773                    24550230.793
 122619719.426 6  95547903.273 6  23333758.766                    23333768.762
 119667793.906 7  93247760.57644  22772003.602                    22772012.801
 110479359.244 8  86087860.587 7  21023520.961                    21023530.035
 106485408.937 8  82975733.365 8  20263479.234                    20263488.566
 114097482.574 8  88907162.586 7  21712018.367                    21712029.727
 112095525.024 8  87347303.63746  21331046.859                    21331053.520
 114233455.503 8  89013142.36545  21737902.531                    21737912.230
 11  8 23  1 41 30.0000000  0  9G26G04G29G10G12G05G25G02G30
 128500030.385 6 100129960.35943  24452746.828                    24452759.098
 129090307.040 6 100589982.17943  24565056.359                    24565067.020
 122536304.336 6  95482904.547 6  23317885.297                    23317895.309
 119762643.128 7  93321669.03344  22790052.539                    22790061.832
 110519106.901 8  86118832.771 7  21031084.813                    21031093.758
 106487589.246 7  82977432.331 8  20263893.977                    20263903.152
 114071610.302 8  88887002.388 7  21707094.555                    21707106.508
 112129346.235 7  87373657.82246  21337482.883                    21337489.512
 114218476.245 8  89001470.21745  21735052.086                    21735061.645
 11  8 23  1 42  0.0000000  0  9G26G04G29G10G12G05G25G02G30
 128406057.726 6 100056735.00243  24434863.641                    24434876.121
 129168209.901 6 100650685.66643  24579879.883                    24579891.422
 122452890.479 7  95417906.775 6  23302012.859                    23302022.457
 119857772.723 7  93395795.98244  22808155.430                    22808163.473
 110559380.620 8  86150214.877 7  21038748.898                    21038757.402
 106490337.006 7  82979573.465 8  20264417.031                    20264426.289
 114046306.872 7  88867285.445 7  21702279.367                    21702291.137
 112163266.279 8  87400089.03046  21343937.594                    21343944.203
 114204100.797 8  88990268.58145  21732316.195                    21732325.926
 11  8 23  1 42 30.0000000  0  9G26G04G29G10G12G05G25G02G30
 128312010.417 6  99983451.47543  24416967.336                    24416979.754
 129246048.932 6 100711339.44343  24594692.422                    24594703.008
 122369478.940 6  95352910.800 6  23286139.617                    23286149.898
 119953179.660 7  93470139.05744  22826309.859                    22826318.941
 110600178.690 8  86182005.568 7  21046512.422                    21046521.207
 106493651.644 8  82982156.325 8  20265047.797                    20265056.633
 114021573.132 8  88848012.404 7  21697573.211                    21697584.965
 112197284.688 7  87426596.88646  21350410.859                    21350417.848
 114190329.549 8  88979537.73545  21729695.336                    21729705.543
 11  8 23  1 43  0.0000000  0  9G26G04G29G10G12G05G25G02G30
 128217891.525 6  99910112.16743  24399057.133                    24399069.125
 129323823.757 6 100771943.16543  24609492.617                    24609503.609
 122286071.524 7  95287918.028 6  23270268.281                    23270278.129
 120048861.518 6  93544696.36444  22844518.008                    22844526.676
 110641499.232 8  86214203.390 7  21054375.219                    21054384.359
 106497532.557 8  82985180.439 8  20265785.797                    20265795.105
 113997409.816 8  88829183.865 7  21692974.992                    21692986.191
 112231401.369 7  87453181.31746  21356903.258                    21356909.813
 114177162.601 8  88969277.77445  21727190.398                    21727199.996
 11  8 23  1 43 30.0000000  0  9G26G04G29G10G12G05G25G02G30
 128123704.252 6  99836719.62943  24381133.648                    24381145.813
 129401534.335 6 100832496.81843  24624280.648                    24624291.270
 122202669.483 7  95222929.433 6  23254396.898                    23254406.836
 120144815.660 7  93619465.83244  22862776.977                    22862787.270
 110683341.243 8  86246807.546 7  21062337.391                    21062346.563
 106501979.204 8  82988645.379 8  20266632.492                    20266641.184
 113973817.824 8  88810800.506 7  21688485.266                    21688497.168
 112265616.104 7  87479842.18246  21363413.695                    21363420.543
 114164600.170 8  88959488.88245  21724800.008                    21724809.605
 11  8 23  1 44  0.0000000  0  9G26G04G29G10G12G05G25G02G30
 128029451.693 6  99763276.19943  24363197.734                    24363209.516
 129479180.405 6 100893000.23843  24639056.188                    24639067.613
 122119274.332 7  95157946.197 6  23238527.656                    23238536.961
 120241038.745 7  93694444.89644  22881087.609                    22881097.480
 110725702.313 8  86279816.171 7  21070398.750                    21070407.699
 106506990.581 8  82992550.376 8  20267585.906                    20267594.793
 113950797.542 7  88792862.627 7  21684104.703                    21684116.500
 112299928.218 7  87506578.90846  21369943.344                    21369949.891
 114152642.061 8  88950170.87645  21722524.125                    21722533.914
 11  8 23  1 44 30.0000000  0  9G26G04G29G10G12G05G25G02G30
 127935136.569 6  99689784.02643  24345249.211                    24345261.734
 129556761.783 6 100953453.20743  24653819.094                    24653831.117
 122035887.723 7  95092969.618 6  23222659.805                    23222669.758
 120337527.832 7  93769631.19644  22899449.258                    22899459.016
 110768580.839 8  86313227.994 7  21078558.141                    21078567.121
 106512565.840 7  82996894.761 8  20268647.078                    20268655.480
 113928349.547 8  88775370.699 7  21679832.898                    21679844.797
 112334336.839 7  87533390.83546  21376491.234                    21376497.957
 114141288.297 8  88941323.78245  21720363.789                    21720373.207
 11  8 23  1 45  0.0000000  0  9G26G04G29G10G12G05G25G02G30
 127840762.227 6  99616245.72643  24327290.727                    24327303.359
 129634278.287 6 101013855.63343  24668569.727                    24668582.621
 121952510.797 7  95028000.555 6  23206793.398                    23206803.055
 120434280.010 7  93845022.50344  22917860.664                    22917870.168
 110811975.060 8  86347041.668 7  21086815.906                    21086824.441
 106518704.052 8  83001677.808 8  20269815.188                    20269823.758
 113906474.465 8  88758325.190 7  21675670.391                    21675682.340
 112368841.528 8  87560277.61446  21383057.055                    21383063.531
 114130538.808 8  88932947.56045  21718317.828                    21718327.703
 11  8 23  1 45 30.0000000  0  8G26G29G10G12G05G25G02G30
 127746332.039 6  99542663.92043  24309322.109                    24309333.438
 121869145.195 7  94963040.341 6  23190929.422                    23190939.520
 120531292.861 6  93920616.92544  22936321.383                    22936331.336
 110855883.662 8  86381256.146 7  21095171.555                    21095180.285
 106525404.955 8  83006899.316 8  20271090.086                    20271098.922
 113885173.174 8  88741726.802 7  21671616.742                    21671628.070
 112403442.311 7  87587239.27246  21389641.555                    21389648.199
 114120393.921 8  88925042.45745  21716387.852                    21716397.188
 11  8 23  1 46  0.0000000  0  8G26G29G10G12G05G25G02G30
 127651849.238 6  99469041.06943  24291341.563                    24291354.156
 121785792.367 7  94898090.093 6  23175067.602                    23175077.797
 120628563.337 6  93996412.10844  22954831.383                    22954841.125
 110900304.923 8  86415870.113 7  21103624.508                    21103633.238
 106532667.635 7  83012558.581 8  20272472.086                    20272480.652
 113864446.161 8  88725575.905 7  21667672.555                    21667684.148
 112438138.223 7  87614275.04546  21396243.844                    21396250.391
 114110853.464 8  88917608.35145  21714571.867                    21714581.586
 11  8 23  1 46 30.0000000  0  8G26G29G10G12G05G25G02G30
 127557316.244 6  99395379.18043  24273352.969                    24273365.191
 121702453.827 7  94833150.963 6  23159209.133                    23159219.484
 120726088.605 7  94072405.83444  22973390.297                    22973398.871
 110945235.847 8  86450881.219 7  21112174.438                    21112183.387
 106540490.759 8  83018654.554 8  20273960.711                    20273969.688
 113844293.574 8  88709872.602 7  21663837.656                    21663849.109
 112472929.441 8  87641385.08046  21402864.391                    21402870.773
 114101916.968 8  88910644.84745  21712871.273                    21712881.188
 11  8 23  1 47  0.0000000  0  8G26G29G10G12G05G25G02G30
 127462736.451 6  99321680.77943  24255355.500                    24255366.387
 121619130.774 6  94768223.925 6  23143353.047                    23143364.012
 120823865.495 7  94148595.63144  22991996.359                    22992005.520
 110990675.082 8  86486288.406 7  21120821.188                    21120830.234
 106548873.519 8  83025186.608 8  20275555.891                    20275565.012
 113824715.877 8  88694617.276 7  21660112.172                    21660123.723
 112507815.023 8  87668568.62246  21409502.836                    21409509.426
 114093584.340 8  88904151.89545  21711286.125                    21711295.488
 11  8 23  1 47 30.0000000  0  8G26G29G10G12G05G25G02G30
 127368113.021 6  99247948.36743  24237348.273                    24237359.629
 121535824.680 6  94703310.113 6  23127500.609                    23127510.684
 120921890.872 7  94224979.04244  23010649.891                    23010659.949
 111036620.273 8  86522089.844 7  21129564.336                    21129572.840
 106557814.539 8  83032153.663 8  20277257.266                    20277266.289
 113805713.498 8  88679810.239 7  21656495.836                    21656507.777
 112542794.551 8  87695825.40746  21416159.180                    21416165.770
 114085855.248 8  88898129.24045  21709814.781                    21709824.316
 11  8 23  1 48  0.0000000  0  8G26G29G10G12G05G25G02G30
 127273449.230 6  99174184.49543  24219334.414                    24219346.574
 121452537.551 7  94638411.088 6  23111651.484                    23111661.762
 121020162.266 6  94301554.15544  23029350.789                    23029360.184
 111083070.617 8  86558284.901 7  21138403.516                    21138412.324
 106567313.555 7  83039555.524 8  20279065.086                    20279073.703
 113787287.192 8  88665452.099 7  21652989.602                    21653001.215
 112577867.783 7  87723155.21446  21422833.406                    21422840.754
 114078729.927 8  88892577.05245  21708458.906                    21708468.719
 11  8 23  1 48 30.0000000  0  8G26G29G10G12G05G25G02G30
 127178748.092 6  99100391.55443  24201312.211                    24201325.016
 121369270.654 7  94573527.817 6  23095806.281                    23095816.316
 121118676.608 6  94378318.57244  23048096.797                    23048106.887
 111130023.382 8  86594871.461 7  21147338.438                    21147346.918
 106577369.424 8  83047391.296 8  20280978.586                    20280986.797
 113769437.253 8  88651543.067 7  21649593.008                    21649604.184
 112613034.253 8  87750557.67746  21429525.156                    21429532.324
 114072207.966 8  88887495.02245  21707218.055                    21707227.867
 11  8 23  1 49  0.0000000  0  8G26G29G10G12G05G25G02G30
 127084012.660 6  99026571.86243  24183285.234                    24183297.273
 121286025.187 7  94508661.257 6  23079965.266                    23079975.160
 121217431.009 6  94455270.03244  23066889.000                    23066898.910
 111177476.361 8  86631847.805 7  21156368.211                    21156377.391
 106587980.596 8  83055659.768 8  20282997.852                    20283006.520
 113752163.703 8  88638083.168 7  21646305.844                    21646317.418
 112648292.927 8  87778031.97946  21436234.602                    21436241.773
 114066288.800 8  88882882.69945  21706091.898                    21706101.090
 11  8 23  1 49 30.0000000  0  8G26G29G10G12G05G25G02G30
 126989246.473 6  98952728.21343  24165252.406                    24165264.059
 121202803.017 7  94443812.863 6  23064128.656                    23064138.281
 121316422.744 6  94532406.43744  23085726.188                    23085736.883
 111225428.411 8  86669213.033 7  21165493.141                    21165502.285
 106599146.713 8  83064360.658 8  20285122.695                    20285131.359
 113735467.316 8  88625073.007 7  21643128.828                    21643140.156
 112683644.065 8  87805578.32146  21442961.922                    21442969.262
 114060972.492 8  88878740.13145  21705080.063                    21705090.188
 11  8 23  1 50  0.0000000  0  8G26G29G10G12G05G25G02G30
 126894452.534 7  98878862.93843  24147213.156                    24147224.871
 121119605.851 7  94378983.940 6  23048296.703                    23048306.723
 121415649.040 6  94609725.64244  23104609.305                    23104619.047
 111273877.018 8  86706965.182 7  21174712.992                    21174722.023
 106610866.598 8  83073493.061 8  20287352.656                    20287361.473
 113719348.219 8  88612512.688 7  21640061.164                    21640072.910
 112719087.045 8  87833196.23146  21449706.305                    21449713.719
 114056258.644 8  88875067.01245  21704182.922                    21704192.957
 11  8 23  1 50 30.0000000  0  8G26G29G10G12G05G25G02G30
 126799634.159 7  98804978.57443  24129169.797                    24129181.445
 121036434.887 7  94314175.470 6  23032469.461                    23032479.664
 121515106.945 6  94687225.30044  23123535.008                    23123544.883
 111322819.881 8  86745102.467 7  21184026.148                    21184035.195
 106623139.174 8  83083056.130 8  20289687.859                    20289696.859
 113703806.772 8  88600402.489 7  21637103.891                    21637115.848
 112754621.797 8  87860885.66046  21456468.586                    21456475.645
 114052146.889 8  88871863.05745  21703400.570                    21703410.398
 11  8 23  1 51  0.0000000  0  8G26G29G10G12G05G25G02G30
 126704794.298 6  98731077.49843  24111123.141                    24111133.969
 120953291.650 7  94249388.578 6  23016648.047                    23016657.898
 121614793.493 7  94764903.14344  23142504.922                    23142514.625
 111372255.383 8  86783623.632 7  21193433.625                    21193442.664
 106635962.752 8  83093048.556 8  20292128.438                    20292137.047
 113688843.149 8  88588742.524 7  21634256.555                    21634267.977
 112790247.608 8  87888646.03846  21463248.047                    21463254.605
 114048636.783 8  88869127.90545  21702732.703                    21702742.371
 11  8 23  1 51 30.0000000  0  8G26G29G10G12G05G25G02G30
 126609936.305 6  98657162.28043  24093071.672                    24093082.848
 120870178.075 7  94184624.808 6  23000831.656                    23000841.781
 121714706.029 7  94842757.05344  23161518.148                    23161527.313
 111422181.369 8  86822526.997 7  21202934.180                    21202943.129
 106649336.828 8  83103469.938 8  20294673.609                    20294682.031
 113674457.709 8  88577533.084 7  21631519.078                    21631530.859
 112825964.140 8  87916477.08746  21470044.836                    21470051.129
 114045728.034 7  88866861.34245  21702179.078                    21702189.055
 11  8 23  1 52  0.0000000  0  8G26G29G10G12G05G25G02G30
 126515063.428 6  98583235.45943  24075017.656                    24075028.949
 120787095.741 7  94119885.387 6  22985021.914                    22985031.813
 121814841.493 7  94920784.68644  23180573.469                    23180582.277
 111472596.263 8  86861811.329 7  21212528.055                    21212536.555
 106663260.274 8  83114319.393 8  20297323.023                    20297331.602
 113660650.744 8  88566774.407 7  21628891.359                    21628903.000
 112861771.259 8  87944378.73046  21476858.719                    21476864.875
 114043420.328 7  88865063.13245  21701740.250                    21701749.375
 11  8 23  1 52 30.0000000  0  8G26G29G10G12G05G25G02G30
 126420179.140 6  98509299.74943  24056961.828                    24056972.941
 120704045.986 7  94055171.350 6  22969217.875                    22969227.941
 121915197.420 7  94998984.11344  23199669.914                    23199679.141
 111523497.372 8  86901474.525 7  21222214.180                    21222222.742
 106677731.944 8  83125596.040 8  20300076.664                    20300085.406
 113647422.401 8  88556466.603 7  21626374.063                    21626385.602
 112897668.339 8  87972350.45945  21483689.234                    21483695.832
 114041713.104 7  88863732.83945  21701414.945                    21701424.391
 11  8 23  1 53  0.0000000  0  8G26G29G10G12G05G25G02G30
 126325286.512 6  98435357.57143  24038904.461                    24038915.504
 120621030.601 7  93990484.096 7  22953420.961                    22953430.672
 122015770.673 7  95077352.87444  23218808.352                    23218817.609
 111574882.487 8  86941514.877 7  21231992.195                    21232001.277
 106692750.528 8  83137298.853 8  20302934.969                    20302943.414
 113634772.674 8  88546609.660 7  21623967.305                    21623978.625
 112933655.039 8  88000392.03845  21490537.242                    21490543.930
 114040605.762 8  88862869.97345  21701204.242                    21701213.910
 11  8 23  1 53 30.0000000  0  8G26G29G10G12G05G25G02G30
 126230388.924 7  98361411.50943  24020845.961                    24020857.289
 120538051.348 7  93925825.007 7  22937630.234                    22937640.418
 122116558.233 7  95155888.65644  23237986.938                    23237996.621
 111626749.917 8  86981931.054 7  21241862.125                    21241871.234
 106708314.979 8  83149427.015 8  20305896.563                    20305904.828
 113622702.081 8  88537203.991 7  21621670.422                    21621681.773
 112969731.176 8  88028503.31946  21497402.430                    21497408.969
 114040098.010 7  88862474.31345  21701107.703                    21701117.145
 11  8 23  1 54  0.0000000  0  8G26G29G10G12G05G25G02G30
 126135489.805 6  98287464.25743  24002786.320                    24002798.516
 120455109.357 7  93861194.934 6  22921846.742                    22921856.664
 122217557.636 7  95234589.49843  23257206.688                    23257216.188
 111679097.491 8  87022721.373 7  21251823.820                    21251832.793
 106724424.125 8  83161979.623 8  20308961.469                    20308970.336
 113611210.696 8  88528249.645 7  21619483.547                    21619494.875
 113005896.861 8  88056684.38446  21504284.305                    21504291.336
 114040189.474 7  88862545.57745  21701125.047                    21701134.691
 11  8 23  1 54 30.0000000  0  8G26G29G10G12G05G25G02G30
 126040591.900 6  98213517.92343  23984728.680                    23984739.527
 120372206.614 7  93796595.435 7  22906070.758                    22906081.398
 122318766.036 7  95313453.21243  23276466.250                    23276474.758
 111731922.457 8  87063883.676 7  21261876.102                    21261884.871
 106741076.276 8  83174955.343 8  20312130.852                    20312139.617
 113600298.184 8  88519746.374 7  21617406.758                    21617418.125
 113042151.131 8  88084934.47446  21511183.484                    21511190.879
 114040879.053 8  88863082.89245  21701256.430                    21701265.953
 11  8 23  1 55  0.0000000  0  8G26G29G10G12G05G25G02G30
 125945698.915 6  98139575.42743  23966670.758                    23966681.980
 120289344.824 7  93732027.870 7  22890302.602                    22890312.969
 122420180.387 7  95392477.41743  23295764.250                    23295773.504
 111785223.140 8  87105416.677 7  21272018.641                    21272027.645
 106758270.578 8  83188353.519 8  20315402.555                    20315410.996
 113589964.985 8  88511694.520 7  21615440.383                    21615452.262
 113078493.951 8  88113253.56646  21518099.359                    21518106.602
 114042166.490 7  88864086.06745  21701501.461                    21701510.910
 11  8 23  1 55 30.0000000  0  8G26G29G10G12G05G25G02G30
 125850814.110 6  98065639.30643  23948614.570                    23948626.332
 120206525.560 7  93667493.453 7  22874542.914                    22874552.656
 122521797.992 7  95471659.97344  23315101.750                    23315111.734
 111838997.349 8  87147318.664 7  21282251.547                    21282260.051
 106776005.716 8  83202173.127 8  20318777.617                    20318785.914
 113580211.143 8  88504094.108 7  21613584.430                    21613595.934
 113114925.040 8  88141641.44446  21525031.992                    21525038.930
 114044051.293 8  88865554.73345  21701859.773                    21701869.523
 11  8 23  1 56  0.0000000  0  8G26G29G10G12G05G25G02G30
 125755941.023 6  97991712.33343  23930560.570                    23930571.984
 120123750.708 7  93602993.602 6  22858791.313                    22858801.012
 122623616.035 7  95550998.71043  23334477.555                    23334486.984
 111893243.111 8  87189588.090 7  21292574.180                    21292582.992
 106794280.559 8  83216413.281 8  20322255.266                    20322263.309
 113571036.731 8  88496945.206 7  21611838.727                    21611850.133
 113151444.082 8  88170097.85846  21531981.203                    21531988.145
 114046532.780 7  88867488.33245  21702332.422                    21702341.770
 11  8 23  1 56 30.0000000  0  8G26G29G10G12G05G25G02G30
 125661082.487 6  97917796.70043  23912509.523                    23912521.074
 120041021.627 7  93538529.433 6  22843048.820                    22843058.582
 122725631.403 7  95630491.20144  23353890.266                    23353899.609
 111947957.717 8  87232222.847 7  21302985.641                    21302994.832
 106813093.125 8  83231072.441 8  20325834.867                    20325843.516
 113562441.408 8  88490247.542 7  21610203.203                    21610214.590
 113188050.460 8  88198622.31346  21538947.242                    21538953.699
 114049610.019 8  88869886.17145  21702918.102                    21702927.320
 11  8 23  1 57  0.0000000  0  8G26G29G10G12G05G25G02G30
 125566241.867 6  97843895.00843  23894462.680                    23894473.523
 119958339.812 7  93474102.107 7  22827314.453                    22827324.652
 122827841.423 7  95710135.35243  23373339.891                    23373349.762
 112003138.950 7  87275221.204 7  21313486.688                    21313495.566
 106832442.152 8  83246149.619 8  20329517.023                    20329525.574
 113554425.034 8  88484001.001 7  21608677.367                    21608689.141
 113224743.722 8  88227214.48446  21545929.750                    21545936.297
 114053282.162 7  88872747.56245  21703616.320                    21703625.820
 11  8 23  1 57 30.0000000  0  8G26G29G10G12G05G25G02G30
 125471422.784 6  97770010.09843  23876418.539                    23876429.922
 119875707.377 7  93409713.259 7  22811590.133                    22811599.770
 122930243.883 7  95789929.47744  23392826.445                    23392836.023
 112058784.633 8  87318581.471 7  21324075.961                    21324084.461
 106852326.806 8  83261644.169 8  20333300.773                    20333309.727
 113546987.912 8  88478205.841 7  21607262.211                    21607273.414
 113261524.081 7  88255874.51045  21552928.500                    21552935.293
 114057548.794 7  88876072.18645  21704428.516                    21704438.563
 11  8 23  1 58  0.0000000  0  8G26G29G10G12G05G25G02G30
 125376628.485 6  97696144.50944  23858380.094                    23858390.961
 119793125.631 7  93345363.904 6  22795875.438                    22795884.816
 123032835.646 7  95869871.11543  23412349.336                    23412358.316
 112114892.161 7  87362301.624 7  21334752.633                    21334761.512
 106872745.478 8  83277554.844 8  20337185.891                    20337195.199
 113540129.776 8  88472861.835 7  21605957.211                    21605968.707
 113298391.037 8  88284602.02645  21559944.539                    21559950.770
 114062409.064 7  88879859.39545  21705353.414                    21705363.629
 11  8 23  1 58 30.0000000  0  8G26G29G10G12G05G25G02G30
 125281862.280 6  97622300.83443  23840346.320                    23840357.551
 119710596.610 7  93281055.636 6  22780170.273                    22780180.066
 123135613.719 7  95949957.91543  23431907.125                    23431916.258
 112171459.387 7  87406379.983 7  21345517.125                    21345526.250
 106893696.641 8  83293880.446 8  20341173.086                    20341181.918
 113533850.450 8  88467968.858 7  21604762.297                    21604773.625
 113335344.279 8  88313396.78145  21566976.078                    21566982.848
 114067862.041 8  88884108.46345  21706391.078                    21706400.938
 11  8 23  1 59  0.0000000  0  8G26G29G10G12G05G25G02G30
 125187127.655 6  97548481.70843  23822318.633                    23822330.023
 119628121.993 7  93216789.760 6  22764475.914                    22764485.781
 123238575.237 6  96030187.68043  23451500.109                    23451508.891
 112228484.307 7  87450814.970 7  21356368.641                    21356377.934
 106915178.974 8  83310619.940 8  20345261.086                    20345269.852
 113528149.951 8  88463526.910 7  21603677.508                    21603689.406
 113372383.526 8  88342258.54745  21574024.336                    21574031.473
 114073907.207 8  88888818.99345  21707541.523                    21707551.293
 11  8 23  1 59 30.0000000  0  8G26G29G10G12G05G25G02G30
 125092427.731 6  97474689.66743  23804297.898                    23804309.355
 119545703.655 7  93152567.742 7  22748792.258                    22748802.203
 123341717.397 6  96110558.21743  23471127.344                    23471136.730
 112285964.441 7  87495604.691 7  21367306.508                    21367315.969
 106937190.738 8  83327771.978 8  20349449.461                    20349458.410
 113523027.943 8  88459535.757 7  21602702.531                    21602714.594
 113409508.819 8  88371187.35545  21581088.758                    21581095.754
 114080543.440 7  88893990.08345  21708804.242                    21708814.285
 11  8 23  2  0  0.0000000  0  8G26G29G10G12G05G25G02G30
 124997766.228 6  97400927.54643  23786284.523                    23786295.363
 119463343.193 7  93088390.807 7  22733119.727                    22733128.895
 123445037.948 7  96191067.74043  23490788.070                    23490798.004
 112343897.386 7  87540747.242 7  21378330.719                    21378339.918
 106959731.122 8  83345335.928 8  20353738.922                    20353747.629
 113518484.498 8  88455995.416 7  21601838.234                    21601849.563
 113446720.063 8  88400183.15246  21588170.359                    21588177.387
 114087770.220 8  88899621.35045  21710179.398                    21710189.324
 11  8 23  2  0 30.0000000  0  8G26G29G10G12G05G25G02G30
 124903146.399 6  97327197.89943  23768278.789                    23768290.066
 119381042.292 7  93024260.283 7  22717457.906                    22717467.770
 123548533.869 7  96271713.92844  23510483.469                    23510492.672
 112402280.858 7  87586240.851 7  21389440.914                    21389449.801
 106982798.260 8  83363310.333 8  20358128.508                    20358137.426
 113514519.208 8  88452905.597 7  21601084.031                    21601095.316
 113484016.564 8  88429245.38346  21595267.641                    21595274.586
 114095586.411 7  88905711.88445  21711666.867                    21711676.527
 11  8 23  2  1  0.0000000  0  8G26G29G10G12G05G25G02G30
 124808571.753 6  97253503.44144  23750282.188                    23750293.082
 119298803.036 7  92960177.804 7  22701807.836                    22701818.098
 123652202.285 7  96352494.50343  23530211.109                    23530220.563
 112461112.344 7  87632083.559 7  21400636.234                    21400645.332
 107006390.786 8  83381694.132 8  20362617.969                    20362626.590
 113511131.870 7  88450266.124 7  21600438.859                    21600450.887
 113521398.263 8  88458374.00446  21602381.078                    21602388.332
 114103991.242 8  88912261.11245  21713266.258                    21713275.992
 11  8 23  2  1 30.0000000  0  9G26G15G29G10G12G05G25G02G30
 124714045.587 6  97179846.77744  23732294.070                    23732304.535
 129457710.93416 100876210.37316  24634987.617                    24634999.707
 119216626.806 7  92896144.438 7  22686170.828                    22686180.555
 123756040.818 7  96433407.64643  23549971.008                    23549980.012
 112520389.578 8  87678273.600 7  21411916.602                    21411925.336
 107030507.260 8  83400486.198 8  20367207.414                    20367216.328
 113508322.363 8  88448076.914 7  21599904.594                    21599915.926
 113558865.150 8  88487568.98646  21609510.844                    21609518.125
 114112983.847 7  88919268.35545  21714977.039                    21714987.109
 11  8 23  2  2  0.0000000  0  9G26G15G29G10G12G05G25G02G30
 124619571.161 6  97106230.45644  23714316.938                    23714327.336
 129364964.486 5 100803940.593 6  24617338.523                    24617351.375
 119134515.384 7  92832161.560 7  22670545.859                    22670555.125
 123860046.162 7  96514450.76143  23569762.570                    23569771.223
 112580110.036 8  87724809.008 7  21423280.891                    21423289.754
 107055145.756 8  83419685.044 8  20371895.727                    20371904.559
 113506089.911 8  88446337.367 7  21599479.680                    21599490.891
 113596416.597 8  88516829.87046  21616656.813                    21616663.363
 114122562.779 7  88926732.48445  21716800.469                    21716809.801
 11  8 23  2  2 30.0000000  0  9G26G15G29G10G12G05G25G02G30
 124525151.915 6  97032657.08444  23696349.008                    23696359.707
 129272084.417 6 100731566.710 6  24599664.242                    24599676.434
 119052470.717 7  92768230.692 7  22654932.445                    22654942.633
 123964215.715 6  96595621.84543  23589584.594                    23589594.582
 112640271.040 8  87771687.704 7  21434729.063                    21434738.125
 107080304.737 8  83439289.452 8  20376683.438                    20376691.988
 113504434.402 8  88445047.381 7  21599164.523                    21599175.934
 113634052.507 8  88546156.56346  21623818.531                    21623825.246
 114132727.276 7  88934652.90445  21718734.188                    21718743.766
 11  8 23  2  3  0.0000000  0  9G26G15G29G10G12G05G25G02G30
 124430791.724 6  96959129.75843  23678392.508                    23678403.516
 129179073.092 6 100659090.509 6  24581964.711                    24581977.148
 118970494.778 7  92704353.368 7  22639333.219                    22639343.336
 124068547.023 6  96676918.95143  23609438.492                    23609447.789
 112700870.731 7  87818908.233 7  21446261.086                    21446270.164
 107105983.041 8  83459298.531 8  20381569.820                    20381578.188
 113503355.654 8  88444206.809 7  21598959.219                    21598970.777
 113671772.753 7  88575548.98446  21630996.422                    21631003.129
 114143476.476 8  88943028.93545  21720780.250                    21720789.410
 11  8 23  2  3 30.0000000  0  9G26G15G29G10G12G05G25G02G30
 124336493.662 6  96885650.83743  23660448.008                    23660458.852
 129085933.069 6 100586514.039 6  24564240.852                    24564253.094
 118888589.106 7  92640530.811 7  22623747.516                    22623757.078
 124173037.466 6  96758340.07743  23629322.195                    23629331.711
 112761906.759 7  87866468.760 7  21457875.688                    21457884.520
 107132178.789 8  83479710.810 8  20386554.891                    20386563.012
 113502853.181 8  88443815.281 7  21598863.555                    21598875.340
 113709577.268 8  88605007.05245  21638190.313                    21638197.402
 114154809.191 7  88951859.63745  21722936.281                    21722946.105
 11  8 23  2  4  0.0000000  0  9G26G15G29G10G12G05G25G02G30
 124242261.223 7  96812223.01443  23642516.180                    23642526.520
 128992666.621 6 100513839.071 6  24546491.422                    24546505.367
 118806755.574 7  92576764.459 7  22608174.766                    22608184.504
 124277683.854 6  96839882.71943  23649235.617                    23649245.695
 112823375.613 7  87914366.552 7  21469572.930                    21469581.664
 107158890.215 8  83500524.921 8  20391637.648                    20391645.773
 113502926.486 8  88443872.410 7  21598877.469                    21598888.832
 113747465.694 8  88634530.52445  21645400.117                    21645407.156
 114166724.311 8  88961144.16645  21725203.898                    21725213.461
 11  8 23  2  4 30.0000000  0  9G26G15G29G10G12G05G25G02G30
 124148097.904 6  96738849.08543  23624597.234                    23624608.070
 128899276.618 6 100441067.808 6  24528721.203                    24528733.012
 118724996.031 7  92513055.750 7  22592616.648                    22592625.941
 124382483.846 6  96921545.02243  23669178.148                    23669188.961
 112885275.365 8  87962600.101 7  21481352.078                    21481360.824
 107186116.198 8  83521739.979 8  20396818.445                    20396827.176
 113503575.225 8  88444377.919 7  21599001.016                    21599012.609
 113785437.869 8  88664119.24645  21652626.055                    21652632.953
 114179220.682 8  88970881.61345  21727581.789                    21727590.965
 11  8 23  2  5  0.0000000  0  9G26G15G29G10G12G05G25G02G30
 124054007.292 6  96665531.81944  23606692.336                    23606703.332
 128805765.523 6 100368202.199 6  24510925.836                    24510938.047
 118643312.731 7  92449406.465 7  22577072.594                    22577082.070
 124487434.593 6  97003324.75943  23689150.422                    23689160.270
 112947603.924 7  88011167.794 7  21493212.719                    21493221.719
 107213855.081 8  83543354.714 8  20402097.172                    20402105.813
 113504799.201 8  88445331.668 7  21599233.688                    21599245.422
 113823494.185 8  88693773.53045  21659867.609                    21659874.789
 114192297.512 8  88981071.35845  21730069.922                    21730079.367
 11  8 23  2  5 30.0000000  0  9G26G15G29G10G12G05G25G02G30
 123959992.754 6  96592273.81544  23588802.258                    23588813.043
 128712135.594 6 100295243.980 6  24493109.125                    24493120.563
 118561707.031 7  92385817.637 7  22561543.469                    22561552.703
 124592533.300 6  97085219.80643  23709149.922                    23709159.836
 113010358.215 8  88060067.223 7  21505154.297                    21505163.309
 107242104.785 7  83565367.478 8  20407473.070                    20407481.336
 113506597.529 8  88446732.969 7  21599575.906                    21599587.512
 113861633.919 8  88723492.81945  21667125.539                    21667132.523
 114205953.298 8  88991712.24045  21732668.664                    21732678.379
 11  8 23  2  6  0.0000000  0  9G26G15G29G10G12G05G25G02G30
 123866057.658 6  96519077.72144  23570926.984                    23570937.672
 128618389.367 6 100222195.137 6  24475269.625                    24475281.656
 118480180.888 7  92322290.804 7  22546028.977                    22546038.813
 124697777.410 7  97167228.18443  23729178.008                    23729187.418
 113073535.920 8  88109296.581 7  21517176.719                    21517185.672
 107270863.615 8  83587776.973 8  20412945.016                    20412954.125
 113508969.749 8  88448581.455 7  21600027.688                    21600039.063
 113899856.827 8  88753276.92145  21674399.563                    21674405.914
 114220186.921 8  89002803.37245  21735377.133                    21735386.898
 11  8 23  2  6 30.0000000  0  9G26G15G29G10G12G05G25G02G30
 123772205.535 6  96445946.28243  23553067.289                    23553077.941
 128524529.179 6 100149057.503 6  24457408.203                    24457420.059
 118398736.259 7  92258827.494 7  22530530.680                    22530540.801
 124803164.225 7  97249347.82343  23749231.180                    23749241.008
 113137134.576 8  88158853.949 7  21529278.773                    21529287.801
 107300129.921 8  83610581.905 8  20418514.727                    20418523.027
 113511915.327 8  88450876.702 7  21600588.188                    21600599.789
 113938162.910 8  88783125.83445  21681688.883                    21681695.766
 114234997.138 8  89014343.79345  21738196.063                    21738205.027
 11  8 23  2  7  0.0000000  0  9G26G15G29G10G12G05G25G02G30
 123678440.268 7  96372882.51344  23535223.875                    23535234.902
 128430558.000 6 100075833.383 6  24439525.211                    24439537.566
 118317375.204 7  92195429.306 7  22515048.500                    22515057.828
 124908691.334 7  97331576.69243  23769312.758                    23769322.199
 113201152.005 8  88208737.643 7  21541461.031                    21541470.168
 107329902.602 8  83633781.404 8  20424180.633                    20424189.137
 113515434.097 8  88453618.587 7  21601257.961                    21601269.703
 113976552.258 8  88813039.62546  21688994.094                    21689001.164
 114250383.009 8  89026332.78445  21741123.359                    21741133.113
 11  8 23  2  7 30.0000000  0  9G26G15G29G10G12G05G25G02G30
 123584765.009 7  96299888.89244  23517398.344                    23517409.164
 128336478.445 6 100002524.813 6  24421622.867                    24421634.684
 118236099.417 7  92132097.556 7  22499582.352                    22499592.129
 125014355.706 7  97413912.57943  23789419.570                    23789428.945
 113265584.956 8  88258945.115 7  21553722.609                    21553731.309
 107360179.542 8  83657373.844 8  20429941.945                    20429950.277
 113519525.098 8  88456806.364 7  21602036.352                    21602047.813
 114015024.581 8  88843018.07446  21696315.375                    21696322.070
 114266342.988 8  89038769.10745  21744160.516                    21744169.824
 11  8 23  2  8  0.0000000  0  9G26G15G29G10G12G05G25G02G30
 123491183.131 7  96226968.02644  23499590.258                    23499601.098
 128242292.570 6  99929133.364 5  24403700.500                    24403711.523
 118154910.676 7  92068833.643 7  22484132.352                    22484141.844
 125120154.672 6  97496353.32143  23809552.898                    23809562.000
 113330430.822 8  88309474.336 7  21566062.477                    21566071.609
 107390958.619 8  83681357.547 8  20435799.086                    20435807.410
 113524187.561 8  88460439.458 7  21602923.172                    21602934.820
 114053579.691 7  88873061.02446  21703651.781                    21703658.949
 114282875.644 8  89051651.68345  21747306.500                    21747315.961
 11  8 23  2  8 30.0000000  0  9G26G15G29G10G12G05G25G02G30
 123397698.181 7  96154122.71244  23481800.469                    23481811.078
 128148002.966 6  99855661.088 5  24385757.234                    24385768.336
 118073810.851 7  92005639.021 7  22468699.648                    22468709.336
 125226085.504 6  97578896.79143  23829710.625                    23829720.941
 113395687.212 8  88360323.457 7  21578480.359                    21578489.336
 107422237.954 8  83705731.073 8  20441751.047                    20441759.813
 113529420.961 8  88464517.427 7  21603919.453                    21603930.406
 114092217.284 7  88903168.25145  21711004.492                    21711011.383
 114299979.779 8  89064979.57545  21750561.703                    21750571.203
 11  8 23  2  9  0.0000000  0  9G26G15G29G10G12G05G25G02G30
 123304313.710 7  96081355.67344  23464029.383                    23464041.047
 128053612.417 6  99782110.148 5  24367795.313                    24367805.898
 117992801.754 7  91942515.092 7  22453284.344                    22453294.059
 125332145.666 6  97661541.05243  23849893.695                    23849904.027
 113461351.284 8  88411490.242 7  21590975.867                    21590984.727
 107454016.021 8  83730493.222 8  20447798.344                    20447806.578
 113535224.560 8  88469039.720 7  21605023.906                    21605035.133
 114130937.203 7  88933339.62145  21718372.555                    21718379.098
 114317653.943 8  89078751.63545  21753924.977                    21753934.820
 11  8 23  2  9 30.0000000  0  9G26G15G29G10G12G05G25G02G30
 123211033.188 7  96008669.60944  23446279.273                    23446290.145
 127959123.270 6  99708482.428 5  24349814.141                    24349824.262
 117911885.508 7  91879463.535 7  22437886.688                    22437895.879
 125438332.393 6  97744283.95143  23870100.375                    23870110.414
 113527420.388 8  88462972.638 7  21603548.172                    21603557.227
 107486290.783 8  83755642.398 8  20453939.883                    20453948.234
 113541597.576 8  88474005.710 7  21606236.664                    21606247.992
 114169739.411 7  88963575.11345  21725756.016                    21725762.871
 114335896.705 8  89092966.76645  21757396.852                    21757406.602
 11  8 23  2 10  0.0000000  0  9G26G15G29G10G12G05G25G02G30
 123117860.478 7  95936067.59744  23428549.117                    23428559.871
 127864538.441 6  99634780.133 5  24331815.297                    24331825.984
 117831064.271 7  91816486.000 7  22422506.086                    22422515.883
 125544643.637 6  97827123.86443  23890329.734                    23890340.297
 113593892.785 8  88514769.298 7  21616197.094                    21616206.023
 107519061.294 8  83781177.891 8  20460175.914                    20460184.430
 113548539.779 8  88479415.231 7  21607557.711                    21607569.480
 114208624.441 7  88993875.16545  21733155.234                    21733162.469
 114354707.146 8  89107624.25045  21760975.719                    21760985.617
 11  8 23  2 10 30.0000000  0  9G26G15G29G10G12G05G25G02G30
 123024799.017 7  95863552.25444  23410839.578                    23410850.902
 127769860.602 6  99561005.371 6  24313798.734                    24313809.852
 117750339.996 7  91753584.032 7  22407145.227                    22407154.012
 125651076.410 6  97910058.46043  23910583.930                    23910594.117
 113660765.247 8  88566877.691 7  21628922.961                    21628931.352
 107552325.573 8  83807098.132 8  20466505.406                    20466514.418
 113556050.208 8  88485267.533 7  21608986.594                    21608998.531
 114247591.879 7  89024239.41545  21740570.656                    21740577.625
 114374083.691 8  89122722.84345  21764662.719                    21764672.965
 11  8 23  2 11  0.0000000  0  9G26G15G29G10G12G05G25G02G30
 122931852.353 7  95791126.35244  23393153.180                    23393163.836
 127675092.062 6  99487159.964 6  24295764.758                    24295775.777
 117669714.237 7  91690758.820 7  22391802.516                    22391812.258
 125757627.957 6  97993085.61443  23930860.281                    23930869.891
 113728034.708 7  88619295.437 7  21641723.969                    21641732.684
 107586081.313 8  83833401.329 8  20472929.383                    20472937.828
 113564127.985 8  88491561.926 7  21610524.039                    21610535.688
 114286641.560 7  89054667.73645  21748001.992                    21748008.820
 114394024.789 8  89138261.35545  21768457.227                    21768467.160
 11  8 23  2 11 30.0000000  0  9G26G15G29G10G12G05G25G02G30
 122839023.875 7  95718792.53344  23375488.313                    23375498.523
 127580235.439 6  99413245.914 6  24277714.484                    24277725.563
 117589189.091 7  91628012.035 7  22376478.805                    22376488.496
 125864295.448 7  98076203.09543  23951158.766                    23951167.242
 113795698.810 8  88672020.690 7  21654600.016                    21654609.160
 107620326.320 8  83860085.775 8  20479446.117                    20479454.289
 113572772.207 8  88498297.701 7  21612169.203                    21612180.035
 114325773.024 8  89085159.79045  21755448.250                    21755454.633
 114414528.849 8  89154238.54445  21772359.523                    21772369.125
 11  8 23  2 12  0.0000000  0  9G26G15G29G10G12G05G25G02G30
 122746317.354 6  95646553.77244  23357846.086                    23357857.250
 127485293.680 6  99339265.493 6  24259647.219                    24259658.355
 117508766.678 7  91565345.300 7  22361175.094                    22361184.746
 125971076.808 7  98159409.31143  23971478.266                    23971487.742
 113863755.396 7  88725051.777 7  21667550.555                    21667560.109
 107655059.493 8  83887150.595 8  20486055.461                    20486063.473
 113581982.351 8  88505474.459 7  21613921.461                    21613932.617
 114364986.835 8  89115716.00145  21762910.742                    21762917.000
 114435594.685 8  89170653.48445  21776368.242                    21776378.066
 11  8 23  2 12 30.0000000  0  9G26G15G29G10G12G05G25G02G30
 122653736.322 7  95574412.78844  23340228.852                    23340239.074
 127390269.201 6  99265220.596 6  24241563.875                    24241575.516
 117428448.850 7  91502760.038 7  22345890.914                    22345900.371
 126077969.452 6  98242702.29643  23991818.805                    23991829.402
 113932201.205 7  88778386.147 7  21680575.313                    21680584.402
 107690278.773 8  83914594.203 8  20492757.766                    20492765.969
 113591757.357 8  88513091.365 7  21615781.438                    21615793.359
 114404282.516 8  89146335.99245  21770388.617                    21770394.723
 114457220.563 8  89187504.83545  21780483.766                    21780493.160
 11  8 23  2 13  0.0000000  0  9G26G15G29G10G12G05G25G02G30
 122561283.840 7  95502371.95144  23322635.703                    23322646.453
 127295164.552 6  99191113.226 6  24223465.672                    24223477.367
 117348237.551 7  91440257.815 7  22330626.867                    22330636.676
 126184970.338 6  98326079.57243  24012180.758                    24012190.996
 114001033.307 7  88832021.542 7  21693673.625                    21693682.797
 107725981.607 8  83942414.617 8  20499551.570                    20499560.168
 113602096.148 8  88521147.592 7  21617748.641                    21617760.438
 114443660.096 8  89177019.81345  21777881.938                    21777887.934
 114479404.744 8  89204791.21345  21784704.648                    21784714.309
 11  8 23  2 13 30.0000000  0  9G26G15G29G10G12G05G25G02G30
 122468964.167 7  95430434.63144  23305067.359                    23305078.156
 127199982.502 6  99116945.530 6  24205353.023                    24205364.699
 117268134.751 7  91377840.123 7  22315383.961                    22315393.352
 126292077.321 6  98409539.62143  24032562.320                    24032572.188
 114070249.272 7  88885956.046 7  21706844.859                    21706854.000
 107762166.887 7  83970610.960 8  20506437.258                    20506445.773
 113612998.155 8  88529642.678 7  21619823.625                    21619835.070
 114483119.679 7  89207767.51845  21785390.875                    21785396.719
 114502146.029 8  89222511.70945  21789032.133                    21789041.922
 11  8 23  2 14  0.0000000  0  9G26G15G29G10G12G05G25G02G30
 122376780.696 7  95358603.40244  23287526.047                    23287535.922
 127104725.695 6  99042719.558 6  24187226.836                    24187237.820
 117188142.707 7  91315508.727 7  22300162.031                    22300171.477
 126399287.703 6  98493080.20043  24052964.289                    24052973.633
 114139846.484 7  88940187.623 7  21720089.125                    21720098.105
 107798832.499 7  83999181.574 8  20513414.555                    20513422.910
 113624462.491 8  88538575.959 7  21622004.992                    21622016.512
 114522661.418 7  89238579.25145  21792914.930                    21792921.148
 114525442.788 8  89240665.04145  21793465.570                    21793475.031
 11  8 23  2 14 30.0000000  0  9G26G15G29G10G12G05G25G02G30
 122284736.554 7  95286880.76644  23270009.945                    23270020.629
 127009396.504 7  98968437.189 6  24169086.078                    24169096.734
 117108263.107 7  91253264.949 7  22284961.250                    22284971.230
 126506598.487 6  98576698.98243  24073384.781                    24073394.188
 114209821.920 7  88994713.925 7  21733404.641                    21733413.391
 107835975.698 8  84028124.345 8  20520482.367                    20520490.570
 113636487.670 8  88547946.258 7  21624292.969                    21624305.094
 114562284.537 7  89269454.39745  21800454.977                    21800462.016
 114549293.038 8  89259249.66945  21798004.305                    21798013.488
 11  8 23  2 15  0.0000000  0  9G26G15G29G10G12G05G25G02G30
 122192836.042 7  95215270.06144  23252521.805                    23252532.508
 126913997.988 6  98894100.784 6  24150932.617                    24150943.328
 117028498.270 7  91191110.617 7  22269782.563                    22269792.332
 126614007.577 7  98660394.37943  24093824.141                    24093833.207
 114280173.253 7  89049533.124 7  21746792.570                    21746801.469
 107873595.546 7  84057438.521 8  20527641.383                    20527649.836
 113649073.271 8  88557753.233 7  21626688.211                    21626699.391
 114601989.763 7  89300393.51445  21808010.852                    21808017.680
 114573695.583 8  89278264.66045  21802647.656                    21802657.172
 11  8 23  2 15 30.0000000  0  9G26G15G29G10G12G05G25G02G30
 122101082.212 7  95143773.65044  23235062.273                    23235072.293
 126818532.523 6  98819712.280 6  24132765.930                    24132776.609
 116948849.813 7  91129046.959 7  22254625.523                    22254635.203
 126721512.242 6  98744164.22943  24114281.961                    24114291.074
 114350897.044 7  89104642.547 7  21760250.898                    21760259.246
 107911689.240 8  84087121.927 8  20534890.680                    20534898.836
 113662217.865 8  88567995.795 7  21629189.438                    21629200.629
 114641776.419 7  89331396.09845  21815581.820                    21815588.480
 114598648.355 8  89297708.39545  21807396.086                    21807405.383
 11  8 23  2 16  0.0000000  0  9G26G15G29G10G12G05G25G02G30
 122009478.737 7  95072394.38744  23217630.133                    23217640.555
 126723003.510 6  98745274.221 6  24114586.734                    24114598.230
 116869320.017 7  91067075.757 7  22239491.828                    22239501.668
 126829110.137 6  98828006.71043  24134756.797                    24134766.098
 114421990.889 7  89160040.345 7  21773779.445                    21773787.820
 107950255.524 8  84117173.591 8  20542229.578                    20542237.613
 113675920.715 8  88578673.374 7  21631796.852                    21631808.555
 114681644.942 7  89362462.47345  21823168.414                    21823175.254
 114624149.888 7  89317579.73945  21812248.703                    21812258.723
 11  8 23  2 16 30.0000000  0  9G26G15G29G10G12G05G25G02G30
 121918029.556 7  95001135.35244  23200227.859                    23200238.926
 126627412.922 6  98670788.187 6  24096396.633                    24096408.141
 116789910.972 7  91005198.650 7  22224381.039                    22224390.523
 126936798.749 6  98911919.84843  24155248.781                    24155257.930
 114493452.245 7  89215724.488 7  21787378.211                    21787386.777
 107989292.120 8  84147591.723 8  20549657.750                    20549666.027
 113690180.774 8  88589785.130 7  21634510.766                    21634522.344
 114721595.575 8  89393592.83245  21830770.875                    21830777.840
 114650198.554 7  89337877.41845  21817205.281                    21817215.254
 11  8 23  2 17  0.0000000  0  9G26G15G29G10G12G05G25G02G30
 121826737.977 7  94929999.13144  23182855.984                    23182865.891
 126531763.549 6  98596256.330 6  24078194.680                    24078206.098
 116710624.486 7  90943417.042 7  22209293.055                    22209302.340
 127044575.607 6  98995901.81243  24175757.891                    24175767.797
 114565278.049 7  89271692.629 7  21801046.211                    21801055.082
 108028796.905 8  84178374.686 8  20557174.703                    20557183.633
 113704996.745 8  88601330.059 7  21637330.164                    21637341.363
 114761627.583 8  89424786.59845  21838388.828                    21838395.457
 114676792.374 7  89358599.88945  21822266.539                    21822275.953
 11  8 23  2 17 30.0000000  0  9G26G15G29G10G12G05G25G02G30
 121735607.806 7  94858988.68844  23165514.234                    23165524.422
 126436058.587 6  98521681.143 6  24059982.461                    24059993.379
 116631463.014 7  90881732.829 7  22194229.297                    22194238.293
 127152438.226 6  99079950.59243  24196283.344                    24196293.984
 114637465.658 7  89327942.708 7  21814782.680                    21814791.977
 108068768.289 8  84209521.238 8  20564781.828                    20564790.398
 113720367.903 8  88613307.604 7  21640254.914                    21640266.172
 114801741.823 8  89456044.44245  21846022.375                    21846029.379
 114703929.993 7  89379746.10445  21827430.500                    21827440.051
 11  8 23  2 18  0.0000000  0  9G26G15G29G10G12G05G25G02G30
 121644642.390 7  94788106.60844  23148204.336                    23148214.051
 126340300.282 6  98447064.451 6  24041760.164                    24041771.699
 116552428.131 7  90820147.268 7  22179189.258                    22179198.574
 127260383.872 6  99164064.10143  24216824.945                    24216835.090
 114710012.221 7  89384472.472 7  21828588.297                    21828597.109
 108109203.610 8  84241029.302 8  20572476.117                    20572484.688
 113736292.540 8  88625716.420 7  21643285.344                    21643296.539
 114841937.890 7  89487366.05645  21853671.781                    21853678.387
 114731609.064 7  89401314.21345  21832697.797                    21832706.980
 11  8 23  2 18 30.0000000  0  9G26G15G29G10G12G05G25G02G30
 121553845.493 7  94717355.86144  23130926.555                    23130936.379
 126244491.174 7  98372408.081 6  24023528.875                    24023539.836
 116473522.241 7  90758662.210 7  22164173.836                    22164183.395
 127368410.067 7  99248240.35743  24237381.477                    24237392.070
 114782914.461 7  89441279.400 7  21842461.070                    21842470.180
 108150100.835 8  84272897.286 8  20580258.445                    20580267.352
 113752769.746 8  88638555.809 7  21646420.664                    21646432.648
 114882215.561 7  89518751.26245  21861336.039                    21861342.852
 114759828.072 7  89423303.06045  21838067.539                    21838077.051
 11  8 23  2 19  0.0000000  0  9G26G15G29G10G12G05G25G02G30
 121463220.922 7  94646739.38844  23113680.992                    23113691.113
 126148634.468 7  98297714.639 6  24005287.602                    24005298.488
 116394747.333 7  90697279.203 7  22149183.430                    22149192.313
 127476514.428 7  99332477.53043  24257954.461                    24257963.211
 114856170.210 7  89498361.785 7  21856401.203                    21856409.984
 108191458.295 8  84305123.882 8  20588128.203                    20588136.652
 113769798.444 8  88651824.940 7  21649661.047                    21649673.109
 114922575.010 7  89550200.19145  21869016.141                    21869022.855
 114788585.191 8  89445711.22745  21843539.984                    21843549.789
 11  8 23  2 19 30.0000000  0  9G26G15G29G10G12G05G25G02G30
 121372772.170 7  94576259.91544  23096468.406                    23096479.031
 126052733.073 7  98222986.424 6  23987037.992                    23987048.742
 116316105.375 7  90635999.800 7  22134218.180                    22134227.668
 127584694.149 6  99416773.39943  24278539.617                    24278548.871
 114929776.276 7  89555717.146 7  21870407.875                    21870417.109
 108233273.660 8  84337707.309 8  20596085.711                    20596094.188
 113787377.410 8  88665522.833 7  21653006.508                    21653017.977
 114963016.451 7  89581712.99845  21876711.945                    21876718.539
 114817878.602 8  89468537.26945  21849114.563                    21849124.012
 11  8 23  2 20  0.0000000  0  9G26G15G29G10G12G05G25G02G30
 121282502.775 7  94505920.19244  23079290.734                    23079301.168
 125956789.332 7  98148225.179 6  23968780.297                    23968791.250
 116237598.762 7  90574825.856 7  22119279.031                    22119287.965
 127692947.168 6  99501126.40543  24299139.516                    24299148.902
 115003730.001 7  89613343.405 7  21884481.117                    21884490.023
 108275544.955 8  84370645.992 8  20604129.664                    20604138.148
 113805505.327 8  88679648.482 7  21656455.742                    21656467.770
 115003539.647 7  89613289.53145  21884423.102                    21884429.594
 114847706.293 7  89491779.63845  21854790.664                    21854800.168
 11  8 23  2 20 30.0000000  0  9G26G15G29G10G12G05G25G02G30
 121192416.636 7  94435723.26344  23062147.773                    23062158.137
 125860806.107 7  98073433.148 6  23950515.242                    23950526.180
 116159229.388 7  90513758.837 7  22104365.953                    22104374.844
 127801270.932 6  99585534.50142  24319752.883                    24319762.785
 115078028.249 8  89671238.123 7  21898618.906                    21898628.148
 108318270.041 8  84403938.281 8  20612260.063                    20612268.688
 113824181.028 8  88694200.972 7  21660010.164                    21660021.492
 115044145.001 7  89644930.08545  21892149.969                    21892156.395
 114878066.510 8  89515436.95745  21860567.500                    21860577.258
 11  8 23  2 21  0.0000000  0  9G26G15G29G10G12G05G25G02G30
 121102517.087 7  94365671.73144  23045040.555                    23045050.477
 125764786.566 7  97998612.897 6  23932243.258                    23932254.480
 116080999.378 7  90452800.422 7  22089479.039                    22089488.859
 127909662.893 5  99669995.72843  24340377.930                    24340389.598
 115152668.674 7  89729399.462 7  21912822.914                    21912832.113
 108361446.770 7  84437582.512 8  20620476.125                    20620484.879
 113843403.205 8  88709179.287 7  21663667.977                    21663679.645
 115084832.410 7  89676634.59145  21899892.516                    21899899.051
 114908957.349 8  89539507.74345  21866446.188                    21866455.410
 11  8 23  2 21 30.0000000  0  9G26G15G29G10G12G05G25G02G30
 121012808.265 7  94295768.80944  23027969.477                    23027979.816
 125668733.413 7  97923766.381 6  23913965.063                    23913975.723
 116002911.324 7  90391952.617 7  22074619.531                    22074628.238
 128018120.87415  99754508.43052  24361017.320                    24361028.227
 115227648.195 8  89787825.032 7  21927091.102                    21927099.875
 108405073.547 7  84471577.422 8  20628778.453                    20628786.531
 113863170.855 8  88724582.648 7  21667429.586                    21667440.723
 115125602.101 7  89708403.19045  21907650.766                    21907657.477
 114940377.078 7  89563990.65145  21872425.031                    21872434.246
 11  8 23  2 22  0.0000000  0  9G26G15G29G10G12G05G25G02G30
 120923293.630 7  94226017.19144  23010935.805                    23010945.824
 125572649.356 7  97848895.797 6  23895680.922                    23895691.438
 115924966.868 7  90331216.703 7  22059786.906                    22059796.348
 128126642.631 5  99839070.80442  24381668.063                    24381679.176
 115302963.858 7  89846512.541 7  21941423.078                    21941432.211
 108449148.071 8  84505921.221 8  20637165.203                    20637173.563
 113883482.578 8  88740409.954 7  21671294.938                    21671306.012
 115166454.334 7  89740236.11145  21915424.414                    21915431.043
 114972323.732 7  89588884.14745  21878503.898                    21878513.895
 11  8 23  2 22 30.0000000  0  9G26G15G29G10G12G05G25G02G30
 120833976.587 7  94156419.53044  22993938.992                    22993949.359
 125476536.596 6  97774002.859 6  23877390.680                    23877401.383
 115847168.142 7  90270594.354 7  22044982.680                    22044991.898
 128235225.505 6  99923680.82642  24402331.250                    24402341.867
 115378613.106 7  89905459.998 7  21955818.945                    21955827.625
 108493667.667 8  84540611.823 8  20645637.023                    20645645.371
 113904336.663 8  88756659.888 7  21675263.031                    21675274.781
 115207388.617 8  89772132.96845  21923214.398                    21923220.906
 115004794.929 7  89614186.37945  21884683.336                    21884693.035
 11  8 23  2 23  0.0000000  0  9G26G15G29G10G12G05G25G02G30
 120744860.523 7  94086978.47144  22976980.828                    22976990.852
 125380398.174 6  97699089.921 6  23859096.891                    23859106.543
 115769516.943 7  90210086.954 7  22030205.984                    22030215.043
 128343866.606 6 100008336.23342  24423004.875                    24423015.770
 115454591.800 7  89964664.156 7  21970276.914                    21970286.207
 108538629.794 8  84575647.268 8  20654193.141                    20654201.617
 113925731.494 8  88773331.176 7  21679334.195                    21679345.922
 115248405.130 8  89804093.87345  21931019.688                    21931026.090
 115037788.519 8  89639895.67345  21890961.523                    21890971.398
 11  8 23  2 23 30.0000000  0  9G26G15G29G10G12G05G25G02G30
 120655949.229 7  94017696.98444  22960061.578                    22960071.688
 125284237.024 6  97624159.257 6  23840797.805                    23840808.301
 115692015.672 7  90149696.383 7  22015457.789                    22015467.047
 128452563.807 6 100093035.32642  24443690.563                    24443699.184
 115530897.597 8  90024123.198 7  21984797.539                    21984806.785
 108584032.481 8  84611025.996 8  20662832.805                    20662841.352
 113947665.909 8  88790422.929 7  21683508.195                    21683519.750
 115289503.433 7  89836118.52745  21938840.258                    21938846.676
 115071302.553 8  89666010.49845  21897339.484                    21897348.973
 11  8 23  2 24  0.0000000  0  9G26G15G29G10G12G05G25G02G30
 120567246.789 7  93948578.22444  22943182.438                    22943192.016
 125188056.070 6  97549213.173 6  23822494.375                    23822505.570
 115614666.888 7  90089424.645 7  22000739.211                    22000747.941
 128561314.774 6 100177776.28543  24464385.172                    24464393.160
 115607527.981 8  90083835.160 7  21999379.820                    21999388.855
 108629874.309 8  84646746.904 8  20671556.266                    20671564.527
 113970138.754 8  88807934.233 7  21687784.898                    21687796.738
 115330684.653 7  89868207.78145  21946676.883                    21946683.223
 115105335.303 8  89692529.51545  21903815.844                    21903825.012
 11  8 23  2 24 30.0000000  0  9G26G15G29G10G12G05G25G02G30
 120478756.069 7  93879624.44944  22926342.594                    22926352.660
 125091857.946 6  97474253.755 6  23804188.703                    23804199.645
 115537472.109 7  90029272.914 7  21986049.117                    21986058.328
 128670117.010 6 100262557.37443  24485089.258                    24485097.934
 115684479.366 8  90143797.253 7  22014023.070                    22014032.043
 108676152.084 8  84682807.526 7  20680362.586                    20680371.027
 113993147.949 8  88825863.462 7  21692163.461                    21692175.332
 115371947.983 7  89900361.02945  21954528.641                    21954535.031
 115139884.122 8  89719450.66745  21910390.188                    21910399.766
 11  8 23  2 25  0.0000000  0  9G26G15G29G10G12G05G25G02G30
 120390481.847 7  93810839.36944  22909544.977                    22909554.613
 124995646.079 7  97399283.604 6  23785879.945                    23785890.758
 115460434.207 7  89969243.436 7  21971389.023                    21971398.238
 128778968.115 6 100347376.42443  24505802.398                    24505811.477
 115761749.830 8  90204007.981 7  22028727.547                    22028736.184
 108722864.631 8  84719206.922 8  20689251.719                    20689260.129
 114016692.880 8  88844210.150 7  21696643.977                    21696655.086
 115413294.383 7  89932579.01145  21962396.313                    21962403.617
 115174947.753 8  89746772.97645  21917062.500                    21917071.660
 11  8 23  2 25 30.0000000  0  9G26G15G29G10G12G05G25G02G30
 120302427.197 7  93742225.38944  22892787.992                    22892798.219
 124899422.718 7  97324304.470 6  23767569.188                    23767580.055
 115383555.046 8  89909337.649 7  21956759.750                    21956769.266
 128887866.043 6 100432231.98343  24526525.070                    24526533.633
 115839336.068 8  90264464.783 7  22043491.758                    22043500.379
 108770009.403 8  84755943.119 8  20698223.242                    20698231.629
 114040771.738 8  88862972.886 7  21701226.133                    21701237.191
 115454723.703 7  89964861.60145  21970280.164                    21970287.234
 115210523.759 7  89774494.54045  21923831.789                    21923841.477
 11  8 23  2 26  0.0000000  0  9G26G15G29G10G12G05G25G02G30
 120214595.614 7  93673785.25144  22876074.422                    22876084.699
 124803190.908 7  97249318.772 6  23749257.016                    23749267.266
 115306836.613 7  89849557.125 7  21942160.453                    21942169.551
 128996808.547 6 100517122.27843  24547256.227                    24547264.918
 115917234.860 7  90325165.121 7  22058315.570                    22058324.348
 108817584.005 8  84793014.252 8  20707276.023                    20707284.406
 114065382.840 8  88882150.376 7  21705909.289                    21705920.484
 115496235.779 7  89997208.67345  21978179.570                    21978187.289
 115246609.881 8  89802613.58045  21930699.484                    21930708.547
 11  8 23  2 26 30.0000000  0  9G26G15G29G10G12G05G25G02G30
 120126991.086 7  93605522.03144  22859404.258                    22859414.070
 124706953.551 7  97174328.747 6  23730943.078                    23730954.219
 115230281.311 7  89789903.706 7  21927592.563                    21927601.273
 129105793.077 6 100602045.27143  24567994.750                    24568004.160
 115995443.521 7  90386106.910 7  22073198.273                    22073206.875
 108865586.328 8  84830418.656 8  20716410.992                    20716419.258
 114090524.793 8  88901741.511 7  21710693.656                    21710705.211
 115537831.067 7  90029620.56445  21986095.445                    21986102.316
 115283204.093 7  89831128.54645  21937662.742                    21937672.223
 11  8 23  2 27  0.0000000  0  9G26G15G29G10G12G05G25G02G30
 120039618.182 7  93537439.29244  22842777.102                    22842787.230
 124610714.370 7  97099337.319 6  23712629.438                    23712640.352
 115153892.141 7  89730379.750 7  21913055.797                    21913065.129
 129214818.054 6 100686999.79443  24588741.820                    24588750.566
 116073959.790 8  90447288.404 7  22088139.047                    22088148.094
 108914014.944 8  84868155.244 8  20725626.766                    20725634.781
 114116196.882 8  88921745.741 7  21715578.672                    21715590.352
 115579510.465 7  90062098.02145  21994026.313                    21994033.438
 115320305.084 7  89860038.41545  21944722.555                    21944732.266
 11  8 23  2 27 30.0000000  0  8G26G15G29G12G05G25G02G30
 119952481.045 7  93469540.26344  22826195.883                    22826205.527
 124514476.598 7  97024346.953 6  23694316.102                    23694327.145
 115077671.724 7  89670987.284 7  21898551.586                    21898560.762
 116152781.402 8  90508707.820 7  22103138.531                    22103147.316
 108962868.260 8  84906222.766 7  20734922.563                    20734931.238
 114142398.096 8  88942162.277 7  21720564.797                    21720576.012
 115621274.725 7  90094641.58745  22001973.711                    22001980.762
 115357911.169 8  89889341.85745  21951879.297                    21951888.555
 11  8 23  2 28  0.0000000  0  9G26G15G29G12G05G25G02G30G21
 119865580.772 7  93401825.80044  22809659.008                    22809668.852
 124418240.936 6  96949358.223 6  23676003.352                    23676013.750
 115001620.220 7  89611726.451 7  21884079.313                    21884088.758
 116231902.975 8  90570360.974 7  22118194.836                    22118204.266
 109012141.397 8  84944617.419 7  20744299.414                    20744307.371
 114169124.452 8  88962988.012 7  21725650.258                    21725662.324
 115663121.398 7  90127249.39145  22009936.992                    22009944.418
 115396017.767 8  89919035.30945  21959129.969                    21959139.672
 132153639.53615 102976923.18152  25148007.219                    25148017.258
 11  8 23  2 28 30.0000000  0  9G26G15G29G12G05G25G02G30G21
 119778921.228 7  93334298.92944  22793167.992                    22793178.316
 124322010.167 7  96874373.304 6  23657690.539                    23657701.270
 114925739.572 8  89552598.747 7  21869640.391                    21869649.234
 116311321.814 7  90632245.762 7  22133307.516                    22133316.805
 109061832.316 8  84983337.616 8  20753755.117                    20753763.586
 114196374.306 8  88984221.672 7  21730836.023                    21730847.727
 115705050.884 7  90159921.70045  22017916.266                    22017923.168
 115434622.717 7  89949117.08945  21966476.172                    21966486.086
 132097816.672 6 102933425.01742  25137384.078                    25137394.898
 11  8 23  2 29  0.0000000  0  9G26G15G29G12G05G25G02G30G21
 119692506.940 7  93266963.18944  22776724.563                    22776734.504
 124225788.385 7  96799395.375 6  23639380.133                    23639390.695
 114850033.026 8  89493606.710 7  21855233.484                    21855242.445
 116391035.394 7  90694360.226 7  22148476.609                    22148485.875
 109111939.830 8  85022382.436 7  20763290.180                    20763298.203
 114224146.929 8  89005862.673 7  21736120.586                    21736132.070
 115747064.129 8  90192659.28845  22025911.195                    22025917.785
 115473724.699 7  89979586.16645  21973917.852                    21973927.219
 132041999.493 5 102889931.24042  25126761.383                    25126773.309
 11  8 23  2 29 30.0000000  0  9G26G15G29G12G05G25G02G30G21
 119606341.592 7  93199821.41344  22760327.523                    22760337.477
 124129578.143 6  96724426.437 6  23621072.219                    23621082.344
 114774502.814 7  89434752.058 7  21840860.234                    21840869.375
 116471040.722 8  90756702.010 7  22163701.242                    22163710.074
 109162461.090 8  85061749.660 7  20772904.227                    20772912.527
 114252440.532 8  89027909.637 7  21741504.852                    21741516.527
 115789161.099 8  90225462.12845  22033922.172                    22033928.465
 115513321.222 8  90010440.59845  21981452.297                    21981462.074
 131986187.262 5 102846441.25142  25116141.406                    25116152.121
 11  8 23  2 30  0.0000000  0  9G26G15G29G12G05G25G02G30G21
 119520429.233 7  93132876.77444  22743978.320                    22743988.969
 124033382.506 6  96649468.864 6  23602766.391                    23602776.449
 114699151.662 8  89376036.951 7  21826521.414                    21826530.652
 116551335.372 7  90819269.251 7  22178980.836                    22178989.941
 109213394.509 8  85101438.037 7  20782596.328                    20782604.617
 114281253.703 8  89050361.467 7  21746988.219                    21746999.285
 115831342.318 7  90258330.59845  22041949.414                    22041955.402
 115553410.432 7  90041678.95745  21989081.633                    21989090.859
 131930379.657 5 102802954.92342  25105520.930                    25105532.758
 11  8 23  2 30 30.0000000  0  9G26G15G29G12G05G25G02G30G21
 119434772.648 7  93066131.42644  22727679.188                    22727689.105
 123937204.234 6  96574524.832 6  23584464.719                    23584474.543
 114623980.394 8  89317462.004 7  21812217.203                    21812226.059
 116631915.452 7  90882058.911 7  22194314.102                    22194323.648
 109264736.806 8  85141445.024 8  20792366.313                    20792374.938
 114310584.292 8  89073216.474 7  21752569.555                    21752580.895
 115873607.635 7  90291264.60445  22049991.672                    22049997.926
 115593989.520 7  90073299.03645  21996803.516                    21996812.930
 131874575.611 5 102759471.38242  25094901.273                    25094913.730
 11  8 23  2 31  0.0000000  0  9G26G15G29G12G05G25G02G30G21
 119349376.425 7  92999588.96444  22711428.531                    22711438.828
 123841046.587 6  96499596.883 6  23566166.281                    23566176.383
 114548992.519 7  89259029.962 7  21797947.086                    21797955.969
 116712778.895 7  90945069.360 7  22209702.281                    22209711.371
 109316486.718 8  85181769.642 8  20802214.297                    20802222.414
 114340431.081 8  89096473.732 7  21758249.281                    21758260.559
 115915957.802 7  90324264.72545  22058050.805                    22058057.297
 115635056.639 7  90105299.40945  22004617.773                    22004628.082
 131818774.570 5 102715990.19442  25084282.109                    25084295.363
 11  8 23  2 31 30.0000000  0  9G26G15G29G12G05G25G02G30G21
 119264243.897 7  92933251.98444  22695228.586                    22695238.148
 123744912.525 6  96424687.302 6  23547872.695                    23547882.320
 114474189.940 7  89200742.300 7  21783712.414                    21783721.574
 116793922.194 7  91008297.869 7  22225143.438                    22225152.863
 109368641.565 8  85222409.791 7  20812138.578                    20812147.449
 114370791.978 8  89120131.595 7  21764026.617                    21764038.227
 115958392.625 7  90357330.79845  22066126.063                    22066132.145
 115676609.196 7  90137678.02445  22012525.352                    22012534.371
 131762976.254 6 102672511.08442  25073664.852                    25073677.598
 11  8 23  2 32  0.0000000  0  9G26G15G29G12G05G25G02G30G21
 119179378.499 7  92867123.15644  22679078.555                    22679088.996
 123648804.237 7  96349797.838 6  23529583.523                    23529593.738
 114399574.569 7  89142600.495 7  21769513.453                    21769522.063
 116875342.164 7  91071741.983 7  22240637.258                    22240646.633
 109421198.573 8  85263363.301 8  20822140.039                    20822148.629
 114401664.944 8  89144188.456 7  21769901.320                    21769912.797
 116000912.142 7  90390462.91745  22074216.992                    22074223.363
 115718644.466 7  90170432.80145  22020524.547                    22020533.758
 131707179.493 6 102629033.24642  25063047.656                    25063058.211
 11  8 23  2 32 30.0000000  0  9G26G15G29G12G05G25G02G30G21
 119094784.135 7  92801205.50145  22662981.508                    22662991.309
 123552725.286 7  96274931.208 6  23511300.180                    23511310.387
 114325149.083 7  89084606.665 7  21755350.547                    21755360.160
 116957036.195 7  91135399.647 7  22256182.992                    22256191.895
 109474155.841 8  85304628.702 7  20832217.836                    20832226.441
 114433048.495 8  89168643.175 7  21775873.555                    21775885.004
 116043516.545 7  90423661.16545  22082323.844                    22082330.680
 115761160.486 7  90203562.18145  22028614.914                    22028624.234
 131651384.143 6 102585556.46742  25052430.641                    25052440.867
 11  8 23  2 33  0.0000000  0  9G26G15G29G12G05G25G02G30G21
 119010464.551 7  92735501.97644  22646935.906                    22646945.785
 123456678.542 7  96200089.672 6  23493023.242                    23493032.680
 114250915.641 7  89026762.461 7  21741225.172                    21741234.035
 117039001.121 7  91199268.392 7  22271780.617                    22271788.918
 109527511.214 8  85346204.321 7  20842370.781                    20842379.379
 114464941.006 8  89193494.490 7  21781942.234                    21781954.168
 116086206.392 7  90456925.99445  22090447.398                    22090454.277
 115804155.102 7  90237064.47845  22036796.508                    22036805.820
 131595589.822 5 102542080.45742  25041811.805                    25041823.246
 11  8 23  2 33 30.0000000  0  9G26G15G29G12G05G25G02G30G21
 118926423.511 7  92670015.49844  22630943.227                    22630953.375
 123360667.132 7  96125275.681 6  23474752.555                    23474763.035
 114176876.858 8  88969069.939 7  21727135.602                    21727144.750
 117121234.201 7  91263346.085 6  22287429.281                    22287437.223
 109581262.232 8  85388088.241 7  20852599.289                    20852607.512
 114497340.610 8  89218740.933 7  21788108.141                    21788119.664
 116128981.810 7  90490257.51545  22098587.648                    22098594.281
 115847625.765 8  90270937.73445  22045068.000                    22045077.996
 131539795.683 5 102498604.67242  25031195.109                    25031206.344
 11  8 23  2 34  0.0000000  0  9G26G15G29G12G05G25G02G30G21
 118842664.941 7  92604749.11844  22615004.461                    22615014.141
 123264694.501 7  96050491.909 6  23456490.078                    23456499.566
 114103034.962 7  88911530.828 7  21713083.766                    21713093.137
 117203732.590 7  91327630.518 7  22303127.531                    22303136.926
 109635406.995 8  85430278.963 7  20862902.797                    20862910.641
 114530245.711 8  89244381.267 7  21794369.766                    21794381.387
 116171843.428 7  90523656.19645  22106743.344                    22106750.617
 115891570.294 7  90305180.22845  22053430.922                    22053440.883
 131484001.63215 102455129.02752  25020576.875                    25020589.266
 11  8 23  2 34 30.0000000  0  9G26G15G29G12G05G25G02G30G21
 118759192.231 7  92539705.49244  22599120.391                    22599129.836
 123168763.048 7  95975740.222 6  23438234.234                    23438244.859
 114029392.200 7  88854146.894 7  21699070.297                    21699079.195
 117286492.905 7  91392119.049 7  22318876.891                    22318885.605
 109689942.734 8  85472774.348 7  20873280.086                    20873289.020
 114563654.109 8  89270413.778 7  21800727.383                    21800738.453
 116214790.966 7  90557121.82545  22114916.242                    22114922.895
 115935986.013 7  90339789.89045  22061882.945                    22061892.641
 131428206.53715 102411652.40752  25009959.844                    25009971.891
 11  8 23  2 35  0.0000000  0  9G26G15G29G12G05G25G02G30G21
 118676008.883 7  92474887.33944  22583290.977                    22583300.383
 123072875.736 7  95901022.928 6  23419988.023                    23419998.105
 113955950.612 8  88796919.711 7  21685094.695                    21685103.871
 117369512.043 7  91456809.274 7  22334674.656                    22334683.289
 109744866.922 8  85515572.415 7  20883732.406                    20883740.473
 114597563.818 8  89296836.936 7  21807179.891                    21807191.305
 116257824.705 7  90590654.63645  22123105.586                    22123112.461
 115980870.347 7  90374764.69445  22070424.047                    22070434.313
 131372410.07914 102368174.75752  24999340.531                    24999354.582
 11  8 23  2 35 30.0000000  0  9G26G15G29G12G05G25G02G30G21
 118593117.954 7  92410297.03844  22567517.359                    22567526.836
 122977034.879 7  95826341.819 6  23401749.273                    23401760.004
 113882711.928 8  88739850.626 7  21671157.828                    21671166.543
 117452786.324 7  91521698.297 7  22350521.242                    22350529.820
 109800176.624 8  85558670.888 7  20894257.688                    20894265.750
 114631972.057 8  89323648.555 7  21813727.633                    21813739.082
 116300944.243 7  90624254.28745  22131310.898                    22131317.703
 116026220.016 8  90410102.10545  22079053.656                    22079063.578
 131316607.94315                  24988723.602
 11  8 23  2 36  0.0000000  0  9G26G15G29G12G05G25G02G30G21
 118510523.314 7  92345937.61944  22551800.188                    22551809.547
 122881243.424 7  95751699.212 6  23383520.609                    23383531.434
 113809678.520 8  88682941.495 7  21657260.211                    21657268.906
 117536312.886 7  91586783.889 7  22366415.797                    22366424.906
 109855869.379 8  85602067.830 7  20904855.648                    20904863.625
 114666877.327 8  89350847.445 7  21820369.742                    21820381.008
 116344150.057 7  90657921.16945  22139533.094                    22139539.434
 116072032.910 7  90445800.46145  22087771.711                    22087781.203
 131260805.73415 102281192.83952  24978105.922                    24978113.785
 11  8 23  2 36 30.0000000  0  9G26G15G29G12G05G25G02G30G21
 118428228.776 7  92281812.03145  22536139.867                    22536149.410
 122785504.586 7  95677097.573 6  23365302.656                    23365312.664
 113736852.722 8  88626194.140 7  21643401.500                    21643410.754
 117620088.839 7  91652063.832 7  22382358.078                    22382367.156
 109911943.130 8  85645761.661 7  20915526.094                    20915534.234
 114702277.706 8  89378432.155 7  21827106.172                    21827117.871
 116387442.522 8  90691655.56845  22147771.188                    22147777.473
 116118306.599 7  90481857.87645  22096577.836                    22096587.141
 131204999.811 6 102237707.83542  24967485.680                    24967495.441
 11  8 23  2 37  0.0000000  0  9G26G15G29G12G05G25G02G30G21
 118346238.695 7  92217923.70344  22520537.375                    22520547.422
 122689822.278 7  95602539.985 6  23347094.477                    23347104.559
 113664237.765 8  88569611.076 7  21629583.453                    21629591.906
 117704112.087 7  91717536.464 7  22398347.055                    22398356.465
 109968396.489 8  85689751.294 7  20926268.414                    20926277.262
 114738171.932 8  89406401.661 7  21833936.516                    21833948.137
 116430822.351 8  90725458.04645  22156026.375                    22156032.789
 116165039.211 7  90518272.88545  22105470.016                    22105480.273
 131149190.465 5 102194220.12142  24956864.758                    24956875.910
 11  8 23  2 37 30.0000000  0  9G26G15G29G12G05G25G02G30G21
 118264556.198 7  92154275.04945  22504993.563                    22505003.930
 122594198.850 7  95528028.295 6  23328898.016                    23328907.996
 113591835.672 8  88513193.877 7  21615805.930                    21615814.949
 117788378.916 7  91783198.903 7  22414382.203                    22414391.824
 110025226.393 7  85734034.334 7  20937083.055                    20937091.195
 114774557.473 8  89434754.016 7  21840860.898                    21840872.074
 116474289.520 8  90759328.59645  22164297.484                    22164304.371
 116212227.706 7  90555043.13345  22114450.164                    22114459.578
 131093376.570 6 102150728.84442  24946244.445                    24946254.844
 11  8 23  2 38  0.0000000  0  9G26G15G29G12G05G25G02G30G21
 118183185.063 7  92090869.01145  22489509.180                    22489519.266
 122498637.345 7  95453564.837 6  23310713.297                    23310722.875
 113519648.454 8  88456944.125 7  21602068.703                    21602078.098
 117872886.463 7  91849048.912 7  22430463.305                    22430473.063
 110082430.450 8  85778608.939 7  20947968.188                    20947976.641
 114811432.354 8  89463487.683 7  21847877.711                    21847889.145
 116517844.220 8  90793267.33445  22172585.234                    22172592.508
 116259869.597 8  90592166.66645  22123515.789                    22123526.074
 131037557.861 6 102107233.84243  24935622.086                    24935632.543
 11  8 23  2 38 30.0000000  0  9G26G15G29G12G05G25G02G30G21
 118102128.943 7  92027708.45345  22474085.266                    22474094.531
 122403140.881 7  95379152.064 6  23292540.625                    23292550.473
 113447678.711 8  88400863.830 7  21588373.547                    21588382.508
 117957631.358 7  91915083.872 7  22446589.867                    22446599.555
 110140006.403 8  85823473.320 7  20958924.852                    20958932.695
 114848794.682 8  89492601.175 7  21854987.453                    21854999.488
 116561486.962 8  90827274.68545  22180890.781                    22180897.348
 116307962.442 8  90629641.60345  22132668.078                    22132677.121
 130981733.500 6 102063734.42042  24924998.359                    24925009.223
 11  8 23  2 39  0.0000000  0  9G26G15G29G12G05G25G02G30G21
 118021391.509 7  91964796.20145  22458720.992                    22458730.918
 122307712.456 7  95304792.308 6  23274381.438                    23274391.000
 113375928.475 8  88344954.581 7  21574720.102                    21574728.297
 118042610.483 7  91981301.344 7  22462760.719                    22462770.605
 110197951.641 8  85868625.445 7  20969951.570                    20969959.652
 114886642.216 8  89522092.733 7  21862189.570                    21862201.230
 116605217.669 7  90861350.55945  22189212.188                    22189219.008
 116356503.512 8  90667465.78645  22141905.273                    22141914.492
 130925902.872 6 102020230.16842  24914373.539                    24914385.617
 11  8 23  2 39 30.0000000  0  9G26G15G29G12G05G25G02G30G21
 117940975.991 7  91902134.80345  22443418.313                    22443428.066
 122212354.770 7  95230487.644 6  23256235.586                    23256244.863
 113304399.494 8  88289217.739 7  21561108.594                    21561117.242
 118127820.573 7  92047698.796 7  22478976.422                    22478985.473
 110256263.207 8  85914063.018 7  20981047.656                    20981055.957
 114924972.586 8  89551960.526 7  21869483.383                    21869495.281
 116649036.576 7  90895495.17045  22197550.484                    22197557.332
 116405489.844 8  90705636.93545  22151226.867                    22151236.656
 130870065.446 6 101976720.48042  24903748.500                    24903760.117
 11  8 23  2 40  0.0000000  0  9G26G15G29G12G05G25G02G30G21
 117860886.803 7  91839727.69345  22428177.523                    22428187.602
 122117071.791 7  95156241.222 6  23238103.680                    23238113.539
 113233095.529 8  88233656.238 7  21547539.781                    21547548.969
 118213259.880 7  92114274.874 7  22495234.469                    22495243.996
 110314940.056 8  85959785.231 7  20992213.547                    20992221.871
 114963784.484 8  89582203.544 7  21876869.320                    21876880.598
 116692944.527 7  90929709.16345  22205906.289                    22205912.879
 116454919.660 8  90744153.65445  22160632.781                    22160642.848
 130814221.071 6 101933205.46542  24893121.945                    24893132.469
 11  8 23  2 40 30.0000000  0  9G26G15G29G12G05G25G02G30G21
 117781126.944 7  91777577.19945  22412999.961                    22413009.613
 122021865.823 7  95082054.797 6  23219986.531                    23219996.621
 113162018.180 8  88178271.329 7  21534014.000                    21534022.980
 118298924.025 7  92181026.145 7  22511536.141                    22511545.355
 110373978.816 8  86005789.438 7  21003448.445                    21003456.609
 115003075.139 8  89612819.614 7  21884346.336                    21884357.453
 116736941.261 7  90963992.33045  22214278.195                    22214285.402
 116504789.591 7  90783013.32845  22170122.898                    22170132.383
 130758368.514 6 101889684.16543  24882493.539                    24882504.836
 11  8 23  2 41  0.0000000  0  9G26G15G29G12G05G25G02G30G21
 117701700.445 7  91715686.45845  22397885.398                    22397895.457
 121926740.094 7  95007930.913 6  23201885.070                    23201894.156
 113091169.962 8  88123064.954 7  21520532.172                    21520540.727
 118384810.474 7  92247950.629 7  22527879.703                    22527889.336
 110433377.228 8  86052073.916 7  21014751.523                    21014759.914
 115042842.674 8  89643807.282 7  21891913.680                    21891925.273
 116781027.132 7  90998344.96745  22222667.641                    22222674.520
 116555097.384 7  90822214.16545  22179696.008                    22179705.379
 130702507.554 6 101846156.24443  24871863.258                    24871874.629
 11  8 23  2 41 30.0000000  0  9G26G15G29G12G05G25G02G30G21
 117622610.508 7  91654057.98245  22382835.164                    22382844.828
 121831697.137 7  94933871.513 6  23183798.648                    23183808.121
 113020552.613 8  88068038.467 7  21507094.234                    21507103.133
 118470915.805 7  92315045.674 7  22544265.398                    22544274.484
 110493132.847 8  86098636.735 7  21026122.539                    21026131.016
 115083084.672 8  89675164.668 7  21899571.555                    21899583.254
 116825202.595 7  91032767.42545  22231073.477                    22231080.410
 116605840.056 7  90861753.88245  22189352.031                    22189361.508
 130646637.560 6 101802621.30943  24861231.680                    24861242.070
 11  8 23  2 42  0.0000000  0  9G26G15G29G12G05G25G02G30G21
 117543860.907 7  91592694.68145  22367849.773                    22367859.438
 121736740.314 7  94859879.249 6  23165729.109                    23165738.516
 112950169.185 8  88013194.266 7  21493700.797                    21493709.555
 118557237.020 7  92382308.930 7  22560691.516                    22560700.746
 110553243.160 8  86145475.924 7  21037561.352                    21037569.695
 115123799.039 8  89706890.136 7  21907319.172                    21907330.949
 116869467.838 7  91067259.83845  22239497.211                    22239503.316
 116657015.016 7  90901630.45845  22199090.320                    22199100.172
 130590758.094 6 101759078.97043  24850598.289                    24850608.238
 11  8 23  2 42 30.0000000  0  9G26G15G29G12G05G25G02G30G21
 117465454.861 7  91531599.08245  22352929.609                    22352939.250
 121641872.548 7  94785956.361 6  23147675.883                    23147686.094
 112880021.202 8  87958533.533 7  21480351.555                    21480360.898
 118643770.789 7  92449737.844 7  22577158.086                    22577167.328
 110613705.602 8  86192589.509 7  21049066.945                    21049075.258
 115164983.271 7  89738981.739 7  21915156.328                    21915168.070
 116913823.268 7  91101822.53345  22247937.664                    22247944.375
 116708619.194 7  90941841.47245  22208910.516                    22208920.141
 130534868.177 6 101715528.51443  24839962.734                    24839972.770
 11  8 23  2 43  0.0000000  0  9G26G15G29G12G05G25G02G30G21
 117387396.430 7  91470774.39045  22338075.102                    22338085.469
 121547096.846 7  94712105.227 6  23129640.805                    23129650.969
 112810111.353 8  87904058.348 7  21467048.492                    21467057.152
 118730514.549 7  92517330.363 7  22593664.945                    22593674.578
 110674517.905 8  86239975.737 7  21060639.063                    21060647.008
 115206635.476 8  89771437.997 7  21923082.445                    21923094.344
 116958269.013 7  91136455.59345  22256395.758                    22256402.125
 116760650.287 7  90982385.15145  22218811.742                    22218821.219
 130478967.589 6 101671969.78243  24829324.922                    24829335.344
 11  8 23  2 43 30.0000000  0  9G26G15G29G12G05G25G02G30G21
 117309689.528 7  91410223.59445  22323288.516                    22323298.508
 121452416.806 7  94638328.638 6  23111623.438                    23111633.785
 112740442.452 8  87849770.925 7  21453790.695                    21453799.711
 118817465.393 7  92585084.253 7  22610211.391                    22610220.922
 110735677.939 8  86287632.923 7  21072277.914                    21072285.551
 115248753.663 8  89804257.357 7  21931097.602                    21931109.090
 117002805.519 7  91171159.37645  22264870.633                    22264877.074
 116813105.729 7  91023259.50745  22228793.844                    22228803.227
 130423055.937 6 101628402.34743  24818685.422                    24818695.121
 11  8 23  2 44  0.0000000  0  9G26G15G29G12G05G25G02G30G21
 117232337.565 7  91349949.37345  22308568.563                    22308578.379
 121357835.288 7  94564628.825 6  23093625.039                    23093635.180
 112671016.742 8  87795673.001 7  21440579.375                    21440588.563
 118904620.125 7  92652997.013 7  22626796.539                    22626805.676
 110797183.153 8  86335559.073 7  21083981.773                    21083989.727
 115291335.532 8  89837438.025 7  21939200.477                    21939211.945
 117047433.073 7  91205934.10245  22273363.141                    22273369.043
 116865982.867 7  91064462.45145  22238855.289                    22238865.809
 130367132.837 6 101584825.99343  24808042.922                    24808053.973
 11  8 23  2 44 30.0000000  0  9G26G15G29G12G05G25G02G30G21
 117155344.198 7  91289954.58145  22293917.133                    22293926.629
 121263355.442 7  94491008.230 6  23075646.391                    23075656.145
 112601836.315 8  87741766.198 7  21427414.805                    21427423.574
 118991975.392 7  92721066.021 7  22643419.773                    22643429.273
 110859031.111 8  86383752.302 7  21095751.117                    21095758.445
 115334378.762 8  89870978.191 7  21947390.977                    21947402.332
 117092152.161 7  91240780.17545  22281872.273                    22281879.000
 116919278.697 7  91105991.65545  22248997.188                    22249007.480
 130311197.471 6 101541240.04743  24797398.781                    24797409.375
 11  8 23  2 45  0.0000000  0  9G26G15G29G12G05G25G02G30G21
 117078712.549 7  91230241.64345  22279334.719                    22279344.508
 121168979.834 7  94417468.868 6  23057687.336                    23057696.871
 112532903.692 8  87688052.493 7  21414297.344                    21414306.398
 119079528.328 7  92789289.060 7  22660080.305                    22660090.020
 110921218.968 8  86432210.371 7  21107584.992                    21107593.109
 115377880.829 8  89904875.897 7  21955669.781                    21955681.102
 117136963.117 7  91275697.83045  22290399.992                    22290406.199
 116972990.398 7  91147844.91945  22259218.766                    22259228.012
 130255249.007 6 101497643.99142  24786752.125                    24786762.770
 11  8 23  2 45 30.0000000  0  9G26G15G29G12G05G25G02G30G21
 117002446.586 7  91170813.67145  22264821.516                    22264831.672
 121074711.769 7  94344013.308 6  23039748.328                    23039757.988
 112464221.119 8  87634533.636 7  21401227.453                    21401236.344
 119167275.579 7  92857663.512 7  22676777.820                    22676787.574
 110983744.390 8  86480931.483 7  21119482.938                    21119491.492
 115421839.541 8  89939129.431 7  21964034.469                    21964045.844
 117181866.007 7  91310687.10745  22298944.172                    22298950.652
 117027115.220 7  91190020.08545  22269517.906                    22269527.250
 130199287.117 6 101454037.49642  24776103.039                    24776113.672
 11  8 23  2 46  0.0000000  0  9G26G15G29G12G05G25G02G30G21
 116926550.120 7  91111673.59845  22250378.805                    22250388.520
 120980554.921 7  94270644.387 6  23021831.359                    23021840.762
 112395791.288 8  87581211.712 7  21388205.664                    21388214.457
 119255214.816 7  92926187.548 7  22693511.984                    22693521.777
 111046605.455 8  86529914.137 7  21131445.055                    21131453.664
 115466252.853 8  89973737.202 7  21972486.250                    21972497.168
 117226861.512 7  91345748.56745  22307506.789                    22307512.844
 117081650.646 7  91232515.20845  22279896.172                    22279905.496
 130143311.462 6 101410420.24443  24765450.555                    24765461.477
 11  8 23  2 46 30.0000000  0  9G26G15G29G12G05G25G02G30G21
 116851026.308 7  91052823.90745  22236007.469                    22236017.023
 120886511.578 7  94197363.930 6  23003935.438                    23003944.660
 112327616.121 8  87528088.241 7  21375232.531                    21375241.047
 119343342.176 7  92994858.180 7  22710282.688                    22710291.813
 111109799.171 8  86579156.000 7  21143470.375                    21143478.918
 115511118.025 8  90008697.080 7  21981024.086                    21981035.055
 117271949.643 7  91380882.20045  22316086.883                    22316093.102
 117136593.551 7  91275327.84845  22290351.000                    22290361.016
 130087321.348 6 101366791.72042  24754795.852                    24754807.023
 11  8 23  2 47  0.0000000  0  9G26G15G29G12G05G25G02G30G21
 116775878.679 7  90994267.34445  22221707.102                    22221716.305
 120792585.032 7  94124174.456 6  22986061.602                    22986071.367
 112259698.155 8  87475165.179 7  21362307.898                    21362316.840
 119431654.567 7  93063672.990 6  22727088.094                    22727097.422
 111173322.915 8  86628655.047 7  21155558.586                    21155566.738
 115556432.740 8  90044007.240 7  21989646.969                    21989657.766
 117317130.656 7  91416088.19645  22324684.766                    22324691.035
 117191941.043 7  91318455.73745  22300883.789                    22300893.219
 130031316.219 6 101323151.49442  24744138.539                    24744149.801
 11  8 23  2 47 30.0000000  0  9G26G15G29G12G05G25G02G30G21
 116701110.838 7  90936006.72045  22207479.258                    22207488.980
 120698778.479 7  94051078.506 6  22968210.602                    22968220.410
 112192039.825 8  87422444.442 7  21349433.109                    21349441.887
 119520149.314 7  93132629.911 7  22743927.727                    22743936.973
 111237174.700 8  86678409.688 7  21167709.000                    21167717.355
 115602194.704 8  90079665.910 7  21998355.141                    21998366.480
 117362405.146 7  91451367.01945  22333299.398                    22333306.145
 117247690.403 7  91361896.78245  22311492.242                    22311501.598
 129975295.521 6 101279499.10642  24733478.945                    24733489.555
 11  8 23  2 48  0.0000000  0 10G26G15G29G18G12G05G25G02G30G21
 116626726.433 7  90878044.86845  22193324.203                    22193333.867
 120605094.650 7  93978078.173 6  22950383.031                    22950393.109
 112124643.466 8  87369927.830 7  21336607.891                    21336616.840
 129664786.17815 101037569.64552  24674395.492                    24674407.234
 119608823.154 7  93201726.391 6  22760801.813                    22760811.238
 111301351.836 8  86728417.854 7  21179921.539                    21179929.680
 115648401.544 8  90115671.251 7  22007147.633                    22007159.855
 117407773.227 7  91486718.77045  22341933.203                    22341940.047
 117303838.815 7  91405648.77145  22322176.898                    22322186.328
 129919258.828 6 101235834.27942  24722815.016                    24722826.297
 11  8 23  2 48 30.0000000  0 10G26G15G29G18G12G05G25G02G30G21
 116552728.488 7  90820384.17845  22179243.219                    22179252.496
 120511536.717 7  93905175.940 6  22932579.547                    22932589.316
 112057510.827 8  87317616.727 7  21323833.289                    21323841.805
 129575394.336 6 100967913.92242  24657386.242                    24657397.266
 119697672.449 7  93270959.582 6  22777709.258                    22777718.934
 111365851.321 8  86778677.196 7  21192195.406                    21192203.418
 115695050.345 8  90152020.962 7  22016024.648                    22016036.211
 117453235.028 7  91522143.55745  22350584.234                    22350591.102
 117360382.964 7  91449709.11645  22332936.766                    22332946.230
 129863204.967 6 101192156.02842  24712147.297                    24712158.461
 11  8 23  2 49  0.0000000  0 10G26G15G29G18G12G05G25G02G30G21
 116479120.420 7  90763027.29945  22165235.563                    22165245.395
 120418107.468 7  93832373.974 6  22914801.023                    22914810.531
 111990644.560 8  87265513.182 7  21311108.859                    21311117.195
 129486167.236 6 100898386.49543  24640406.367                    24640418.430
 119786694.073 7  93340327.040 6  22794649.914                    22794659.047
 111430670.648 8  86829185.751 7  21204529.945                    21204538.297
 115742138.646 8  90188713.147 7  22024985.305                    22024996.453
 117498790.910 7  91557641.65145  22359253.344                    22359260.652
 117417319.868 7  91494075.52045  22343771.914                    22343781.270
 129807133.559 6 101148464.07842  24701478.219                    24701488.570
 11  8 23  2 49 30.0000000  0 10G26G15G29G18G12G05G25G02G30G21
 116405906.542 7  90705977.57545  22151303.617                    22151313.117
 120324810.716 7  93759675.266 6  22897047.063                    22897056.715
 111924047.530 8  87213619.432 7  21298435.563                    21298443.984
 129397106.885 6 100828989.03543  24623459.000                    24623470.559
 119875885.982 7  93409827.197 6  22811622.156                    22811632.051
 111495808.195 8  86879942.270 7  21216925.383                    21216933.797
 115789664.767 8  90225746.497 7  22034028.922                    22034040.891
 117544441.826 7  91593213.80945  22367940.242                    22367947.395
 117474647.451 7  91538746.33745  22354680.789                    22354690.605
 129751044.713 6 101104758.54242  24690804.172                    24690814.547
 11  8 23  2 50  0.0000000  0 10G26G15G29G18G12G05G25G02G30G21
 116333090.253 7  90649237.65845  22137447.078                    22137456.574
 120231649.236 7  93687081.961 7  22879318.367                    22879328.566
 111857722.171 8  87161937.376 7  21285814.328                    21285823.254
 129308214.472 6 100759722.43143  24606542.680                    24606554.496
 119965244.614 7  93479457.278 6  22828626.750                    22828635.977
 111561261.137 8  86930944.569 7  21229380.570                    21229388.922
 115837626.100 8  90263118.971 7  22043155.859                    22043167.801
 117590187.938 7  91628860.12145  22376645.734                    22376652.754
 117532362.692 7  91583719.23745  22365663.492                    22365672.984
 129694937.854 6 101061039.01743  24680127.797                    24680138.473
 11  8 23  2 50 30.0000000  0 10G26G15G29G18G12G05G25G02G30G21
 116260674.839 7  90592810.12145  22123667.172                    22123676.656
 120138626.251 7  93614596.568 6  22861617.352                    22861626.805
 111791670.552 8  87110468.617 7  21273245.180                    21273253.520
 129219491.323 6 100690587.74543  24589658.648                    24589671.766
 120054766.880 7  93549214.849 6  22845662.469                    22845671.746
 111627027.055 8  86982190.756 7  21241894.945                    21241903.676
 115886020.040 8  90300828.542 7  22052365.117                    22052376.875
 117636029.517 7  91664580.83845  22385368.789                    22385375.719
 117590462.534 7  91628991.81245  22376719.531                    22376729.211
 129638812.319 6 101017304.92543  24669447.586                    24669457.777
 11  8 23  2 51  0.0000000  0 10G26G15G29G18G12G05G25G02G30G21
 116188664.427 7  90536698.16145  22109963.820                    22109973.246
 120045745.165 6  93542221.749 6  22843941.883                    22843952.074
 111725895.567 8  87059215.431 7  21260728.625                    21260737.531
 129130939.449 6 100621586.53743  24572807.883                    24572819.563
 120144450.197 7  93619097.920 7  22862728.656                    22862738.395
 111693104.155 8  87033679.420 7  21254469.484                    21254477.434
 115934844.572 8  90338873.628 7  22061656.289                    22061667.715
 117681967.059 7  91700376.32045  22394110.648                    22394116.926
 117648944.462 7  91674562.12445  22387848.023                    22387857.996
 129582667.981 5 100973556.19842  24658762.617                    24658773.293
 11  8 23  2 51 30.0000000  0 10G26G15G29G18G12G05G25G02G30G21
 116117061.625 7  90480903.82345  22096338.102                    22096347.695
 119953008.478 7  93469959.446 7  22826294.875                    22826304.816
 111660399.007 8  87008179.200 7  21248264.883                    21248273.828
 129042559.310 6 100552719.14843  24555989.945                    24556001.328
 120234291.077 7  93689103.767 6  22879824.758                    22879834.629
 111759489.302 8  87085408.122 7  21267102.406                    21267110.648
 115984096.669 8  90377251.881 7  22071028.289                    22071039.504
 117728001.143 7  91736247.02945  22402870.313                    22402877.152
 117707805.113 7  91720427.56845  22399049.320                    22399059.027
 129526503.724 6 100929791.97042  24648075.813                    24648085.211
 11  8 23  2 52  0.0000000  0 10G26G15G29G18G12G05G25G02G30G21
 116045870.304 7  90425430.13145  22082790.727                    22082800.258
 119860419.780 7  93397812.498 6  22808675.680                    22808686.168
 111595183.380 8  86957361.873 7  21235854.500                    21235862.922
 128954351.924 6 100483986.29843  24539204.109                    24539216.145
 120324286.344 7  93759229.927 7  22896950.391                    22896959.984
 111826179.558 8  87137374.561 7  21279793.070                    21279801.332
 116033773.768 8  90415961.323 7  22080481.789                    22080493.324
 117774131.741 7  91772192.95545  22411649.406                    22411655.684
 117767041.484 7  91766585.75045  22410321.078                    22410331.199
 129470319.495 6 100886012.16142  24637384.578                    24637393.117
 11  8 23  2 52 30.0000000  0 10G26G15G29G18G12G05G25G02G30G21
 115975094.047 7  90370279.85745  22069322.313                    22069331.973
 119767982.009 7  93325783.118 7  22791085.578                    22791094.754
 111530251.044 8  86906765.295 7  21223498.727                    21223507.391
 128866318.723 6 100415389.16643  24522451.742                    24522464.297
 120414432.952 7  93829474.021 6  22914104.813                    22914113.863
 111893172.961 8  87189577.215 7  21292541.430                    21292549.402
 116083873.545 8  90455000.105 7  22090015.469                    22090027.164
 117820359.626 7  91808214.67545  22420446.047                    22420452.316
 117826650.807 7  91813034.58044  22421664.477                    22421674.746
 129414114.377 6 100842216.10042  24626688.398                    24626698.152
 11  8 23  2 53  0.0000000  0 10G26G15G29G18G12G05G25G02G30G21
 115904736.094 7  90315455.54445  22055933.422                    22055943.070
 119675698.230 7  93253873.746 6  22773524.859                    22773534.258
 111465604.497 8  86856391.417 7  21211197.031                    21211205.508
 128778461.299 6 100346929.06843  24505732.453                    24505744.508
 120504727.743 7  93899833.574 6  22931287.250                    22931296.605
 111960466.921 8  87242014.067 7  21305347.305                    21305355.164
 116134393.408 8  90494366.226 7  22099629.305                    22099640.477
 117866684.918 7  91844312.29445  22429261.609                    22429267.609
 117886630.154 7  91859771.72445  22433078.961                    22433088.227
 129357888.055 6 100798403.52942  24615988.953                    24615998.668
 11  8 23  2 53 30.0000000  0 10G26G15G29G18G12G05G25G02G30G21
 115834800.065 7  90260959.99345  22042625.469                    22042635.199
 119583571.678 7  93182086.876 7  22755993.266                    22756003.105
 111401246.310 8  86806242.223 7  21198949.773                    21198958.109
 128690780.808 6 100278606.81742  24489047.539                    24489058.855
 120595167.967 7  93970306.429 7  22948497.367                    22948506.898
 112028059.111 8  87294683.307 7  21318209.328                    21318217.285
 116185330.918 8  90534057.795 7  22109321.773                    22109333.480
 117913108.128 7  91880486.21545  22438095.547                    22438102.059
 117946976.664 7  91906794.96944  22444562.023                    22444571.699
 129301640.426 6 100754574.30542  24605285.219                    24605295.332
 11  8 23  2 54  0.0000000  0 10G26G15G29G18G12G05G25G02G30G21
 115765289.355 7  90206795.87545  22029397.492                    22029407.223
 119491605.468 7  93110424.957 6  22738492.742                    22738502.199
 111337178.471 8  86756319.278 7  21186758.289                    21186766.586
 128603278.715 6 100210423.60442  24472395.914                    24472407.129
 120685750.482 7  94040890.183 7  22965734.898                    22965744.164
 112095947.236 8  87347583.160 7  21331127.914                    21331136.137
 116236683.454 8  90574072.763 7  22119093.883                    22119105.730
 117959629.571 7  91916736.67445  22446948.406                    22446954.867
 118007687.279 7  91954101.94145  22456114.797                    22456124.793
 129245370.849 6 100710727.97842  24594577.461                    24594587.098
 11  8 23  2 54 30.0000000  0 10G26G15G29G18G12G05G25G02G30G21
 115696207.396 7  90152965.84345  22016251.578                    22016261.133
 119399802.738 7  93038890.418 6  22721023.258                    22721032.277
 111273403.651 8  86706624.659 7  21174621.953                    21174630.359
 128515956.313 6 100142380.37542  24455780.383                    24455790.461
 120776472.327 7  94111582.490 7  22982998.398                    22983007.945
 112164128.828 8  87400711.695 7  21344102.695                    21344110.656
 116288448.533 8  90614409.188 7  22128944.703                    22128956.223
 118006249.624 7  91953063.97945  22455819.555                    22455826.438
 118068759.153 7  92001690.41445  22467736.602                    22467746.281
 129189078.639 6 100666864.05343  24583864.750                    24583875.074
 11  8 23  2 55  0.0000000  0 10G26G15G29G18G12G05G25G02G30G21
 115627557.465 7  90099472.44345  22003187.930                    22003197.313
 119308166.556 7  92967485.663 6  22703585.297                    22703594.789
 111209924.224 8  86657160.204 7  21162542.445                    21162550.520
 128428814.197 6 100074477.61642  24439196.484                    24439207.266
 120867330.002 7  94182380.640 7  23000287.797                    23000297.965
 112232601.110 8  87454066.753 7  21357132.250                    21357140.719
 116340623.336 8  90655064.883 7  22138873.047                    22138884.961
 118052968.926 7  91989468.61845  22464709.875                    22464716.680
 118130189.105 7  92049557.90945  22479426.695                    22479436.156
 129132763.217 6 100622982.01743  24573148.453                    24573158.680
 11  8 23  2 55 30.0000000  0 10G26G15G29G18G12G05G25G02G30G21
 115559342.837 7  90046318.26145  21990207.195                    21990216.633
 119216699.751 7  92896212.883 7  22686179.555                    22686189.520
 111146742.312 8  86607927.589 7  21150519.141                    21150527.637
 128341853.754 6 100006716.44642  24422648.641                    24422659.320
 120958320.553 7  94253282.350 7  23017603.289                    23017612.496
 112301361.221 8  87507646.063 7  21370216.758                    21370224.863
 116393205.120 8  90696037.682 7  22148879.070                    22148890.957
 118099787.536 7  92025950.64445  22473619.055                    22473625.652
 118191973.886 7  92097701.88945  22491183.609                    22491193.039
 129076424.005 6 100579081.45143  24562427.023                    24562437.754
 11  8 23  2 56  0.0000000  0 10G26G15G29G18G12G05G25G02G30G21
 115491567.352 7  89993506.24445  21977309.898                    21977319.070
 119125405.888 7  92825074.861 6  22668807.461                    22668816.641
 111083861.094 8  86558929.276 7  21138553.219                    21138561.410
 128255076.561 6  99939098.10943  24406134.758                    24406146.922
 121049441.253 7  94324285.467 7  23034942.711                    23034952.668
 112370407.304 8  87561448.211 7  21383356.273                    21383364.418
 116446191.632 8  90737325.860 7  22158962.164                    22158974.027
 118146706.083 7  92062510.54645  22482547.594                    22482554.148
 118254110.954 7  92146120.37445  22503008.273                    22503018.086
 129020061.086 6 100535162.38542  24551701.633                    24551710.977
 11  8 23  2 56 30.0000000  0 10G26G15G29G18G12G05G25G02G30G21
 115424234.197 7  89941038.91245  21964497.047                    21964506.555
 119034287.682 7  92754073.703 6  22651467.813                    22651477.621
 111021281.877 8  86510166.280 7  21126644.633                    21126653.203
 128168483.496 6  99871623.24043  24389656.938                    24389667.355
 121140688.836 7  94395387.446 6  23052306.586                    23052315.953
 112439736.760 8  87615471.168 7  21396548.805                    21396557.180
 116499579.929 8  90778927.119 7  22169121.531                    22169133.051
 118193724.940 7  92099148.60745  22491494.500                    22491501.059
 118316596.923 7  92194810.73045  22514898.758                    22514908.109
 128963673.504 6 100491224.13343  24540971.594                    24540981.488
 11  8 23  2 57  0.0000000  0 10G26G15G29G18G12G05G25G02G30G21
 115357346.573 7  89888918.74545  21951768.625                    21951778.078
 118943348.459 7  92683212.011 7  22634162.570                    22634172.309
 110959007.390 7  86461640.745 7  21114794.305                    21114802.754
 128082075.926 6  99804292.84143  24373214.531                    24373225.066
 121232060.020 7  94466585.723 6  23069693.695                    23069703.738
 112509347.170 8  87669713.063 7  21409795.258                    21409803.570
 116553367.520 8  90820839.505 7  22179357.266                    22179368.879
 118240844.398 7  92135865.04145  22500461.438                    22500467.973
 118379428.966 7  92243770.75545  22526855.141                    22526864.859
 128907260.893 6 100447266.36543  24530236.414                    24530246.477
 11  8 23  2 57 30.0000000  0 10G26G15G29G18G12G05G25G02G30G21
 115290907.996 8  89837148.45745  21939125.742                    21939134.629
 118852591.363 7  92612492.240 7  22616892.227                    22616901.891
 110897040.405 8  86413354.814 7  21103002.188                    21103010.926
 127995854.983 6  99737107.86742  24356806.242                    24356817.293
 121323552.190 7  94537878.276 6  23087104.344                    23087113.785
 112579236.085 8  87724171.972 7  21423094.664                    21423102.938
 116607551.796 8  90863061.015 7  22189668.313                    22189679.563
 118288064.899 7  92172660.22845  22509447.273                    22509454.023
 118442604.197 7  92292998.19745  22538877.328                    22538887.223
 128850823.097 6 100403288.92743  24519497.195                    24519506.234
 11  8 23  2 58  0.0000000  0 10G26G15G29G18G12G05G25G02G30G21
 115224921.471 7  89785730.42645  21926568.875                    21926578.105
 118762019.499 7  92541916.810 7  22599656.453                    22599666.438
 110835382.737 8  86365309.914 7  21091269.078                    21091277.637
 127909821.393 6  99670068.87242  24340434.227                    24340446.055
 121415161.967 7  94609262.505 6  23104537.313                    23104546.547
 112649400.611 8  87778845.657 7  21436446.258                    21436454.852
 116662129.803 8  90905589.315 7  22200054.125                    22200065.488
 118335386.937 7  92209534.54945  22518452.648                    22518459.328
 118506119.187 7  92342490.37645  22550963.563                    22550973.637
 128794359.400 6 100359291.33143  24508752.063                    24508761.441
 11  8 23  2 58 30.0000000  0 10G26G15G29G18G12G05G25G02G30G21
 115159390.477 7  89734667.37145  21914099.047                    21914108.270
 118671635.846 7  92471488.041 7  22582456.898                    22582466.922
 110774036.804 8  86317507.903 7  21079595.039                    21079603.953
 127823976.817 6  99603177.20243  24324098.703                    24324110.105
 121506886.141 7  94680735.859 6  23121991.781                    23122001.250
 112719837.992 8  87833731.949 7  21449850.336                    21449858.570
 116717098.874 8  90948422.352 7  22210514.547                    22210525.875
 118382810.806 7  92246488.19845  22527477.266                    22527483.594
 118569970.950 7  92392244.98045  22563113.961                    22563124.004
 128737869.303 6 100315273.21743  24498001.531                    24498011.629
 11  8 23  2 59  0.0000000  0 10G26G15G29G18G12G05G25G02G30G21
 115094318.754 7  89683962.19045  21901716.078                    21901725.207
 118581443.917 7  92401208.657 7  22565294.641                    22565304.125
 110713005.712 8  86269951.233 7  21067981.531                    21067990.219
 127738322.694 6  99536433.90643  24307799.484                    24307810.258
 121598722.388 7  94752296.542 6  23139467.820                    23139477.473
 112790546.928 8  87888829.847 7  21463305.484                    21463313.512
 116772456.774 8  90991558.365 7  22221048.578                    22221060.215
 118430337.298 7  92283521.82445  22536520.961                    22536527.582
 118634156.851 7  92442259.95345  22575327.789                    22575337.875
 128681352.691 6 100271234.43643  24487246.586                    24487256.777
 11  8 23  2 59 30.0000000  0 10G26G15G29G18G12G05G25G02G30G21
 115029709.364 7  89633617.27145  21889421.094                    21889430.434
 118491446.452 7  92331080.811 7  22548168.305                    22548178.129
 110652291.048 8  86222641.121 7  21056427.820                    21056436.746
 127652860.146 6  99469839.92143  24291535.813                    24291546.848
 121690667.058 7  94823941.705 6  23156964.102                    23156973.570
 112861524.197 8  87944136.819 7  21476812.313                    21476820.324
 116828200.356 7  91034994.917 7  22231655.867                    22231667.910
 118477966.416 7  92320635.38845  22545584.352                    22545590.957
 118698673.473 7  92492532.61845  22587605.188                    22587615.063
 128624808.319 6 100227174.01643  24476487.086                    24476497.242
 11  8 23  3  0  0.0000000  0 10G26G15G29G18G12G05G25G02G30G21
 114965565.267 7  89583634.89645  21877214.961                    21877224.316
 118401646.512 7  92261106.897 7  22531079.891                    22531089.473
 110591895.462 8  86175579.634 7  21044934.875                    21044943.422
 127567589.747 6  99403395.60743  24275309.938                    24275320.105
 121782717.199 6  94895669.063 6  23174480.961                    23174489.996
 112932767.376 8  87999651.004 7  21490369.039                    21490376.770
 116884326.912 7  91078729.885 7  22242336.719                    22242348.473
 118525698.627 7  92357829.31945  22554667.570                    22554673.906
 118763517.723 7  92543060.58245  22599944.648                    22599954.395
 128568236.426 6 100183092.15843  24465721.617                    24465731.324
 11  8 23  3  0 30.0000000  0 10G26G15G29G18G12G05G25G02G30G21
 114901889.620 7  89534017.55245  21865097.211                    21865106.871
 118312047.073 7  92191289.190 7  22514029.773                    22514039.398
 110531820.875 8  86128768.276 7  21033503.383                    21033511.902
 127482512.426 7  99337101.73643  24259120.414                    24259131.016
 121874869.253 6  94967475.819 6  23192016.750                    23192026.027
 113004273.931 8  88055370.407 7  21503976.906                    21503984.676
 116940833.356 7  91122760.869 7  22253089.617                    22253101.109
 118573534.288 7  92395103.84045  22563770.492                    22563776.816
 118828686.146 7  92593841.14644  22612345.133                    22612355.309
 128511636.136 6 100138988.14643  24454950.641                    24454960.781
 11  8 23  3  1  0.0000000  0 10G26G15G29G18G12G05G25G02G30G21
 114838686.301 7  89484768.23745  21853070.648                    21853079.918
 118222651.716 7  92121630.515 7  22497018.023                    22497027.738
 110472070.380 8  86082209.468 7  21022133.078                    21022141.625
 127397629.959 6  99270959.68243  24242967.938                    24242978.230
 121967120.763 7  95039360.069 6  23209571.188                    23209580.961
 113076041.821 8  88111293.461 7  21517633.797                    21517641.730
 116997717.577 7  91167086.209 7  22263914.047                    22263925.160
 118621474.055 7  92432459.49145  22572892.883                    22572899.871
 118894176.336 7  92644872.42944  22624808.602                    22624817.488
 128455007.205 6 100094861.79943  24444174.688                    24444184.176
 11  8 23  3  1 30.0000000  0 10G26G15G29G18G12G05G25G02G30G21
 114775958.463 7  89435889.42145  21841133.734                    21841143.074
 118133463.878 7  92052133.543 7  22480046.469                    22480056.148
 110412646.374 8  86035905.062 7  21010824.969                    21010833.164
 127312943.517 6  99204970.36643  24226851.766                    24226862.555
 122059468.872 7  95111319.598 6  23227145.172                    23227154.758
 113148068.556 8  88167418.210 7  21531339.438                    21531348.016
 117054976.816 7  91211703.771 7  22274810.070                    22274822.113
 118669518.409 7  92469896.62645  22582035.797                    22582042.016
 118959985.178 7  92696152.03344  22637331.063                    22637341.336
 128398349.643 6 100050713.15743  24433393.477                    24433402.688
 11  8 23  3  2  0.0000000  0 10G26G15G29G18G12G05G25G02G30G21
 114713708.942 7  89387383.32445  21829288.406                    21829297.957
 118044485.956 7  91982800.155 7  22463114.336                    22463123.758
 110353550.983 8  85989856.721 7  20999579.555                    20999588.129
 127228454.057 6  99139134.56043  24210773.594                    24210785.168
 122151910.451 7  95183351.955 6  23244735.680                    23244745.438
 113220351.359 8  88223742.490 7  21545094.469                    21545103.055
 117112608.069 7  91256611.230 7  22285777.063                    22285788.457
 118717667.702 7  92507415.53245  22591198.031                    22591204.711
 119026109.355 7  92747677.34145  22649914.070                    22649924.844
 128341662.584 6 100006541.55144  24422606.398                    24422615.398
 11  8 23  3  2 30.0000000  0 10G26G15G29G18G12G05G25G02G30G21
 114651941.392 7  89339252.78945  21817534.086                    21817543.055
 117955721.264 7  91913632.909 7  22446223.031                    22446232.191
 110294786.230 7  85944066.006 7  20988396.813                    20988405.445
 127144162.366 6  99073452.86643  24194734.000                    24194744.762
 122244442.086 7  95255454.461 6  23262344.258                    23262353.758
 113292887.857 8  88280264.470 7  21558898.086                    21558906.473
 117170608.345 7  91301806.220 7  22296814.453                    22296825.629
 118765922.591 7  92545016.71545  22600380.383                    22600386.918
 119092545.544 7  92799445.78745  22662556.766                    22662567.164
 128284945.459 6  99962346.47243  24411813.156                    24411822.242
 11  8 23  3  3  0.0000000  0 10G26G15G29G18G12G05G25G02G30G21
 114590658.961 7  89291500.28245  21805872.961                    21805881.242
 117867173.141 7  91844634.415 6  22429372.906                    22429381.980
 110236355.066 8  85898535.248 7  20977278.039                    20977286.313
 127060070.044 6  99007926.53443  24178731.414                    24178742.234
 122337061.233 7  95327625.178 6  23279969.297                    23279978.941
 113365675.839 8  88336982.407 7  21572748.922                    21572757.422
 117228975.380 7  91347286.993 7  22307921.117                    22307932.895
 118814283.482 7  92582700.48145  22609584.000                    22609590.621
 119159291.165 7  92851455.33145  22675258.344                    22675268.234
 128228198.338 6  99918128.08143  24401014.320                    24401023.527
 11  8 23  3  3 30.0000000  0 10G26G15G29G18G12G05G25G02G30G21
 114529864.858 7  89244128.29545  21794303.852                    21794312.965
 117778845.061 7  91775807.379 7  22412564.742                    22412573.734
 110178259.759 8  85853266.195 7  20966222.781                    20966231.559
 126976178.248 6  98942556.49542  24162765.555                    24162778.250
 122429765.074 7  95399861.897 7  23297610.602                    23297620.023
 113438712.567 8  88393894.165 7  21586647.547                    21586655.551
 117287706.237 7  91393051.286 7  22319097.453                    22319109.496
 118862750.844 7  92620467.23244  22618806.633                    22618812.969
 119226343.022 7  92903703.50745  22688017.648                    22688028.016
 128171420.711 6  99873885.88543  24390209.539                    24390219.316
 11  8 23  3  4  0.0000000  0 10G26G15G29G18G12G05G25G02G30G21
 114469562.147 7  89197139.21145  21782828.492                    21782837.938
 117690739.813 7  91707153.996 7  22395799.078                    22395807.781
 110120502.605 7  85808260.658 7  20955231.781                    20955240.418
 126892487.876 6  98877343.30243  24146841.320                    24146852.453
 122522550.207 7  95472161.962 6  23315266.602                    23315276.453
 113511995.974 8  88450998.131 7  21600592.727                    21600600.605
 117346798.165 7  91439096.921 7  22330342.180                    22330353.898
 118911325.216 7  92658317.36944  22628050.047                    22628056.191
 119293697.962 7  92956187.85845  22700834.883                    22700845.074
 128114611.881 6  99829619.37743  24379399.492                    24379408.203
 11  8 23  3  4 30.0000000  0 10G26G15G29G18G12G05G25G02G30G21
 114409753.938 7  89150535.44945  21771447.500                    21771456.863
 117602860.181 7  91638676.409 6  22379075.742                    22379084.895
 110063085.954 8  85763520.430 8  20944305.938                    20944314.031
 126809000.049 6  98812287.96543  24130954.328                    24130964.133
 122615413.618 7  95544523.002 6  23332937.734                    23332947.715
 113585523.436 8  88508292.279 7  21614584.555                    21614592.367
 117406247.962 7  91485421.407 7  22341655.164                    22341666.727
 118960006.730 7  92696251.00644  22637313.305                    22637319.867
 119361352.532 7  93008905.68145  22713708.891                    22713719.059
 128057771.452 6  99785328.26144  24368582.797                    24368592.480
 11  8 23  3  5  0.0000000  0 10G26G15G29G18G12G05G25G02G30G21
 114350443.055 7  89104319.21745  21760161.148                    21760169.816
 117515209.209 7  91570376.997 7  22362396.328                    22362405.512
 110006011.722 7  85719047.043 7  20933444.938                    20933453.734
 126725715.181 6  98747390.73643  24115105.422                    24115115.547
 122708352.129 7  95616942.568 6  23350623.555                    23350633.703
 113659291.959 8  88565774.257 7  21628622.008                    21628629.906
 117466052.698 7  91532022.470 7  22353035.648                    22353046.996
 119008795.765 7  92734268.41744  22646598.141                    22646604.086
 119429303.417 7  93061854.41145  22726640.070                    22726650.039
 128000899.154 6  99741012.28944  24357759.977                    24357769.891
 11  8 23  3  5 30.0000000  0 10G26G15G29G18G12G05G25G02G30G21
 114291633.386 7  89058493.54045  21748969.625                    21748978.898
 117427790.793 7  91502258.809 7  22345761.156                    22345770.086
 109949282.776 8  85674842.705 7  20922649.727                    20922658.133
 126642635.107 6  98682653.13643  24099296.227                    24099307.074
 122801363.054 7  95689418.556 6  23368323.109                    23368332.684
 113733299.925 8  88623442.810 7  21642705.109                    21642713.074
 117526209.970 7  91578898.239 7  22364482.984                    22364494.199
 119057692.941 7  92772370.08244  22655902.789                    22655909.066
 119497548.179 7  93115032.14245  22739626.266                    22739636.035
 127943994.789 6  99696671.33843  24346931.383                    24346940.906
 11  8 23  3  6  0.0000000  0 10G26G15G29G18G12G05G25G02G30G21
 114233327.334 7  89013060.27945  21737874.664                    21737883.223
 117340607.251 7  91434323.626 7  22329170.672                    22329179.273
 109892901.013 8  85630908.882 7  20911920.898                    20911929.375
 126559760.347 7  98618075.52543  24083525.211                    24083535.816
 122894443.113 7  95761948.436 6  23386035.648                    23386045.527
 113807544.494 8  88681295.738 7  21656833.789                    21656841.883
 117586716.587 7  91626046.208 7  22375997.156                    22376008.668
 119106698.602 7  92810556.27644  22665228.266                    22665234.836
 119566083.105 7  93168435.96344  22752668.531                    22752677.930
 127887057.520 6  99652304.75043  24336096.594                    24336105.820
 11  8 23  3  6 30.0000000  0 10G26G15G29G18G12G05G25G02G30G21
 114175528.281 7  88968022.09445  21726875.250                    21726884.793
 117253661.934 7  91366574.080 7  22312624.953                    22312634.180
 109836869.042 8  85587247.626 8  20901258.250                    20901266.781
 126477092.244 6  98553658.98143  24067793.195                    24067804.031
 122987589.456 7  95834529.982 6  23403760.766                    23403770.789
 113882023.331 8  88739331.227 7  21671006.391                    21671014.988
 117647569.948 7  91673464.391 7  22387577.242                    22387588.645
 119155813.323 7  92848827.45244  22674574.406                    22674580.691
 119634905.389 7  93222063.70445  22765765.109                    22765774.742
 127830087.309 6  99607912.45743  24325255.852                    24325264.523
 11  8 23  3  7  0.0000000  0 10G26G15G29G18G12G05G25G02G30G21
 114118239.366 7  88923381.41545  21715973.680                    21715983.457
 117166958.381 7  91299012.915 7  22296126.063                    22296135.082
 109781189.552 8  85543861.035 8  20890662.805                    20890670.922
 126394632.053 7  98489404.38743  24052102.227                    24052111.953
 123080799.293 7  95907160.964 6  23421497.602                    23421507.242
 113956734.143 8  88797547.467 7  21685223.758                    21685232.074
 117708767.257 7  91721150.579 7  22399222.688                    22399234.473
 119205037.750 7  92887184.13944  22683941.609                    22683948.211
 119704011.939 7  93275912.94445  22778915.219                    22778925.234
 127773083.925 6  99563494.31143  24314408.477                    24314417.445
 11  8 23  3  7 30.0000000  0 10G26G15G29G18G12G05G25G02G30G21
 114061463.521 7  88879140.51345  21705169.133                    21705178.891
 117080498.917 7  91231641.948 7  22279673.750                    22279682.441
 109725864.289 8  85500750.463 7  20880134.297                    20880143.223
 126312380.291 7  98425312.22543  24036450.453                    24036459.438
 123174069.388 6  95979838.891 6  23439246.617                    23439256.719
 114031674.035 8  88855942.205 7  21699484.406                    21699492.680
 117770305.240 7  91769102.228 7  22410933.070                    22410945.117
 119254372.025 7  92925626.41645  22693329.414                    22693335.539
 119773399.116 7  93329980.85544  22792118.719                    22792129.668
 127716046.689 7  99519049.77743  24303554.461                    24303562.613
 11  8 23  3  8  0.0000000  0 10G26G15G29G18G12G05G25G02G30G21
 114005203.386 7  88835301.46245  21694463.898                    21694473.266
 116994286.687 7  91164463.613 7  22263267.531                    22263276.578
 109670895.313 8  85457917.516 7  20869673.953                    20869682.809
 126230337.698 6  98361383.00043  24020837.523                    24020847.809
 123267396.511 6  96052561.297 6  23457006.555                    23457015.480
 114106840.773 8  88914513.708 7  21713787.484                    21713796.191
 117832180.800 7  91817316.924 7  22422707.305                    22422719.414
 119303816.603 7  92964154.64844  22702739.141                    22702745.066
 119843063.722 7  93384264.91744  22805375.633                    22805386.449
 127658975.040 6  99474578.47143  24292694.492                    24292702.656
 11  8 23  3  8 30.0000000  0 10G26G15G29G18G12G05G25G02G30G21
 113949462.460 7  88791866.98345  21683857.078                    21683866.324
 116908325.511 7  91097480.925 7  22246910.078                    22246918.973
 109616285.488 8  85415364.429 7  20859282.266                    20859291.102
 126148505.742 6  98297617.95743  24005265.047                    24005276.129
 123360777.898 6  96125325.980 6  23474775.820                    23474785.691
 114182232.299 8  88973260.362 7  21728134.539                    21728142.242
 117894391.637 7  91865792.879 7  22434545.461                    22434557.277
 119353372.260 7  93002769.42245  22712169.141                    22712175.223
 119913003.029 7  93438763.04645  22818684.969                    22818694.969
 127601869.058 6  99430080.41843  24281827.273                    24281836.137
 11  8 23  3  9  0.0000000  0 10G26G15G29G18G12G05G25G02G30G21
 113894243.885 7  88748839.53545  21673348.742                    21673358.203
 116822618.374 7  91030696.174 7  22230600.430                    22230609.766
 109562037.387 8  85373093.202 7  20848959.297                    20848967.770
 126066885.716 6  98234018.08143  23989733.297                    23989744.352
 123454210.941 6  96198130.907 6  23492555.781                    23492565.762
 114257846.083 8  89032180.202 7  21742523.180                    21742531.277
 117956934.850 7  91914527.824 7  22446447.109                    22446459.121
 119403039.408 7  93041471.06244  22721620.328                    22721626.992
 119983213.931 7  93493472.80544  22832045.266                    22832055.672
 127544728.451 6  99385555.39943  24270953.523                    24270962.328
 11  8 23  3  9 30.0000000  0 10G26G15G29G18G12G05G25G02G30G21
 113839550.609 7  88706221.41445  21662940.867                    21662949.848
 116737168.237 7  90964111.700 7  22214339.641                    22214349.105
 109508152.989 7  85331105.381 7  20838705.070                    20838713.547
 125985478.362 6  98170583.88643  23974241.977                    23974252.535
 123547692.514 6  96270973.661 6  23510344.602                    23510354.574
 114333679.809 8  89091271.411 7  21756954.016                    21756961.797
 118019807.349 7  91963519.344 7  22458411.531                    22458423.172
 119452818.515 7  93080259.96044  22731093.086                    22731099.363
 120053693.126 7  93548391.63144  22845457.344                    22845467.465
 127487552.512 6  99341002.82743  24260072.930                    24260082.082
 11  8 23  3 10  0.0000000  0 10G26G15G29G18G12G05G25G02G30G21
 113785385.232 7  88664014.64145  21652634.063                    21652642.746
 116651977.841 7  90897729.636 7  22198128.266                    22198137.637
 109454634.403 8  85289402.595 7  20828521.305                    20828529.059
 125904284.588 6  98107316.15243  23958791.164                    23958802.191
 123641219.280 6  96343851.596 6  23528142.922                    23528152.262
 114409730.685 8  89150531.830 7  21771425.602                    21771434.023
 118083006.022 7  92012765.040 7  22470438.000                    22470449.512
 119502709.881 7  93119136.30644  22740586.445                    22740593.305
 120124437.245 7  93603516.89744  22858919.414                    22858929.258
 127430340.899 6  99296422.43943  24249186.266                    24249194.922
 11  8 23  3 10 30.0000000  0 10G26G15G29G18G12G05G25G02G30G21
 113731751.064 7  88622221.79945  21642427.742                    21642436.652
 116567050.964 7  90831552.897 7  22181967.180                    22181976.578
 109401484.588 8  85247987.179 7  20818406.711                    20818415.336
 125823305.570 6  98044215.76443  23943381.367                    23943392.148
 123734788.759 7  96416762.841 6  23545948.094                    23545958.594
 114485996.804 8  89209959.975 7  21785938.820                    21785946.887
 118146528.398 7  92062262.959 7  22482525.852                    22482537.348
 119552714.214 7  93158100.71244  22750101.906                    22750108.727
 120195443.532 7  93658846.43444  22872431.688                    22872441.199
 127373093.900 6  99251814.46043  24238292.211                    24238300.930
 11  8 23  3 11  0.0000000  0 10G26G15G29G18G12G05G25G02G30G21
 113678651.122 7  88580845.23045  21632323.109                    21632332.020
 116482390.438 7  90765583.702 7  22165857.180                    22165866.258
 109348705.706 8  85206860.789 7  20808363.742                    20808371.816
 125742542.002 6  97981283.23643  23928012.430                    23928022.410
 123828397.981 7  96489705.062 6  23563761.000                    23563771.492
 114562475.831 8  89269554.019 7  21800492.445                    21800500.555
 118210371.360 7  92112010.697 7  22494674.867                    22494686.625
 119602831.955 7  93197153.48145  22759639.398                    22759645.883
 120266708.723 7  93714377.69145  22885992.656                    22886003.418
 127315810.837 6  99207178.39143  24227391.977                    24227400.020
 11  8 23  3 11 30.0000000  0 10G26G15G29G18G12G05G25G02G30G21
 113626087.858 7  88539886.86245  21622320.227                    21622329.266
 116397998.949 7  90699824.148 7  22149797.578                    22149806.668
 109296299.208 8  85166024.569 7  20798390.914                    20798398.906
 125661994.868 6  97918519.35743  23912684.688                    23912695.172
 123922043.536 7  96562675.586 6  23581582.008                    23581592.031
 114639164.520 8  89329311.439 7  21815085.656                    21815093.668
 118274531.606 7  92162005.666 7  22506884.500                    22506896.004
 119653063.271 7  93236294.74344  22769198.172                    22769205.074
 120338229.142 7  93770107.85245  22899602.906                    22899613.230
 127258490.953 6  99162513.62343  24216483.813                    24216492.520
 11  8 23  3 12  0.0000000  0 10G26G15G29G18G12G05G25G02G30G21
 113574064.286 7  88499349.02945  21612420.313                    21612429.824
 116313879.891 7  90634276.877 7  22133790.117                    22133799.066
 109244268.095 8  85125480.853 7  20788489.953                    20788498.031
 125581665.114 6  97855924.83343  23897398.719                    23897408.406
 124015722.790 7  96635672.377 6  23599408.742                    23599418.773
 114716061.231 8  89389230.947 7  21829718.781                    21829726.551
 118339006.459 7  92212245.781 7  22519153.922                    22519164.977
 119703409.077 7  93275525.20745  22778778.633                    22778785.402
 120410001.908 7  93826034.63644  22913260.938                    22913270.906
 127201134.126 6  99117820.07943  24205569.063                    24205578.164
 11  8 23  3 12 30.0000000  0 10G26G15G29G18G12G05G25G02G30G21
 113522583.009 7  88459233.77245  21602624.008                    21602632.941
 116230036.164 7  90568944.150 7  22117835.055                    22117844.613
 109192614.180 8  85085231.062 7  20778660.289                    20778668.379
 125501553.514 7  97793500.35644  23882153.883                    23882164.027
 124109432.562 7  96708692.935 6  23617240.922                    23617250.590
 114793163.218 8  89449310.412 7  21844390.422                    21844398.430
 118403792.681 7  92262728.528 7  22531481.914                    22531493.387
 119753869.447 7  93314844.95245  22788381.469                    22788388.348
 120482023.594 7  93882155.38544  22926966.336                    22926976.180
 127143740.196 6  99073097.67143  24194647.172                    24194656.281
 11  8 23  3 13  0.0000000  0 10G26G15G29G18G12G05G25G02G30G21
 113471647.332 7  88419543.65845  21592931.250                    21592940.574
 116146470.919 7  90503828.424 7  22101933.227                    22101942.047
 109141340.096 8  85045277.259 7  20768903.258                    20768911.516
 125421661.158 7  97731246.67044  23866950.875                    23866961.055
 124203170.168 7  96781735.174 6  23635079.055                    23635088.738
 114870468.417 8  89509548.213 7  21859101.320                    21859109.293
 118468887.597 7  92313451.805 7  22543869.055                    22543880.289
 119804445.075 7  93354254.48644  22798005.563                    22798012.707
 120554291.347 7  93938467.87444  22940718.211                    22940728.293
 127086308.630 6  99028345.90143  24183718.711                    24183727.188
 11  8 23  3 13 30.0000000  0 10G26G15G29G18G12G05G25G02G30G21
 113421260.158 7  88380280.93345  21583343.102                    21583352.133
 116063187.541 7  90438932.332 7  22086084.781                    22086093.910
 109090448.242 8  85005621.275 7  20759218.742                    20759227.195
 125341989.171 7  97669164.67043  23851789.594                    23851799.980
 124296932.804 6  96854796.927 6  23652920.969                    23652930.688
 114947974.479 8  89569942.548 7  21873850.414                    21873858.016
 118534288.363 7  92364413.404 7  22556314.461                    22556325.625
 119855136.574 7  93393754.32244  22807651.391                    22807658.488
 120626801.971 7  93994969.64544  22954516.453                    22954526.082
 127028839.344 6  98983564.73143  24172782.148                    24172791.508
 11  8 23  3 14  0.0000000  0 10G26G15G29G18G12G05G25G02G30G21
 113371424.241 7  88341447.76945  21573859.516                    21573868.609
 115980189.114 7  90374258.286 7  22070291.234                    22070300.133
 109039940.880 8  84966264.912 7  20749607.500                    20749616.035
 125262538.374 6  97607255.06243  23836670.680                    23836680.707
 124390717.563 6  96927875.948 6  23670766.828                    23670777.152
 115025678.878 8  89630491.406 7  21888636.680                    21888645.070
 118599991.983 7  92415611.008 7  22568817.094                    22568829.422
 119905944.392 7  93433344.80544  22817320.133                    22817326.945
 120699552.342 7  94051658.22644  22968360.617                    22968370.234
 126971332.085 6  98938753.95543  24161839.148                    24161847.625
 11  8 23  3 14 30.0000000  0 10G26G15G29G18G12G05G25G02G30G21
 113322142.012 7  88303046.04845  21564481.547                    21564490.297
 115897478.125 7  90309808.242 7  22054551.453                    22054560.594
 108989819.944 8  84927209.650 7  20740069.578                    20740077.820
 125183309.329 7  97545518.22443  23821593.594                    23821603.391
 124484521.306 6  97000969.734 6  23688616.797                    23688627.090
 115103579.150 8  89691192.902 7  21903460.563                    21903469.145
 118665995.160 7  92467042.013 7  22581377.039                    22581389.398
 119956868.825 7  93473026.16744  22827010.742                    22827016.832
 120772538.945 7  94108530.89544  22982249.719                    22982258.789
 126913786.244 6  98893913.11343  24150888.648                    24150896.695
 11  8 23  3 15  0.0000000  0 10G26G15G29G18G12G05G25G02G30G21
 113273416.709 8  88265078.30445  21555209.195                    21555218.301
 115815058.149 7  90245584.939 7  22038867.398                    22038876.746
 108940088.172 8  84888457.632 7  20730605.836                    20730614.277
 125104303.358 7  97483955.24543  23806559.516                    23806569.094
 124578341.347 6  97074076.189 6  23706471.195                    23706480.957
 115181673.595 8  89752045.696 7  21918321.906                    21918330.082
 118732295.238 7  92518704.380 7  22593993.875                    22594005.871
 120007910.458 7  93512798.86544  22836723.641                    22836729.898
 120845758.868 7  94165585.35844  22996183.242                    22996192.379
 126856201.993 7  98849042.34943  24139930.563                    24139938.512
 11  8 23  3 15 30.0000000  0 10G26G15G29G18G12G05G25G02G30G21
 113225250.539 7  88227546.23945  21546043.094                    21546052.402
 115732931.757 7  90181590.403 7  22023239.344                    22023248.184
 108890746.994 8  84850009.977 8  20721216.766                    20721224.957
 125025520.892 7  97422566.40343  23791567.484                    23791577.223
 124672174.332 7  97147192.756 6  23724327.016                    23724336.613
 115259958.995 8  89813047.291 7  21933219.531                    21933227.105
 118798888.747 7  92570595.388 7  22606666.422                    22606678.586
 120059069.664 7  93552663.14545  22846458.844                    22846466.039
 120919208.408 7  94222818.73744  23010159.781                    23010169.281
 126798578.566 6  98804141.06544  24128964.406                    24128973.379
